<?xml version="1.0" encoding="UTF-8" standalone="no" ?>
<gpx xmlns="http://www.topografix.com/GPX/1/1" xmlns:xsi="http://www.w3.org/2001/XMLSchema-instance" xsi:schemaLocation="http://www.topografix.com/GPX/1/1 http://www.topografix.com/GPX/1/1/gpx.xsd" version="1.1" creator="VisuGPX - https://www.visugpx.com">
  <metadata>
    <name>Initiation ski de randonnée à Barèges</name>
    <desc><![CDATA[
]]></desc>
  </metadata>
  <trk>
    <name><![CDATA[Initiation ski de randonnée à Barèges | Backcountry Ski | Strava]]></name>
    <trkseg>
      <trkpt lat="42.90343" lon="0.10152">
        <ele>1459.4</ele>
        <time>2020-02-09T07:42:00.000Z</time>
      </trkpt>
      <trkpt lat="42.90359" lon="0.10288">
        <ele>1462.8</ele>
        <time>2020-02-09T07:42:03.000Z</time>
      </trkpt>
      <trkpt lat="42.9036" lon="0.10293">
        <ele>1463</ele>
        <time>2020-02-09T07:42:09.000Z</time>
      </trkpt>
      <trkpt lat="42.90361" lon="0.10297">
        <ele>1463.1</ele>
        <time>2020-02-09T07:44:50.000Z</time>
      </trkpt>
      <trkpt lat="42.90359" lon="0.10301">
        <ele>1463.3</ele>
        <time>2020-02-09T07:44:54.000Z</time>
      </trkpt>
      <trkpt lat="42.90357" lon="0.10305">
        <ele>1463.5</ele>
        <time>2020-02-09T07:45:01.000Z</time>
      </trkpt>
      <trkpt lat="42.90355" lon="0.10308">
        <ele>1463.9</ele>
        <time>2020-02-09T07:45:05.000Z</time>
      </trkpt>
      <trkpt lat="42.90353" lon="0.10312">
        <ele>1464.1</ele>
        <time>2020-02-09T07:45:08.000Z</time>
      </trkpt>
      <trkpt lat="42.9035" lon="0.10314">
        <ele>1464.4</ele>
        <time>2020-02-09T07:45:13.000Z</time>
      </trkpt>
      <trkpt lat="42.90347" lon="0.10316">
        <ele>1464.5</ele>
        <time>2020-02-09T07:45:16.000Z</time>
      </trkpt>
      <trkpt lat="42.90345" lon="0.10318">
        <ele>1464.7</ele>
        <time>2020-02-09T07:45:22.000Z</time>
      </trkpt>
      <trkpt lat="42.90345" lon="0.10323">
        <ele>1464.9</ele>
        <time>2020-02-09T07:45:25.000Z</time>
      </trkpt>
      <trkpt lat="42.90344" lon="0.10326">
        <ele>1465.1</ele>
        <time>2020-02-09T07:45:27.000Z</time>
      </trkpt>
      <trkpt lat="42.90343" lon="0.1033">
        <ele>1465.2</ele>
        <time>2020-02-09T07:45:34.000Z</time>
      </trkpt>
      <trkpt lat="42.9034" lon="0.10326">
        <ele>1465.5</ele>
        <time>2020-02-09T07:45:41.000Z</time>
      </trkpt>
      <trkpt lat="42.90339" lon="0.10323">
        <ele>1465.6</ele>
        <time>2020-02-09T07:45:47.000Z</time>
      </trkpt>
      <trkpt lat="42.90341" lon="0.10324">
        <ele>1465.8</ele>
        <time>2020-02-09T07:46:11.000Z</time>
      </trkpt>
      <trkpt lat="42.90344" lon="0.10326">
        <ele>1466</ele>
        <time>2020-02-09T07:46:47.000Z</time>
      </trkpt>
      <trkpt lat="42.90347" lon="0.10327">
        <ele>1466.1</ele>
        <time>2020-02-09T07:46:52.000Z</time>
      </trkpt>
      <trkpt lat="42.90345" lon="0.1033">
        <ele>1466.3</ele>
        <time>2020-02-09T07:50:32.000Z</time>
      </trkpt>
      <trkpt lat="42.90345" lon="0.10334">
        <ele>1466.5</ele>
        <time>2020-02-09T07:51:12.000Z</time>
      </trkpt>
      <trkpt lat="42.90344" lon="0.10338">
        <ele>1466.7</ele>
        <time>2020-02-09T07:51:29.000Z</time>
      </trkpt>
      <trkpt lat="42.90342" lon="0.10342">
        <ele>1466.8</ele>
        <time>2020-02-09T07:51:37.000Z</time>
      </trkpt>
      <trkpt lat="42.9034" lon="0.10344">
        <ele>1466.9</ele>
        <time>2020-02-09T07:51:43.000Z</time>
      </trkpt>
      <trkpt lat="42.90337" lon="0.10346">
        <ele>1467</ele>
        <time>2020-02-09T07:51:48.000Z</time>
      </trkpt>
      <trkpt lat="42.90334" lon="0.10346">
        <ele>1467.1</ele>
        <time>2020-02-09T07:51:53.000Z</time>
      </trkpt>
      <trkpt lat="42.90331" lon="0.10347">
        <ele>1467.2</ele>
        <time>2020-02-09T07:51:56.000Z</time>
      </trkpt>
      <trkpt lat="42.90327" lon="0.1035">
        <ele>1467.4</ele>
        <time>2020-02-09T07:52:00.000Z</time>
      </trkpt>
      <trkpt lat="42.90323" lon="0.10352">
        <ele>1467.5</ele>
        <time>2020-02-09T07:52:04.000Z</time>
      </trkpt>
      <trkpt lat="42.9032" lon="0.10353">
        <ele>1467.6</ele>
        <time>2020-02-09T07:52:06.000Z</time>
      </trkpt>
      <trkpt lat="42.90317" lon="0.10355">
        <ele>1467.8</ele>
        <time>2020-02-09T07:52:11.000Z</time>
      </trkpt>
      <trkpt lat="42.90314" lon="0.10356">
        <ele>1467.9</ele>
        <time>2020-02-09T07:52:13.000Z</time>
      </trkpt>
      <trkpt lat="42.9031" lon="0.10358">
        <ele>1468</ele>
        <time>2020-02-09T07:52:18.000Z</time>
      </trkpt>
      <trkpt lat="42.90307" lon="0.10358">
        <ele>1468.1</ele>
        <time>2020-02-09T07:52:22.000Z</time>
      </trkpt>
      <trkpt lat="42.90304" lon="0.10359">
        <ele>1468.2</ele>
        <time>2020-02-09T07:52:26.000Z</time>
      </trkpt>
      <trkpt lat="42.90301" lon="0.1036">
        <ele>1468.3</ele>
        <time>2020-02-09T07:52:30.000Z</time>
      </trkpt>
      <trkpt lat="42.90298" lon="0.10361">
        <ele>1468.4</ele>
        <time>2020-02-09T07:52:35.000Z</time>
      </trkpt>
      <trkpt lat="42.90295" lon="0.10361">
        <ele>1468.5</ele>
        <time>2020-02-09T07:52:45.000Z</time>
      </trkpt>
      <trkpt lat="42.90292" lon="0.10361">
        <ele>1468.6</ele>
        <time>2020-02-09T07:52:51.000Z</time>
      </trkpt>
      <trkpt lat="42.90289" lon="0.1036">
        <ele>1468.8</ele>
        <time>2020-02-09T07:52:54.000Z</time>
      </trkpt>
      <trkpt lat="42.90286" lon="0.1036">
        <ele>1469</ele>
        <time>2020-02-09T07:52:59.000Z</time>
      </trkpt>
      <trkpt lat="42.90283" lon="0.10361">
        <ele>1469.2</ele>
        <time>2020-02-09T07:53:03.000Z</time>
      </trkpt>
      <trkpt lat="42.9028" lon="0.10362">
        <ele>1469.4</ele>
        <time>2020-02-09T07:53:07.000Z</time>
      </trkpt>
      <trkpt lat="42.90278" lon="0.10364">
        <ele>1469.6</ele>
        <time>2020-02-09T07:53:10.000Z</time>
      </trkpt>
      <trkpt lat="42.90275" lon="0.10365">
        <ele>1469.7</ele>
        <time>2020-02-09T07:53:13.000Z</time>
      </trkpt>
      <trkpt lat="42.90271" lon="0.10366">
        <ele>1470</ele>
        <time>2020-02-09T07:53:17.000Z</time>
      </trkpt>
      <trkpt lat="42.90267" lon="0.10366">
        <ele>1470.3</ele>
        <time>2020-02-09T07:53:22.000Z</time>
      </trkpt>
      <trkpt lat="42.90264" lon="0.10365">
        <ele>1470.4</ele>
        <time>2020-02-09T07:53:25.000Z</time>
      </trkpt>
      <trkpt lat="42.90261" lon="0.10365">
        <ele>1470.7</ele>
        <time>2020-02-09T07:53:28.000Z</time>
      </trkpt>
      <trkpt lat="42.90258" lon="0.10365">
        <ele>1470.9</ele>
        <time>2020-02-09T07:53:32.000Z</time>
      </trkpt>
      <trkpt lat="42.90255" lon="0.10365">
        <ele>1471.1</ele>
        <time>2020-02-09T07:53:36.000Z</time>
      </trkpt>
      <trkpt lat="42.90251" lon="0.10367">
        <ele>1471.3</ele>
        <time>2020-02-09T07:53:41.000Z</time>
      </trkpt>
      <trkpt lat="42.90249" lon="0.10368">
        <ele>1471.5</ele>
        <time>2020-02-09T07:53:45.000Z</time>
      </trkpt>
      <trkpt lat="42.90246" lon="0.10369">
        <ele>1471.6</ele>
        <time>2020-02-09T07:53:49.000Z</time>
      </trkpt>
      <trkpt lat="42.90243" lon="0.1037">
        <ele>1471.7</ele>
        <time>2020-02-09T07:53:53.000Z</time>
      </trkpt>
      <trkpt lat="42.90239" lon="0.10371">
        <ele>1471.9</ele>
        <time>2020-02-09T07:53:57.000Z</time>
      </trkpt>
      <trkpt lat="42.90236" lon="0.10371">
        <ele>1472</ele>
        <time>2020-02-09T07:54:01.000Z</time>
      </trkpt>
      <trkpt lat="42.90232" lon="0.10371">
        <ele>1472.1</ele>
        <time>2020-02-09T07:54:04.000Z</time>
      </trkpt>
      <trkpt lat="42.90229" lon="0.1037">
        <ele>1472.2</ele>
        <time>2020-02-09T07:54:08.000Z</time>
      </trkpt>
      <trkpt lat="42.90225" lon="0.1037">
        <ele>1472.3</ele>
        <time>2020-02-09T07:54:12.000Z</time>
      </trkpt>
      <trkpt lat="42.90222" lon="0.10368">
        <ele>1472.4</ele>
        <time>2020-02-09T07:54:17.000Z</time>
      </trkpt>
      <trkpt lat="42.90219" lon="0.10367">
        <ele>1472.5</ele>
        <time>2020-02-09T07:54:21.000Z</time>
      </trkpt>
      <trkpt lat="42.90215" lon="0.10368">
        <ele>1472.6</ele>
        <time>2020-02-09T07:54:25.000Z</time>
      </trkpt>
      <trkpt lat="42.90212" lon="0.10369">
        <ele>1472.6</ele>
        <time>2020-02-09T07:54:29.000Z</time>
      </trkpt>
      <trkpt lat="42.90209" lon="0.10371">
        <ele>1472.7</ele>
        <time>2020-02-09T07:54:32.000Z</time>
      </trkpt>
      <trkpt lat="42.90207" lon="0.10373">
        <ele>1472.7</ele>
        <time>2020-02-09T07:54:35.000Z</time>
      </trkpt>
      <trkpt lat="42.90203" lon="0.10374">
        <ele>1472.7</ele>
        <time>2020-02-09T07:54:39.000Z</time>
      </trkpt>
      <trkpt lat="42.902" lon="0.10374">
        <ele>1472.7</ele>
        <time>2020-02-09T07:54:44.000Z</time>
      </trkpt>
      <trkpt lat="42.90197" lon="0.10376">
        <ele>1472.7</ele>
        <time>2020-02-09T07:54:48.000Z</time>
      </trkpt>
      <trkpt lat="42.90193" lon="0.10378">
        <ele>1472.7</ele>
        <time>2020-02-09T07:54:53.000Z</time>
      </trkpt>
      <trkpt lat="42.90191" lon="0.10379">
        <ele>1472.7</ele>
        <time>2020-02-09T07:54:58.000Z</time>
      </trkpt>
      <trkpt lat="42.90188" lon="0.10381">
        <ele>1472.7</ele>
        <time>2020-02-09T07:55:03.000Z</time>
      </trkpt>
      <trkpt lat="42.90185" lon="0.10383">
        <ele>1472.6</ele>
        <time>2020-02-09T07:55:09.000Z</time>
      </trkpt>
      <trkpt lat="42.90181" lon="0.10384">
        <ele>1472.5</ele>
        <time>2020-02-09T07:55:15.000Z</time>
      </trkpt>
      <trkpt lat="42.90178" lon="0.10385">
        <ele>1472.4</ele>
        <time>2020-02-09T07:55:20.000Z</time>
      </trkpt>
      <trkpt lat="42.90175" lon="0.10385">
        <ele>1472.4</ele>
        <time>2020-02-09T07:55:24.000Z</time>
      </trkpt>
      <trkpt lat="42.90172" lon="0.10386">
        <ele>1472.3</ele>
        <time>2020-02-09T07:55:29.000Z</time>
      </trkpt>
      <trkpt lat="42.90169" lon="0.10388">
        <ele>1472.2</ele>
        <time>2020-02-09T07:55:33.000Z</time>
      </trkpt>
      <trkpt lat="42.90165" lon="0.10389">
        <ele>1472.4</ele>
        <time>2020-02-09T07:55:38.000Z</time>
      </trkpt>
      <trkpt lat="42.90162" lon="0.1039">
        <ele>1472.9</ele>
        <time>2020-02-09T07:55:42.000Z</time>
      </trkpt>
      <trkpt lat="42.90159" lon="0.10391">
        <ele>1473.4</ele>
        <time>2020-02-09T07:55:47.000Z</time>
      </trkpt>
      <trkpt lat="42.90156" lon="0.10392">
        <ele>1473.8</ele>
        <time>2020-02-09T07:55:51.000Z</time>
      </trkpt>
      <trkpt lat="42.90153" lon="0.10395">
        <ele>1474.2</ele>
        <time>2020-02-09T07:55:56.000Z</time>
      </trkpt>
      <trkpt lat="42.90152" lon="0.10399">
        <ele>1474.6</ele>
        <time>2020-02-09T07:56:01.000Z</time>
      </trkpt>
      <trkpt lat="42.90151" lon="0.10402">
        <ele>1474.7</ele>
        <time>2020-02-09T07:56:07.000Z</time>
      </trkpt>
      <trkpt lat="42.9015" lon="0.10406">
        <ele>1475.2</ele>
        <time>2020-02-09T07:56:14.000Z</time>
      </trkpt>
      <trkpt lat="42.90151" lon="0.10412">
        <ele>1476.3</ele>
        <time>2020-02-09T07:56:19.000Z</time>
      </trkpt>
      <trkpt lat="42.90153" lon="0.10415">
        <ele>1476.4</ele>
        <time>2020-02-09T07:56:23.000Z</time>
      </trkpt>
      <trkpt lat="42.90155" lon="0.10417">
        <ele>1477.2</ele>
        <time>2020-02-09T07:56:27.000Z</time>
      </trkpt>
      <trkpt lat="42.90158" lon="0.10418">
        <ele>1477.4</ele>
        <time>2020-02-09T07:56:30.000Z</time>
      </trkpt>
      <trkpt lat="42.90161" lon="0.1042">
        <ele>1478.3</ele>
        <time>2020-02-09T07:56:36.000Z</time>
      </trkpt>
      <trkpt lat="42.90163" lon="0.10423">
        <ele>1478.5</ele>
        <time>2020-02-09T07:56:40.000Z</time>
      </trkpt>
      <trkpt lat="42.90165" lon="0.10426">
        <ele>1479.3</ele>
        <time>2020-02-09T07:56:49.000Z</time>
      </trkpt>
      <trkpt lat="42.90166" lon="0.10429">
        <ele>1480.2</ele>
        <time>2020-02-09T07:56:56.000Z</time>
      </trkpt>
      <trkpt lat="42.90168" lon="0.10433">
        <ele>1480.3</ele>
        <time>2020-02-09T07:57:00.000Z</time>
      </trkpt>
      <trkpt lat="42.90171" lon="0.10435">
        <ele>1481.2</ele>
        <time>2020-02-09T07:57:03.000Z</time>
      </trkpt>
      <trkpt lat="42.90174" lon="0.10437">
        <ele>1481.5</ele>
        <time>2020-02-09T07:57:08.000Z</time>
      </trkpt>
      <trkpt lat="42.90176" lon="0.10437">
        <ele>1481.7</ele>
        <time>2020-02-09T07:57:11.000Z</time>
      </trkpt>
      <trkpt lat="42.9018" lon="0.10437">
        <ele>1482.6</ele>
        <time>2020-02-09T07:57:14.000Z</time>
      </trkpt>
      <trkpt lat="42.90183" lon="0.10437">
        <ele>1482.9</ele>
        <time>2020-02-09T07:57:19.000Z</time>
      </trkpt>
      <trkpt lat="42.90186" lon="0.10439">
        <ele>1483.1</ele>
        <time>2020-02-09T07:57:22.000Z</time>
      </trkpt>
      <trkpt lat="42.90189" lon="0.10439">
        <ele>1483.3</ele>
        <time>2020-02-09T07:57:26.000Z</time>
      </trkpt>
      <trkpt lat="42.90192" lon="0.1044">
        <ele>1483.5</ele>
        <time>2020-02-09T07:57:30.000Z</time>
      </trkpt>
      <trkpt lat="42.90196" lon="0.10441">
        <ele>1483.7</ele>
        <time>2020-02-09T07:57:35.000Z</time>
      </trkpt>
      <trkpt lat="42.90199" lon="0.10441">
        <ele>1483.8</ele>
        <time>2020-02-09T07:57:39.000Z</time>
      </trkpt>
      <trkpt lat="42.90202" lon="0.10442">
        <ele>1484.8</ele>
        <time>2020-02-09T07:57:43.000Z</time>
      </trkpt>
      <trkpt lat="42.90205" lon="0.10444">
        <ele>1485</ele>
        <time>2020-02-09T07:57:48.000Z</time>
      </trkpt>
      <trkpt lat="42.90208" lon="0.10445">
        <ele>1485.1</ele>
        <time>2020-02-09T07:57:52.000Z</time>
      </trkpt>
      <trkpt lat="42.90211" lon="0.10447">
        <ele>1486.1</ele>
        <time>2020-02-09T07:57:56.000Z</time>
      </trkpt>
      <trkpt lat="42.90214" lon="0.10449">
        <ele>1486.3</ele>
        <time>2020-02-09T07:58:00.000Z</time>
      </trkpt>
      <trkpt lat="42.90217" lon="0.10451">
        <ele>1487.2</ele>
        <time>2020-02-09T07:58:06.000Z</time>
      </trkpt>
      <trkpt lat="42.90219" lon="0.10453">
        <ele>1487.4</ele>
        <time>2020-02-09T07:58:10.000Z</time>
      </trkpt>
      <trkpt lat="42.90222" lon="0.10456">
        <ele>1488.3</ele>
        <time>2020-02-09T07:58:14.000Z</time>
      </trkpt>
      <trkpt lat="42.90224" lon="0.10458">
        <ele>1488.4</ele>
        <time>2020-02-09T07:58:18.000Z</time>
      </trkpt>
      <trkpt lat="42.90227" lon="0.10461">
        <ele>1489.4</ele>
        <time>2020-02-09T07:58:22.000Z</time>
      </trkpt>
      <trkpt lat="42.9023" lon="0.10464">
        <ele>1490.5</ele>
        <time>2020-02-09T07:58:28.000Z</time>
      </trkpt>
      <trkpt lat="42.90232" lon="0.10466">
        <ele>1490.6</ele>
        <time>2020-02-09T07:58:32.000Z</time>
      </trkpt>
      <trkpt lat="42.90234" lon="0.10469">
        <ele>1491.7</ele>
        <time>2020-02-09T07:58:37.000Z</time>
      </trkpt>
      <trkpt lat="42.90237" lon="0.10472">
        <ele>1492.9</ele>
        <time>2020-02-09T07:58:42.000Z</time>
      </trkpt>
      <trkpt lat="42.90239" lon="0.10475">
        <ele>1492.9</ele>
        <time>2020-02-09T07:58:46.000Z</time>
      </trkpt>
      <trkpt lat="42.90242" lon="0.10478">
        <ele>1494.1</ele>
        <time>2020-02-09T07:58:51.000Z</time>
      </trkpt>
      <trkpt lat="42.90245" lon="0.10481">
        <ele>1495.1</ele>
        <time>2020-02-09T07:58:56.000Z</time>
      </trkpt>
      <trkpt lat="42.90247" lon="0.10484">
        <ele>1495.2</ele>
        <time>2020-02-09T07:59:00.000Z</time>
      </trkpt>
      <trkpt lat="42.9025" lon="0.10487">
        <ele>1496.3</ele>
        <time>2020-02-09T07:59:05.000Z</time>
      </trkpt>
      <trkpt lat="42.90253" lon="0.1049">
        <ele>1497.3</ele>
        <time>2020-02-09T07:59:10.000Z</time>
      </trkpt>
      <trkpt lat="42.90255" lon="0.10492">
        <ele>1497.2</ele>
        <time>2020-02-09T07:59:16.000Z</time>
      </trkpt>
      <trkpt lat="42.90258" lon="0.10494">
        <ele>1498.3</ele>
        <time>2020-02-09T07:59:21.000Z</time>
      </trkpt>
      <trkpt lat="42.9026" lon="0.10496">
        <ele>1498.2</ele>
        <time>2020-02-09T07:59:26.000Z</time>
      </trkpt>
      <trkpt lat="42.90264" lon="0.10499">
        <ele>1499.2</ele>
        <time>2020-02-09T07:59:33.000Z</time>
      </trkpt>
      <trkpt lat="42.90267" lon="0.10501">
        <ele>1499</ele>
        <time>2020-02-09T07:59:38.000Z</time>
      </trkpt>
      <trkpt lat="42.90269" lon="0.10504">
        <ele>1500</ele>
        <time>2020-02-09T07:59:42.000Z</time>
      </trkpt>
      <trkpt lat="42.90272" lon="0.10505">
        <ele>1500.1</ele>
        <time>2020-02-09T07:59:46.000Z</time>
      </trkpt>
      <trkpt lat="42.90275" lon="0.10506">
        <ele>1501.1</ele>
        <time>2020-02-09T07:59:51.000Z</time>
      </trkpt>
      <trkpt lat="42.90278" lon="0.10508">
        <ele>1500.8</ele>
        <time>2020-02-09T07:59:56.000Z</time>
      </trkpt>
      <trkpt lat="42.9028" lon="0.10509">
        <ele>1500.5</ele>
        <time>2020-02-09T08:00:00.000Z</time>
      </trkpt>
      <trkpt lat="42.90283" lon="0.10511">
        <ele>1501.5</ele>
        <time>2020-02-09T08:00:04.000Z</time>
      </trkpt>
      <trkpt lat="42.90286" lon="0.10513">
        <ele>1501.3</ele>
        <time>2020-02-09T08:00:09.000Z</time>
      </trkpt>
      <trkpt lat="42.90288" lon="0.10516">
        <ele>1502.3</ele>
        <time>2020-02-09T08:00:14.000Z</time>
      </trkpt>
      <trkpt lat="42.9029" lon="0.10519">
        <ele>1503.7</ele>
        <time>2020-02-09T08:00:18.000Z</time>
      </trkpt>
      <trkpt lat="42.90293" lon="0.10523">
        <ele>1504.8</ele>
        <time>2020-02-09T08:00:24.000Z</time>
      </trkpt>
      <trkpt lat="42.90295" lon="0.10527">
        <ele>1505.9</ele>
        <time>2020-02-09T08:00:28.000Z</time>
      </trkpt>
      <trkpt lat="42.90298" lon="0.1053">
        <ele>1505.7</ele>
        <time>2020-02-09T08:00:33.000Z</time>
      </trkpt>
      <trkpt lat="42.903" lon="0.10532">
        <ele>1507</ele>
        <time>2020-02-09T08:00:36.000Z</time>
      </trkpt>
      <trkpt lat="42.90304" lon="0.10535">
        <ele>1506.8</ele>
        <time>2020-02-09T08:00:40.000Z</time>
      </trkpt>
      <trkpt lat="42.90307" lon="0.10537">
        <ele>1507.4</ele>
        <time>2020-02-09T08:00:45.000Z</time>
      </trkpt>
      <trkpt lat="42.9031" lon="0.10539">
        <ele>1507.1</ele>
        <time>2020-02-09T08:00:48.000Z</time>
      </trkpt>
      <trkpt lat="42.90313" lon="0.1054">
        <ele>1508.1</ele>
        <time>2020-02-09T08:00:51.000Z</time>
      </trkpt>
      <trkpt lat="42.90316" lon="0.10541">
        <ele>1508.2</ele>
        <time>2020-02-09T08:00:54.000Z</time>
      </trkpt>
      <trkpt lat="42.9032" lon="0.10543">
        <ele>1507.7</ele>
        <time>2020-02-09T08:00:58.000Z</time>
      </trkpt>
      <trkpt lat="42.90322" lon="0.10543">
        <ele>1507.8</ele>
        <time>2020-02-09T08:01:01.000Z</time>
      </trkpt>
      <trkpt lat="42.90326" lon="0.10545">
        <ele>1508.6</ele>
        <time>2020-02-09T08:01:05.000Z</time>
      </trkpt>
      <trkpt lat="42.90329" lon="0.10546">
        <ele>1508.5</ele>
        <time>2020-02-09T08:01:08.000Z</time>
      </trkpt>
      <trkpt lat="42.90332" lon="0.10548">
        <ele>1508.6</ele>
        <time>2020-02-09T08:01:13.000Z</time>
      </trkpt>
      <trkpt lat="42.90335" lon="0.10549">
        <ele>1509.8</ele>
        <time>2020-02-09T08:01:20.000Z</time>
      </trkpt>
      <trkpt lat="42.90338" lon="0.10551">
        <ele>1509.7</ele>
        <time>2020-02-09T08:01:24.000Z</time>
      </trkpt>
      <trkpt lat="42.90341" lon="0.10552">
        <ele>1509.7</ele>
        <time>2020-02-09T08:01:30.000Z</time>
      </trkpt>
      <trkpt lat="42.90345" lon="0.10554">
        <ele>1510.9</ele>
        <time>2020-02-09T08:01:36.000Z</time>
      </trkpt>
      <trkpt lat="42.90348" lon="0.10555">
        <ele>1510.9</ele>
        <time>2020-02-09T08:01:41.000Z</time>
      </trkpt>
      <trkpt lat="42.9035" lon="0.10556">
        <ele>1511</ele>
        <time>2020-02-09T08:01:51.000Z</time>
      </trkpt>
      <trkpt lat="42.90353" lon="0.10557">
        <ele>1512.3</ele>
        <time>2020-02-09T08:01:55.000Z</time>
      </trkpt>
      <trkpt lat="42.90356" lon="0.10558">
        <ele>1512.2</ele>
        <time>2020-02-09T08:02:03.000Z</time>
      </trkpt>
      <trkpt lat="42.9036" lon="0.10558">
        <ele>1512.2</ele>
        <time>2020-02-09T08:02:09.000Z</time>
      </trkpt>
      <trkpt lat="42.90363" lon="0.10558">
        <ele>1512</ele>
        <time>2020-02-09T08:02:13.000Z</time>
      </trkpt>
      <trkpt lat="42.90367" lon="0.10558">
        <ele>1512</ele>
        <time>2020-02-09T08:02:18.000Z</time>
      </trkpt>
      <trkpt lat="42.9037" lon="0.10558">
        <ele>1512.1</ele>
        <time>2020-02-09T08:02:23.000Z</time>
      </trkpt>
      <trkpt lat="42.90373" lon="0.10559">
        <ele>1512.2</ele>
        <time>2020-02-09T08:02:28.000Z</time>
      </trkpt>
      <trkpt lat="42.90376" lon="0.1056">
        <ele>1512.3</ele>
        <time>2020-02-09T08:02:32.000Z</time>
      </trkpt>
      <trkpt lat="42.90379" lon="0.10561">
        <ele>1512.4</ele>
        <time>2020-02-09T08:02:34.000Z</time>
      </trkpt>
      <trkpt lat="42.90382" lon="0.10561">
        <ele>1512.6</ele>
        <time>2020-02-09T08:02:41.000Z</time>
      </trkpt>
      <trkpt lat="42.90386" lon="0.10562">
        <ele>1514.1</ele>
        <time>2020-02-09T08:02:47.000Z</time>
      </trkpt>
      <trkpt lat="42.90388" lon="0.10561">
        <ele>1513</ele>
        <time>2020-02-09T08:02:51.000Z</time>
      </trkpt>
      <trkpt lat="42.90391" lon="0.1056">
        <ele>1513.3</ele>
        <time>2020-02-09T08:02:54.000Z</time>
      </trkpt>
      <trkpt lat="42.90394" lon="0.1056">
        <ele>1513.6</ele>
        <time>2020-02-09T08:02:57.000Z</time>
      </trkpt>
      <trkpt lat="42.90398" lon="0.10559">
        <ele>1513.8</ele>
        <time>2020-02-09T08:03:02.000Z</time>
      </trkpt>
      <trkpt lat="42.90401" lon="0.10559">
        <ele>1514.1</ele>
        <time>2020-02-09T08:03:06.000Z</time>
      </trkpt>
      <trkpt lat="42.90405" lon="0.1056">
        <ele>1514.6</ele>
        <time>2020-02-09T08:03:10.000Z</time>
      </trkpt>
      <trkpt lat="42.90407" lon="0.10561">
        <ele>1514.7</ele>
        <time>2020-02-09T08:03:13.000Z</time>
      </trkpt>
      <trkpt lat="42.90411" lon="0.10563">
        <ele>1516.3</ele>
        <time>2020-02-09T08:03:17.000Z</time>
      </trkpt>
      <trkpt lat="42.90413" lon="0.10564">
        <ele>1516.4</ele>
        <time>2020-02-09T08:03:20.000Z</time>
      </trkpt>
      <trkpt lat="42.90417" lon="0.10565">
        <ele>1516.7</ele>
        <time>2020-02-09T08:03:23.000Z</time>
      </trkpt>
      <trkpt lat="42.9042" lon="0.10566">
        <ele>1518</ele>
        <time>2020-02-09T08:03:28.000Z</time>
      </trkpt>
      <trkpt lat="42.90422" lon="0.10568">
        <ele>1518.2</ele>
        <time>2020-02-09T08:03:34.000Z</time>
      </trkpt>
      <trkpt lat="42.90426" lon="0.10571">
        <ele>1519.4</ele>
        <time>2020-02-09T08:03:38.000Z</time>
      </trkpt>
      <trkpt lat="42.90428" lon="0.10573">
        <ele>1519.7</ele>
        <time>2020-02-09T08:03:42.000Z</time>
      </trkpt>
      <trkpt lat="42.9043" lon="0.10576">
        <ele>1520.8</ele>
        <time>2020-02-09T08:03:45.000Z</time>
      </trkpt>
      <trkpt lat="42.90433" lon="0.10579">
        <ele>1521.1</ele>
        <time>2020-02-09T08:03:49.000Z</time>
      </trkpt>
      <trkpt lat="42.90436" lon="0.10582">
        <ele>1522.1</ele>
        <time>2020-02-09T08:03:54.000Z</time>
      </trkpt>
      <trkpt lat="42.90439" lon="0.10584">
        <ele>1523.2</ele>
        <time>2020-02-09T08:03:58.000Z</time>
      </trkpt>
      <trkpt lat="42.90442" lon="0.10586">
        <ele>1523.4</ele>
        <time>2020-02-09T08:04:04.000Z</time>
      </trkpt>
      <trkpt lat="42.90446" lon="0.10589">
        <ele>1524.4</ele>
        <time>2020-02-09T08:04:08.000Z</time>
      </trkpt>
      <trkpt lat="42.90449" lon="0.10592">
        <ele>1524.6</ele>
        <time>2020-02-09T08:04:11.000Z</time>
      </trkpt>
      <trkpt lat="42.90452" lon="0.10593">
        <ele>1525.6</ele>
        <time>2020-02-09T08:04:17.000Z</time>
      </trkpt>
      <trkpt lat="42.90454" lon="0.1059">
        <ele>1524.9</ele>
        <time>2020-02-09T08:04:35.000Z</time>
      </trkpt>
      <trkpt lat="42.90457" lon="0.10592">
        <ele>1525.9</ele>
        <time>2020-02-09T08:05:17.000Z</time>
      </trkpt>
      <trkpt lat="42.90459" lon="0.10595">
        <ele>1526.1</ele>
        <time>2020-02-09T08:05:24.000Z</time>
      </trkpt>
      <trkpt lat="42.90462" lon="0.10597">
        <ele>1527.1</ele>
        <time>2020-02-09T08:05:35.000Z</time>
      </trkpt>
      <trkpt lat="42.90464" lon="0.10599">
        <ele>1527.3</ele>
        <time>2020-02-09T08:05:49.000Z</time>
      </trkpt>
      <trkpt lat="42.90467" lon="0.10601">
        <ele>1528.2</ele>
        <time>2020-02-09T08:06:01.000Z</time>
      </trkpt>
      <trkpt lat="42.9047" lon="0.10603">
        <ele>1528.4</ele>
        <time>2020-02-09T08:06:15.000Z</time>
      </trkpt>
      <trkpt lat="42.90475" lon="0.10606">
        <ele>1529.7</ele>
        <time>2020-02-09T08:06:20.000Z</time>
      </trkpt>
      <trkpt lat="42.90478" lon="0.10607">
        <ele>1530</ele>
        <time>2020-02-09T08:06:23.000Z</time>
      </trkpt>
      <trkpt lat="42.90481" lon="0.10609">
        <ele>1531</ele>
        <time>2020-02-09T08:06:29.000Z</time>
      </trkpt>
      <trkpt lat="42.90483" lon="0.10612">
        <ele>1531.3</ele>
        <time>2020-02-09T08:06:36.000Z</time>
      </trkpt>
      <trkpt lat="42.90485" lon="0.10616">
        <ele>1532</ele>
        <time>2020-02-09T08:06:41.000Z</time>
      </trkpt>
      <trkpt lat="42.90487" lon="0.10619">
        <ele>1532.9</ele>
        <time>2020-02-09T08:06:48.000Z</time>
      </trkpt>
      <trkpt lat="42.90489" lon="0.10622">
        <ele>1533.8</ele>
        <time>2020-02-09T08:06:52.000Z</time>
      </trkpt>
      <trkpt lat="42.90492" lon="0.10625">
        <ele>1533.9</ele>
        <time>2020-02-09T08:06:56.000Z</time>
      </trkpt>
      <trkpt lat="42.90495" lon="0.10628">
        <ele>1534.8</ele>
        <time>2020-02-09T08:07:01.000Z</time>
      </trkpt>
      <trkpt lat="42.90497" lon="0.1063">
        <ele>1535.6</ele>
        <time>2020-02-09T08:07:06.000Z</time>
      </trkpt>
      <trkpt lat="42.905" lon="0.10633">
        <ele>1536</ele>
        <time>2020-02-09T08:07:11.000Z</time>
      </trkpt>
      <trkpt lat="42.90503" lon="0.10636">
        <ele>1536.9</ele>
        <time>2020-02-09T08:07:16.000Z</time>
      </trkpt>
      <trkpt lat="42.90506" lon="0.10637">
        <ele>1537.3</ele>
        <time>2020-02-09T08:07:20.000Z</time>
      </trkpt>
      <trkpt lat="42.90509" lon="0.1064">
        <ele>1538.1</ele>
        <time>2020-02-09T08:07:25.000Z</time>
      </trkpt>
      <trkpt lat="42.90512" lon="0.10642">
        <ele>1538.4</ele>
        <time>2020-02-09T08:07:29.000Z</time>
      </trkpt>
      <trkpt lat="42.90515" lon="0.10645">
        <ele>1539.2</ele>
        <time>2020-02-09T08:07:35.000Z</time>
      </trkpt>
      <trkpt lat="42.90517" lon="0.10649">
        <ele>1539.8</ele>
        <time>2020-02-09T08:07:39.000Z</time>
      </trkpt>
      <trkpt lat="42.90519" lon="0.10652">
        <ele>1540.6</ele>
        <time>2020-02-09T08:07:44.000Z</time>
      </trkpt>
      <trkpt lat="42.90522" lon="0.10657">
        <ele>1541.4</ele>
        <time>2020-02-09T08:07:50.000Z</time>
      </trkpt>
      <trkpt lat="42.90524" lon="0.1066">
        <ele>1541.7</ele>
        <time>2020-02-09T08:07:55.000Z</time>
      </trkpt>
      <trkpt lat="42.90526" lon="0.10663">
        <ele>1542.3</ele>
        <time>2020-02-09T08:08:00.000Z</time>
      </trkpt>
      <trkpt lat="42.90527" lon="0.10667">
        <ele>1543</ele>
        <time>2020-02-09T08:08:05.000Z</time>
      </trkpt>
      <trkpt lat="42.90529" lon="0.1067">
        <ele>1543.5</ele>
        <time>2020-02-09T08:08:09.000Z</time>
      </trkpt>
      <trkpt lat="42.90531" lon="0.10674">
        <ele>1544.3</ele>
        <time>2020-02-09T08:08:15.000Z</time>
      </trkpt>
      <trkpt lat="42.90531" lon="0.10678">
        <ele>1544.8</ele>
        <time>2020-02-09T08:08:23.000Z</time>
      </trkpt>
      <trkpt lat="42.90532" lon="0.10682">
        <ele>1545.2</ele>
        <time>2020-02-09T08:08:27.000Z</time>
      </trkpt>
      <trkpt lat="42.90533" lon="0.10686">
        <ele>1546</ele>
        <time>2020-02-09T08:08:33.000Z</time>
      </trkpt>
      <trkpt lat="42.90534" lon="0.1069">
        <ele>1546.1</ele>
        <time>2020-02-09T08:08:38.000Z</time>
      </trkpt>
      <trkpt lat="42.90535" lon="0.10694">
        <ele>1546.6</ele>
        <time>2020-02-09T08:08:43.000Z</time>
      </trkpt>
      <trkpt lat="42.90537" lon="0.10699">
        <ele>1547.7</ele>
        <time>2020-02-09T08:08:49.000Z</time>
      </trkpt>
      <trkpt lat="42.90538" lon="0.10702">
        <ele>1547.8</ele>
        <time>2020-02-09T08:08:56.000Z</time>
      </trkpt>
      <trkpt lat="42.9054" lon="0.10706">
        <ele>1548.5</ele>
        <time>2020-02-09T08:09:03.000Z</time>
      </trkpt>
      <trkpt lat="42.90541" lon="0.10709">
        <ele>1548.9</ele>
        <time>2020-02-09T08:09:08.000Z</time>
      </trkpt>
      <trkpt lat="42.90544" lon="0.10712">
        <ele>1549.3</ele>
        <time>2020-02-09T08:09:13.000Z</time>
      </trkpt>
      <trkpt lat="42.90545" lon="0.10715">
        <ele>1549.7</ele>
        <time>2020-02-09T08:09:18.000Z</time>
      </trkpt>
      <trkpt lat="42.90547" lon="0.10719">
        <ele>1550.4</ele>
        <time>2020-02-09T08:09:23.000Z</time>
      </trkpt>
      <trkpt lat="42.90547" lon="0.10723">
        <ele>1550.8</ele>
        <time>2020-02-09T08:09:28.000Z</time>
      </trkpt>
      <trkpt lat="42.90549" lon="0.10727">
        <ele>1551.5</ele>
        <time>2020-02-09T08:09:33.000Z</time>
      </trkpt>
      <trkpt lat="42.9055" lon="0.10731">
        <ele>1551.9</ele>
        <time>2020-02-09T08:09:37.000Z</time>
      </trkpt>
      <trkpt lat="42.90552" lon="0.10735">
        <ele>1552.6</ele>
        <time>2020-02-09T08:09:43.000Z</time>
      </trkpt>
      <trkpt lat="42.90553" lon="0.1074">
        <ele>1553</ele>
        <time>2020-02-09T08:09:49.000Z</time>
      </trkpt>
      <trkpt lat="42.90553" lon="0.10744">
        <ele>1553.3</ele>
        <time>2020-02-09T08:09:55.000Z</time>
      </trkpt>
      <trkpt lat="42.90553" lon="0.10749">
        <ele>1553.8</ele>
        <time>2020-02-09T08:10:00.000Z</time>
      </trkpt>
      <trkpt lat="42.90554" lon="0.10753">
        <ele>1554.1</ele>
        <time>2020-02-09T08:10:03.000Z</time>
      </trkpt>
      <trkpt lat="42.90555" lon="0.10757">
        <ele>1554.5</ele>
        <time>2020-02-09T08:10:08.000Z</time>
      </trkpt>
      <trkpt lat="42.90555" lon="0.10761">
        <ele>1555.1</ele>
        <time>2020-02-09T08:10:12.000Z</time>
      </trkpt>
      <trkpt lat="42.90556" lon="0.10766">
        <ele>1555.5</ele>
        <time>2020-02-09T08:10:16.000Z</time>
      </trkpt>
      <trkpt lat="42.90557" lon="0.1077">
        <ele>1555.8</ele>
        <time>2020-02-09T08:10:21.000Z</time>
      </trkpt>
      <trkpt lat="42.90558" lon="0.10774">
        <ele>1556.2</ele>
        <time>2020-02-09T08:10:25.000Z</time>
      </trkpt>
      <trkpt lat="42.90559" lon="0.10778">
        <ele>1556.9</ele>
        <time>2020-02-09T08:10:30.000Z</time>
      </trkpt>
      <trkpt lat="42.9056" lon="0.10782">
        <ele>1557.3</ele>
        <time>2020-02-09T08:10:34.000Z</time>
      </trkpt>
      <trkpt lat="42.90561" lon="0.10786">
        <ele>1557.8</ele>
        <time>2020-02-09T08:10:43.000Z</time>
      </trkpt>
      <trkpt lat="42.90562" lon="0.1079">
        <ele>1558.5</ele>
        <time>2020-02-09T08:10:47.000Z</time>
      </trkpt>
      <trkpt lat="42.90562" lon="0.10793">
        <ele>1558.9</ele>
        <time>2020-02-09T08:10:50.000Z</time>
      </trkpt>
      <trkpt lat="42.90563" lon="0.10797">
        <ele>1559</ele>
        <time>2020-02-09T08:10:54.000Z</time>
      </trkpt>
      <trkpt lat="42.90564" lon="0.10801">
        <ele>1559.4</ele>
        <time>2020-02-09T08:10:58.000Z</time>
      </trkpt>
      <trkpt lat="42.90566" lon="0.10805">
        <ele>1560.1</ele>
        <time>2020-02-09T08:11:02.000Z</time>
      </trkpt>
      <trkpt lat="42.90567" lon="0.10812">
        <ele>1560.7</ele>
        <time>2020-02-09T08:11:08.000Z</time>
      </trkpt>
      <trkpt lat="42.90568" lon="0.10817">
        <ele>1561.1</ele>
        <time>2020-02-09T08:11:12.000Z</time>
      </trkpt>
      <trkpt lat="42.90568" lon="0.1082">
        <ele>1561.8</ele>
        <time>2020-02-09T08:11:15.000Z</time>
      </trkpt>
      <trkpt lat="42.90568" lon="0.10825">
        <ele>1562.2</ele>
        <time>2020-02-09T08:11:19.000Z</time>
      </trkpt>
      <trkpt lat="42.90569" lon="0.1083">
        <ele>1562.6</ele>
        <time>2020-02-09T08:11:24.000Z</time>
      </trkpt>
      <trkpt lat="42.9057" lon="0.10833">
        <ele>1563.1</ele>
        <time>2020-02-09T08:11:27.000Z</time>
      </trkpt>
      <trkpt lat="42.90571" lon="0.10837">
        <ele>1563.5</ele>
        <time>2020-02-09T08:11:30.000Z</time>
      </trkpt>
      <trkpt lat="42.90573" lon="0.1084">
        <ele>1563.8</ele>
        <time>2020-02-09T08:11:34.000Z</time>
      </trkpt>
      <trkpt lat="42.90574" lon="0.10843">
        <ele>1564.5</ele>
        <time>2020-02-09T08:11:37.000Z</time>
      </trkpt>
      <trkpt lat="42.90576" lon="0.10847">
        <ele>1564.9</ele>
        <time>2020-02-09T08:11:41.000Z</time>
      </trkpt>
      <trkpt lat="42.90577" lon="0.10852">
        <ele>1565.6</ele>
        <time>2020-02-09T08:11:46.000Z</time>
      </trkpt>
      <trkpt lat="42.90579" lon="0.10857">
        <ele>1566</ele>
        <time>2020-02-09T08:11:50.000Z</time>
      </trkpt>
      <trkpt lat="42.9058" lon="0.10861">
        <ele>1566.4</ele>
        <time>2020-02-09T08:11:54.000Z</time>
      </trkpt>
      <trkpt lat="42.90581" lon="0.10865">
        <ele>1566.6</ele>
        <time>2020-02-09T08:11:57.000Z</time>
      </trkpt>
      <trkpt lat="42.90582" lon="0.1087">
        <ele>1567</ele>
        <time>2020-02-09T08:12:01.000Z</time>
      </trkpt>
      <trkpt lat="42.90584" lon="0.10874">
        <ele>1567.2</ele>
        <time>2020-02-09T08:12:05.000Z</time>
      </trkpt>
      <trkpt lat="42.90585" lon="0.10878">
        <ele>1567.5</ele>
        <time>2020-02-09T08:12:08.000Z</time>
      </trkpt>
      <trkpt lat="42.90586" lon="0.10881">
        <ele>1567.7</ele>
        <time>2020-02-09T08:12:11.000Z</time>
      </trkpt>
      <trkpt lat="42.90586" lon="0.10886">
        <ele>1568</ele>
        <time>2020-02-09T08:12:16.000Z</time>
      </trkpt>
      <trkpt lat="42.90587" lon="0.10891">
        <ele>1568.3</ele>
        <time>2020-02-09T08:12:20.000Z</time>
      </trkpt>
      <trkpt lat="42.90587" lon="0.10896">
        <ele>1568.6</ele>
        <time>2020-02-09T08:12:24.000Z</time>
      </trkpt>
      <trkpt lat="42.90588" lon="0.10901">
        <ele>1568.9</ele>
        <time>2020-02-09T08:12:29.000Z</time>
      </trkpt>
      <trkpt lat="42.90589" lon="0.10905">
        <ele>1569.2</ele>
        <time>2020-02-09T08:12:33.000Z</time>
      </trkpt>
      <trkpt lat="42.90589" lon="0.10909">
        <ele>1569.5</ele>
        <time>2020-02-09T08:12:36.000Z</time>
      </trkpt>
      <trkpt lat="42.90589" lon="0.10914">
        <ele>1569.7</ele>
        <time>2020-02-09T08:12:39.000Z</time>
      </trkpt>
      <trkpt lat="42.90588" lon="0.10918">
        <ele>1570</ele>
        <time>2020-02-09T08:12:41.000Z</time>
      </trkpt>
      <trkpt lat="42.90587" lon="0.10922">
        <ele>1570.3</ele>
        <time>2020-02-09T08:12:45.000Z</time>
      </trkpt>
      <trkpt lat="42.90588" lon="0.10926">
        <ele>1570.6</ele>
        <time>2020-02-09T08:12:49.000Z</time>
      </trkpt>
      <trkpt lat="42.9059" lon="0.10931">
        <ele>1570.9</ele>
        <time>2020-02-09T08:12:53.000Z</time>
      </trkpt>
      <trkpt lat="42.90592" lon="0.10934">
        <ele>1571.3</ele>
        <time>2020-02-09T08:12:57.000Z</time>
      </trkpt>
      <trkpt lat="42.90595" lon="0.10937">
        <ele>1571.6</ele>
        <time>2020-02-09T08:13:01.000Z</time>
      </trkpt>
      <trkpt lat="42.90597" lon="0.1094">
        <ele>1571.9</ele>
        <time>2020-02-09T08:13:06.000Z</time>
      </trkpt>
      <trkpt lat="42.90599" lon="0.10943">
        <ele>1572.1</ele>
        <time>2020-02-09T08:13:17.000Z</time>
      </trkpt>
      <trkpt lat="42.90601" lon="0.10946">
        <ele>1572.4</ele>
        <time>2020-02-09T08:13:21.000Z</time>
      </trkpt>
      <trkpt lat="42.90599" lon="0.1095">
        <ele>1572.7</ele>
        <time>2020-02-09T08:13:33.000Z</time>
      </trkpt>
      <trkpt lat="42.906" lon="0.10955">
        <ele>1573</ele>
        <time>2020-02-09T08:13:38.000Z</time>
      </trkpt>
      <trkpt lat="42.90601" lon="0.10959">
        <ele>1573.3</ele>
        <time>2020-02-09T08:13:43.000Z</time>
      </trkpt>
      <trkpt lat="42.90603" lon="0.10962">
        <ele>1573.5</ele>
        <time>2020-02-09T08:13:47.000Z</time>
      </trkpt>
      <trkpt lat="42.90605" lon="0.10966">
        <ele>1573.8</ele>
        <time>2020-02-09T08:13:52.000Z</time>
      </trkpt>
      <trkpt lat="42.90607" lon="0.10969">
        <ele>1574.1</ele>
        <time>2020-02-09T08:13:55.000Z</time>
      </trkpt>
      <trkpt lat="42.90609" lon="0.10971">
        <ele>1574.4</ele>
        <time>2020-02-09T08:13:58.000Z</time>
      </trkpt>
      <trkpt lat="42.90611" lon="0.10975">
        <ele>1574.7</ele>
        <time>2020-02-09T08:14:02.000Z</time>
      </trkpt>
      <trkpt lat="42.90613" lon="0.10978">
        <ele>1575</ele>
        <time>2020-02-09T08:14:05.000Z</time>
      </trkpt>
      <trkpt lat="42.90615" lon="0.10982">
        <ele>1575.3</ele>
        <time>2020-02-09T08:14:10.000Z</time>
      </trkpt>
      <trkpt lat="42.90617" lon="0.10986">
        <ele>1575.6</ele>
        <time>2020-02-09T08:14:14.000Z</time>
      </trkpt>
      <trkpt lat="42.90619" lon="0.10991">
        <ele>1575.9</ele>
        <time>2020-02-09T08:14:19.000Z</time>
      </trkpt>
      <trkpt lat="42.9062" lon="0.10995">
        <ele>1576.3</ele>
        <time>2020-02-09T08:14:23.000Z</time>
      </trkpt>
      <trkpt lat="42.90621" lon="0.11">
        <ele>1576.6</ele>
        <time>2020-02-09T08:14:28.000Z</time>
      </trkpt>
      <trkpt lat="42.90622" lon="0.11004">
        <ele>1576.9</ele>
        <time>2020-02-09T08:14:31.000Z</time>
      </trkpt>
      <trkpt lat="42.90623" lon="0.11008">
        <ele>1577.2</ele>
        <time>2020-02-09T08:14:36.000Z</time>
      </trkpt>
      <trkpt lat="42.90624" lon="0.11012">
        <ele>1577.5</ele>
        <time>2020-02-09T08:14:40.000Z</time>
      </trkpt>
      <trkpt lat="42.90625" lon="0.11016">
        <ele>1577.7</ele>
        <time>2020-02-09T08:14:45.000Z</time>
      </trkpt>
      <trkpt lat="42.90625" lon="0.1102">
        <ele>1578</ele>
        <time>2020-02-09T08:14:48.000Z</time>
      </trkpt>
      <trkpt lat="42.90626" lon="0.11024">
        <ele>1578.3</ele>
        <time>2020-02-09T08:14:53.000Z</time>
      </trkpt>
      <trkpt lat="42.90627" lon="0.11028">
        <ele>1578.5</ele>
        <time>2020-02-09T08:14:57.000Z</time>
      </trkpt>
      <trkpt lat="42.90628" lon="0.11032">
        <ele>1578.8</ele>
        <time>2020-02-09T08:15:01.000Z</time>
      </trkpt>
      <trkpt lat="42.9063" lon="0.11037">
        <ele>1579.2</ele>
        <time>2020-02-09T08:15:05.000Z</time>
      </trkpt>
      <trkpt lat="42.90632" lon="0.1104">
        <ele>1579.4</ele>
        <time>2020-02-09T08:15:09.000Z</time>
      </trkpt>
      <trkpt lat="42.90633" lon="0.11044">
        <ele>1579.7</ele>
        <time>2020-02-09T08:15:15.000Z</time>
      </trkpt>
      <trkpt lat="42.90635" lon="0.11048">
        <ele>1580</ele>
        <time>2020-02-09T08:15:20.000Z</time>
      </trkpt>
      <trkpt lat="42.90635" lon="0.11052">
        <ele>1580.3</ele>
        <time>2020-02-09T08:15:25.000Z</time>
      </trkpt>
      <trkpt lat="42.90637" lon="0.11055">
        <ele>1580.6</ele>
        <time>2020-02-09T08:15:29.000Z</time>
      </trkpt>
      <trkpt lat="42.90639" lon="0.11059">
        <ele>1580.8</ele>
        <time>2020-02-09T08:15:34.000Z</time>
      </trkpt>
      <trkpt lat="42.90641" lon="0.11062">
        <ele>1581.1</ele>
        <time>2020-02-09T08:15:38.000Z</time>
      </trkpt>
      <trkpt lat="42.90643" lon="0.11066">
        <ele>1581.4</ele>
        <time>2020-02-09T08:15:43.000Z</time>
      </trkpt>
      <trkpt lat="42.90645" lon="0.11068">
        <ele>1581.7</ele>
        <time>2020-02-09T08:15:47.000Z</time>
      </trkpt>
      <trkpt lat="42.90648" lon="0.11071">
        <ele>1582</ele>
        <time>2020-02-09T08:15:51.000Z</time>
      </trkpt>
      <trkpt lat="42.90651" lon="0.11074">
        <ele>1582.3</ele>
        <time>2020-02-09T08:15:56.000Z</time>
      </trkpt>
      <trkpt lat="42.90654" lon="0.11078">
        <ele>1582.6</ele>
        <time>2020-02-09T08:16:01.000Z</time>
      </trkpt>
      <trkpt lat="42.90655" lon="0.11082">
        <ele>1582.8</ele>
        <time>2020-02-09T08:16:05.000Z</time>
      </trkpt>
      <trkpt lat="42.90655" lon="0.11086">
        <ele>1583.1</ele>
        <time>2020-02-09T08:16:09.000Z</time>
      </trkpt>
      <trkpt lat="42.90655" lon="0.1109">
        <ele>1583.3</ele>
        <time>2020-02-09T08:16:13.000Z</time>
      </trkpt>
      <trkpt lat="42.90655" lon="0.11095">
        <ele>1583.6</ele>
        <time>2020-02-09T08:16:17.000Z</time>
      </trkpt>
      <trkpt lat="42.90655" lon="0.11099">
        <ele>1583.9</ele>
        <time>2020-02-09T08:16:21.000Z</time>
      </trkpt>
      <trkpt lat="42.90655" lon="0.11105">
        <ele>1584.2</ele>
        <time>2020-02-09T08:16:27.000Z</time>
      </trkpt>
      <trkpt lat="42.90656" lon="0.11109">
        <ele>1584.4</ele>
        <time>2020-02-09T08:16:31.000Z</time>
      </trkpt>
      <trkpt lat="42.90656" lon="0.11114">
        <ele>1584.7</ele>
        <time>2020-02-09T08:16:36.000Z</time>
      </trkpt>
      <trkpt lat="42.90657" lon="0.11119">
        <ele>1585</ele>
        <time>2020-02-09T08:16:40.000Z</time>
      </trkpt>
      <trkpt lat="42.90658" lon="0.11124">
        <ele>1585.3</ele>
        <time>2020-02-09T08:16:45.000Z</time>
      </trkpt>
      <trkpt lat="42.90658" lon="0.11129">
        <ele>1585.6</ele>
        <time>2020-02-09T08:16:51.000Z</time>
      </trkpt>
      <trkpt lat="42.90658" lon="0.11133">
        <ele>1585.8</ele>
        <time>2020-02-09T08:16:55.000Z</time>
      </trkpt>
      <trkpt lat="42.90658" lon="0.11137">
        <ele>1586.1</ele>
        <time>2020-02-09T08:17:00.000Z</time>
      </trkpt>
      <trkpt lat="42.90657" lon="0.11142">
        <ele>1586.4</ele>
        <time>2020-02-09T08:17:05.000Z</time>
      </trkpt>
      <trkpt lat="42.90657" lon="0.11145">
        <ele>1586.6</ele>
        <time>2020-02-09T08:17:10.000Z</time>
      </trkpt>
      <trkpt lat="42.90656" lon="0.1115">
        <ele>1586.9</ele>
        <time>2020-02-09T08:17:14.000Z</time>
      </trkpt>
      <trkpt lat="42.90655" lon="0.11153">
        <ele>1587.1</ele>
        <time>2020-02-09T08:17:19.000Z</time>
      </trkpt>
      <trkpt lat="42.90655" lon="0.11157">
        <ele>1587.3</ele>
        <time>2020-02-09T08:17:22.000Z</time>
      </trkpt>
      <trkpt lat="42.90655" lon="0.11162">
        <ele>1587.6</ele>
        <time>2020-02-09T08:17:27.000Z</time>
      </trkpt>
      <trkpt lat="42.90655" lon="0.11166">
        <ele>1587.8</ele>
        <time>2020-02-09T08:17:30.000Z</time>
      </trkpt>
      <trkpt lat="42.90655" lon="0.1117">
        <ele>1588.1</ele>
        <time>2020-02-09T08:17:35.000Z</time>
      </trkpt>
      <trkpt lat="42.90655" lon="0.11174">
        <ele>1588.4</ele>
        <time>2020-02-09T08:17:39.000Z</time>
      </trkpt>
      <trkpt lat="42.90656" lon="0.11178">
        <ele>1588.6</ele>
        <time>2020-02-09T08:17:43.000Z</time>
      </trkpt>
      <trkpt lat="42.90658" lon="0.11183">
        <ele>1588.9</ele>
        <time>2020-02-09T08:17:48.000Z</time>
      </trkpt>
      <trkpt lat="42.9066" lon="0.11187">
        <ele>1589.2</ele>
        <time>2020-02-09T08:17:52.000Z</time>
      </trkpt>
      <trkpt lat="42.90661" lon="0.11191">
        <ele>1589.5</ele>
        <time>2020-02-09T08:17:56.000Z</time>
      </trkpt>
      <trkpt lat="42.90662" lon="0.11195">
        <ele>1589.7</ele>
        <time>2020-02-09T08:18:00.000Z</time>
      </trkpt>
      <trkpt lat="42.90663" lon="0.11199">
        <ele>1589.9</ele>
        <time>2020-02-09T08:18:04.000Z</time>
      </trkpt>
      <trkpt lat="42.90664" lon="0.11203">
        <ele>1590.1</ele>
        <time>2020-02-09T08:18:08.000Z</time>
      </trkpt>
      <trkpt lat="42.90664" lon="0.11207">
        <ele>1590.4</ele>
        <time>2020-02-09T08:18:13.000Z</time>
      </trkpt>
      <trkpt lat="42.90665" lon="0.11212">
        <ele>1590.6</ele>
        <time>2020-02-09T08:18:17.000Z</time>
      </trkpt>
      <trkpt lat="42.90666" lon="0.11216">
        <ele>1590.9</ele>
        <time>2020-02-09T08:18:22.000Z</time>
      </trkpt>
      <trkpt lat="42.90666" lon="0.11221">
        <ele>1591.1</ele>
        <time>2020-02-09T08:18:26.000Z</time>
      </trkpt>
      <trkpt lat="42.90667" lon="0.11224">
        <ele>1591.3</ele>
        <time>2020-02-09T08:18:31.000Z</time>
      </trkpt>
      <trkpt lat="42.90667" lon="0.11228">
        <ele>1591.5</ele>
        <time>2020-02-09T08:18:35.000Z</time>
      </trkpt>
      <trkpt lat="42.90668" lon="0.11233">
        <ele>1591.7</ele>
        <time>2020-02-09T08:18:39.000Z</time>
      </trkpt>
      <trkpt lat="42.90668" lon="0.11237">
        <ele>1591.9</ele>
        <time>2020-02-09T08:18:43.000Z</time>
      </trkpt>
      <trkpt lat="42.90669" lon="0.11241">
        <ele>1592.2</ele>
        <time>2020-02-09T08:18:47.000Z</time>
      </trkpt>
      <trkpt lat="42.90669" lon="0.11245">
        <ele>1592.4</ele>
        <time>2020-02-09T08:18:52.000Z</time>
      </trkpt>
      <trkpt lat="42.90669" lon="0.1125">
        <ele>1592.7</ele>
        <time>2020-02-09T08:18:57.000Z</time>
      </trkpt>
      <trkpt lat="42.90669" lon="0.11254">
        <ele>1592.9</ele>
        <time>2020-02-09T08:19:01.000Z</time>
      </trkpt>
      <trkpt lat="42.90669" lon="0.11259">
        <ele>1593.2</ele>
        <time>2020-02-09T08:19:06.000Z</time>
      </trkpt>
      <trkpt lat="42.90669" lon="0.11262">
        <ele>1593.4</ele>
        <time>2020-02-09T08:19:10.000Z</time>
      </trkpt>
      <trkpt lat="42.9067" lon="0.11266">
        <ele>1593.7</ele>
        <time>2020-02-09T08:19:14.000Z</time>
      </trkpt>
      <trkpt lat="42.9067" lon="0.1127">
        <ele>1593.9</ele>
        <time>2020-02-09T08:19:18.000Z</time>
      </trkpt>
      <trkpt lat="42.9067" lon="0.11274">
        <ele>1594.1</ele>
        <time>2020-02-09T08:19:22.000Z</time>
      </trkpt>
      <trkpt lat="42.90669" lon="0.11278">
        <ele>1594.4</ele>
        <time>2020-02-09T08:19:26.000Z</time>
      </trkpt>
      <trkpt lat="42.90669" lon="0.11283">
        <ele>1594.7</ele>
        <time>2020-02-09T08:19:30.000Z</time>
      </trkpt>
      <trkpt lat="42.90669" lon="0.11289">
        <ele>1595</ele>
        <time>2020-02-09T08:19:35.000Z</time>
      </trkpt>
      <trkpt lat="42.9067" lon="0.11293">
        <ele>1595.3</ele>
        <time>2020-02-09T08:19:39.000Z</time>
      </trkpt>
      <trkpt lat="42.90671" lon="0.11298">
        <ele>1595.5</ele>
        <time>2020-02-09T08:19:44.000Z</time>
      </trkpt>
      <trkpt lat="42.90672" lon="0.11303">
        <ele>1595.8</ele>
        <time>2020-02-09T08:19:49.000Z</time>
      </trkpt>
      <trkpt lat="42.90673" lon="0.11307">
        <ele>1596</ele>
        <time>2020-02-09T08:19:53.000Z</time>
      </trkpt>
      <trkpt lat="42.90674" lon="0.11311">
        <ele>1596.3</ele>
        <time>2020-02-09T08:19:57.000Z</time>
      </trkpt>
      <trkpt lat="42.90676" lon="0.11314">
        <ele>1596.6</ele>
        <time>2020-02-09T08:20:01.000Z</time>
      </trkpt>
      <trkpt lat="42.90678" lon="0.11318">
        <ele>1596.8</ele>
        <time>2020-02-09T08:20:06.000Z</time>
      </trkpt>
      <trkpt lat="42.9068" lon="0.1132">
        <ele>1597</ele>
        <time>2020-02-09T08:20:11.000Z</time>
      </trkpt>
      <trkpt lat="42.90683" lon="0.11323">
        <ele>1597.3</ele>
        <time>2020-02-09T08:20:15.000Z</time>
      </trkpt>
      <trkpt lat="42.90685" lon="0.11325">
        <ele>1597.5</ele>
        <time>2020-02-09T08:20:19.000Z</time>
      </trkpt>
      <trkpt lat="42.90687" lon="0.11328">
        <ele>1597.8</ele>
        <time>2020-02-09T08:20:24.000Z</time>
      </trkpt>
      <trkpt lat="42.9069" lon="0.11331">
        <ele>1598.1</ele>
        <time>2020-02-09T08:20:29.000Z</time>
      </trkpt>
      <trkpt lat="42.90691" lon="0.11335">
        <ele>1598.3</ele>
        <time>2020-02-09T08:20:34.000Z</time>
      </trkpt>
      <trkpt lat="42.90693" lon="0.11339">
        <ele>1598.6</ele>
        <time>2020-02-09T08:20:39.000Z</time>
      </trkpt>
      <trkpt lat="42.90695" lon="0.11344">
        <ele>1598.9</ele>
        <time>2020-02-09T08:20:44.000Z</time>
      </trkpt>
      <trkpt lat="42.90696" lon="0.11347">
        <ele>1599.2</ele>
        <time>2020-02-09T08:20:49.000Z</time>
      </trkpt>
      <trkpt lat="42.90697" lon="0.11351">
        <ele>1599.4</ele>
        <time>2020-02-09T08:20:54.000Z</time>
      </trkpt>
      <trkpt lat="42.90698" lon="0.11354">
        <ele>1599.6</ele>
        <time>2020-02-09T08:20:58.000Z</time>
      </trkpt>
      <trkpt lat="42.907" lon="0.11359">
        <ele>1599.9</ele>
        <time>2020-02-09T08:21:02.000Z</time>
      </trkpt>
      <trkpt lat="42.90701" lon="0.11363">
        <ele>1600.1</ele>
        <time>2020-02-09T08:21:08.000Z</time>
      </trkpt>
      <trkpt lat="42.90702" lon="0.11366">
        <ele>1600.3</ele>
        <time>2020-02-09T08:21:12.000Z</time>
      </trkpt>
      <trkpt lat="42.90703" lon="0.1137">
        <ele>1600.5</ele>
        <time>2020-02-09T08:21:19.000Z</time>
      </trkpt>
      <trkpt lat="42.90704" lon="0.11374">
        <ele>1600.8</ele>
        <time>2020-02-09T08:21:24.000Z</time>
      </trkpt>
      <trkpt lat="42.90705" lon="0.11378">
        <ele>1601</ele>
        <time>2020-02-09T08:21:28.000Z</time>
      </trkpt>
      <trkpt lat="42.90706" lon="0.11382">
        <ele>1601.2</ele>
        <time>2020-02-09T08:21:33.000Z</time>
      </trkpt>
      <trkpt lat="42.90707" lon="0.11386">
        <ele>1601.5</ele>
        <time>2020-02-09T08:21:39.000Z</time>
      </trkpt>
      <trkpt lat="42.90708" lon="0.1139">
        <ele>1601.8</ele>
        <time>2020-02-09T08:21:44.000Z</time>
      </trkpt>
      <trkpt lat="42.90709" lon="0.11394">
        <ele>1602</ele>
        <time>2020-02-09T08:21:47.000Z</time>
      </trkpt>
      <trkpt lat="42.90709" lon="0.11399">
        <ele>1602.3</ele>
        <time>2020-02-09T08:21:51.000Z</time>
      </trkpt>
      <trkpt lat="42.9071" lon="0.11402">
        <ele>1602.5</ele>
        <time>2020-02-09T08:21:55.000Z</time>
      </trkpt>
      <trkpt lat="42.90711" lon="0.11406">
        <ele>1602.7</ele>
        <time>2020-02-09T08:21:59.000Z</time>
      </trkpt>
      <trkpt lat="42.90711" lon="0.1141">
        <ele>1602.9</ele>
        <time>2020-02-09T08:22:04.000Z</time>
      </trkpt>
      <trkpt lat="42.90712" lon="0.11414">
        <ele>1603.2</ele>
        <time>2020-02-09T08:22:08.000Z</time>
      </trkpt>
      <trkpt lat="42.90712" lon="0.11418">
        <ele>1603.4</ele>
        <time>2020-02-09T08:22:13.000Z</time>
      </trkpt>
      <trkpt lat="42.90713" lon="0.11422">
        <ele>1603.7</ele>
        <time>2020-02-09T08:22:18.000Z</time>
      </trkpt>
      <trkpt lat="42.90713" lon="0.11426">
        <ele>1603.9</ele>
        <time>2020-02-09T08:22:22.000Z</time>
      </trkpt>
      <trkpt lat="42.90713" lon="0.11431">
        <ele>1604.1</ele>
        <time>2020-02-09T08:22:28.000Z</time>
      </trkpt>
      <trkpt lat="42.90713" lon="0.11435">
        <ele>1604.4</ele>
        <time>2020-02-09T08:22:34.000Z</time>
      </trkpt>
      <trkpt lat="42.90714" lon="0.1144">
        <ele>1604.7</ele>
        <time>2020-02-09T08:22:38.000Z</time>
      </trkpt>
      <trkpt lat="42.90716" lon="0.11444">
        <ele>1604.9</ele>
        <time>2020-02-09T08:22:43.000Z</time>
      </trkpt>
      <trkpt lat="42.90717" lon="0.11448">
        <ele>1605.1</ele>
        <time>2020-02-09T08:22:48.000Z</time>
      </trkpt>
      <trkpt lat="42.90718" lon="0.11453">
        <ele>1605.4</ele>
        <time>2020-02-09T08:22:54.000Z</time>
      </trkpt>
      <trkpt lat="42.90718" lon="0.11458">
        <ele>1605.7</ele>
        <time>2020-02-09T08:22:58.000Z</time>
      </trkpt>
      <trkpt lat="42.90717" lon="0.11462">
        <ele>1605.9</ele>
        <time>2020-02-09T08:23:01.000Z</time>
      </trkpt>
      <trkpt lat="42.90718" lon="0.11466">
        <ele>1606.2</ele>
        <time>2020-02-09T08:23:04.000Z</time>
      </trkpt>
      <trkpt lat="42.90718" lon="0.1147">
        <ele>1606.4</ele>
        <time>2020-02-09T08:23:08.000Z</time>
      </trkpt>
      <trkpt lat="42.90718" lon="0.11474">
        <ele>1606.6</ele>
        <time>2020-02-09T08:23:12.000Z</time>
      </trkpt>
      <trkpt lat="42.90718" lon="0.11478">
        <ele>1606.8</ele>
        <time>2020-02-09T08:23:17.000Z</time>
      </trkpt>
      <trkpt lat="42.90719" lon="0.11482">
        <ele>1607</ele>
        <time>2020-02-09T08:23:21.000Z</time>
      </trkpt>
      <trkpt lat="42.90719" lon="0.11486">
        <ele>1607.3</ele>
        <time>2020-02-09T08:23:24.000Z</time>
      </trkpt>
      <trkpt lat="42.9072" lon="0.1149">
        <ele>1607.5</ele>
        <time>2020-02-09T08:23:28.000Z</time>
      </trkpt>
      <trkpt lat="42.90722" lon="0.11495">
        <ele>1607.8</ele>
        <time>2020-02-09T08:23:33.000Z</time>
      </trkpt>
      <trkpt lat="42.90723" lon="0.11499">
        <ele>1608</ele>
        <time>2020-02-09T08:23:37.000Z</time>
      </trkpt>
      <trkpt lat="42.90722" lon="0.11503">
        <ele>1608.3</ele>
        <time>2020-02-09T08:23:42.000Z</time>
      </trkpt>
      <trkpt lat="42.90723" lon="0.11508">
        <ele>1608.6</ele>
        <time>2020-02-09T08:23:48.000Z</time>
      </trkpt>
      <trkpt lat="42.90723" lon="0.11512">
        <ele>1608.8</ele>
        <time>2020-02-09T08:23:53.000Z</time>
      </trkpt>
      <trkpt lat="42.90724" lon="0.11518">
        <ele>1609.1</ele>
        <time>2020-02-09T08:23:59.000Z</time>
      </trkpt>
      <trkpt lat="42.90725" lon="0.11522">
        <ele>1609.4</ele>
        <time>2020-02-09T08:24:03.000Z</time>
      </trkpt>
      <trkpt lat="42.90725" lon="0.11526">
        <ele>1609.6</ele>
        <time>2020-02-09T08:24:07.000Z</time>
      </trkpt>
      <trkpt lat="42.90725" lon="0.11531">
        <ele>1609.9</ele>
        <time>2020-02-09T08:24:12.000Z</time>
      </trkpt>
      <trkpt lat="42.90726" lon="0.11536">
        <ele>1610.1</ele>
        <time>2020-02-09T08:24:17.000Z</time>
      </trkpt>
      <trkpt lat="42.90726" lon="0.1154">
        <ele>1610.4</ele>
        <time>2020-02-09T08:24:20.000Z</time>
      </trkpt>
      <trkpt lat="42.90726" lon="0.11544">
        <ele>1610.6</ele>
        <time>2020-02-09T08:24:26.000Z</time>
      </trkpt>
      <trkpt lat="42.90727" lon="0.11548">
        <ele>1610.8</ele>
        <time>2020-02-09T08:24:30.000Z</time>
      </trkpt>
      <trkpt lat="42.90727" lon="0.11552">
        <ele>1611</ele>
        <time>2020-02-09T08:24:32.000Z</time>
      </trkpt>
      <trkpt lat="42.90728" lon="0.11556">
        <ele>1611.2</ele>
        <time>2020-02-09T08:24:36.000Z</time>
      </trkpt>
      <trkpt lat="42.90728" lon="0.1156">
        <ele>1611.5</ele>
        <time>2020-02-09T08:24:41.000Z</time>
      </trkpt>
      <trkpt lat="42.90727" lon="0.11564">
        <ele>1611.7</ele>
        <time>2020-02-09T08:24:46.000Z</time>
      </trkpt>
      <trkpt lat="42.90727" lon="0.11568">
        <ele>1611.9</ele>
        <time>2020-02-09T08:24:50.000Z</time>
      </trkpt>
      <trkpt lat="42.90726" lon="0.11572">
        <ele>1612.2</ele>
        <time>2020-02-09T08:24:54.000Z</time>
      </trkpt>
      <trkpt lat="42.90726" lon="0.11577">
        <ele>1612.5</ele>
        <time>2020-02-09T08:24:59.000Z</time>
      </trkpt>
      <trkpt lat="42.90725" lon="0.11581">
        <ele>1612.7</ele>
        <time>2020-02-09T08:25:03.000Z</time>
      </trkpt>
      <trkpt lat="42.90724" lon="0.11584">
        <ele>1613</ele>
        <time>2020-02-09T08:25:07.000Z</time>
      </trkpt>
      <trkpt lat="42.90723" lon="0.11588">
        <ele>1613.2</ele>
        <time>2020-02-09T08:25:10.000Z</time>
      </trkpt>
      <trkpt lat="42.90721" lon="0.11591">
        <ele>1613.4</ele>
        <time>2020-02-09T08:25:15.000Z</time>
      </trkpt>
      <trkpt lat="42.90721" lon="0.11595">
        <ele>1613.6</ele>
        <time>2020-02-09T08:25:19.000Z</time>
      </trkpt>
      <trkpt lat="42.9072" lon="0.11599">
        <ele>1613.9</ele>
        <time>2020-02-09T08:25:23.000Z</time>
      </trkpt>
      <trkpt lat="42.9072" lon="0.11604">
        <ele>1614.2</ele>
        <time>2020-02-09T08:25:29.000Z</time>
      </trkpt>
      <trkpt lat="42.90719" lon="0.11607">
        <ele>1614.4</ele>
        <time>2020-02-09T08:25:33.000Z</time>
      </trkpt>
      <trkpt lat="42.90718" lon="0.11612">
        <ele>1614.7</ele>
        <time>2020-02-09T08:25:39.000Z</time>
      </trkpt>
      <trkpt lat="42.90718" lon="0.11616">
        <ele>1615</ele>
        <time>2020-02-09T08:25:43.000Z</time>
      </trkpt>
      <trkpt lat="42.90719" lon="0.1162">
        <ele>1615.2</ele>
        <time>2020-02-09T08:25:48.000Z</time>
      </trkpt>
      <trkpt lat="42.90721" lon="0.11624">
        <ele>1615.4</ele>
        <time>2020-02-09T08:25:53.000Z</time>
      </trkpt>
      <trkpt lat="42.90722" lon="0.11627">
        <ele>1615.7</ele>
        <time>2020-02-09T08:26:00.000Z</time>
      </trkpt>
      <trkpt lat="42.90724" lon="0.1163">
        <ele>1615.9</ele>
        <time>2020-02-09T08:26:20.000Z</time>
      </trkpt>
      <trkpt lat="42.90725" lon="0.11634">
        <ele>1616.1</ele>
        <time>2020-02-09T08:26:34.000Z</time>
      </trkpt>
      <trkpt lat="42.90724" lon="0.1163">
        <ele>1616.3</ele>
        <time>2020-02-09T08:26:51.000Z</time>
      </trkpt>
      <trkpt lat="42.90722" lon="0.11624">
        <ele>1616.7</ele>
        <time>2020-02-09T08:26:53.000Z</time>
      </trkpt>
      <trkpt lat="42.90724" lon="0.11621">
        <ele>1616.9</ele>
        <time>2020-02-09T08:28:31.000Z</time>
      </trkpt>
      <trkpt lat="42.90727" lon="0.1162">
        <ele>1617.1</ele>
        <time>2020-02-09T08:28:32.000Z</time>
      </trkpt>
      <trkpt lat="42.90732" lon="0.11619">
        <ele>1617.4</ele>
        <time>2020-02-09T08:28:34.000Z</time>
      </trkpt>
      <trkpt lat="42.90735" lon="0.11619">
        <ele>1617.7</ele>
        <time>2020-02-09T08:28:35.000Z</time>
      </trkpt>
      <trkpt lat="42.90738" lon="0.11618">
        <ele>1618</ele>
        <time>2020-02-09T08:28:38.000Z</time>
      </trkpt>
      <trkpt lat="42.90741" lon="0.11615">
        <ele>1618.2</ele>
        <time>2020-02-09T08:28:41.000Z</time>
      </trkpt>
      <trkpt lat="42.90744" lon="0.11611">
        <ele>1618.5</ele>
        <time>2020-02-09T08:28:45.000Z</time>
      </trkpt>
      <trkpt lat="42.90746" lon="0.11608">
        <ele>1618.8</ele>
        <time>2020-02-09T08:28:49.000Z</time>
      </trkpt>
      <trkpt lat="42.9075" lon="0.11604">
        <ele>1619.1</ele>
        <time>2020-02-09T08:28:53.000Z</time>
      </trkpt>
      <trkpt lat="42.90753" lon="0.11602">
        <ele>1619.4</ele>
        <time>2020-02-09T08:28:59.000Z</time>
      </trkpt>
      <trkpt lat="42.90755" lon="0.11599">
        <ele>1619.6</ele>
        <time>2020-02-09T08:29:02.000Z</time>
      </trkpt>
      <trkpt lat="42.90758" lon="0.11597">
        <ele>1619.9</ele>
        <time>2020-02-09T08:29:04.000Z</time>
      </trkpt>
      <trkpt lat="42.90761" lon="0.11594">
        <ele>1620.1</ele>
        <time>2020-02-09T08:29:09.000Z</time>
      </trkpt>
      <trkpt lat="42.90764" lon="0.1159">
        <ele>1620.4</ele>
        <time>2020-02-09T08:29:14.000Z</time>
      </trkpt>
      <trkpt lat="42.90766" lon="0.11589">
        <ele>1620.6</ele>
        <time>2020-02-09T08:29:17.000Z</time>
      </trkpt>
      <trkpt lat="42.90769" lon="0.11586">
        <ele>1620.8</ele>
        <time>2020-02-09T08:29:22.000Z</time>
      </trkpt>
      <trkpt lat="42.90772" lon="0.11583">
        <ele>1621</ele>
        <time>2020-02-09T08:29:26.000Z</time>
      </trkpt>
      <trkpt lat="42.90775" lon="0.1158">
        <ele>1621.3</ele>
        <time>2020-02-09T08:29:30.000Z</time>
      </trkpt>
      <trkpt lat="42.90778" lon="0.11576">
        <ele>1621.6</ele>
        <time>2020-02-09T08:29:34.000Z</time>
      </trkpt>
      <trkpt lat="42.90781" lon="0.11573">
        <ele>1621.8</ele>
        <time>2020-02-09T08:29:37.000Z</time>
      </trkpt>
      <trkpt lat="42.90783" lon="0.11571">
        <ele>1622</ele>
        <time>2020-02-09T08:29:40.000Z</time>
      </trkpt>
      <trkpt lat="42.90785" lon="0.11568">
        <ele>1622.2</ele>
        <time>2020-02-09T08:29:42.000Z</time>
      </trkpt>
      <trkpt lat="42.90788" lon="0.11565">
        <ele>1622.4</ele>
        <time>2020-02-09T08:29:45.000Z</time>
      </trkpt>
      <trkpt lat="42.9079" lon="0.11562">
        <ele>1622.6</ele>
        <time>2020-02-09T08:29:48.000Z</time>
      </trkpt>
      <trkpt lat="42.90793" lon="0.11559">
        <ele>1622.8</ele>
        <time>2020-02-09T08:29:52.000Z</time>
      </trkpt>
      <trkpt lat="42.90797" lon="0.11556">
        <ele>1623.1</ele>
        <time>2020-02-09T08:29:57.000Z</time>
      </trkpt>
      <trkpt lat="42.908" lon="0.11554">
        <ele>1623.3</ele>
        <time>2020-02-09T08:30:01.000Z</time>
      </trkpt>
      <trkpt lat="42.90803" lon="0.11553">
        <ele>1623.5</ele>
        <time>2020-02-09T08:30:03.000Z</time>
      </trkpt>
      <trkpt lat="42.90806" lon="0.11552">
        <ele>1623.7</ele>
        <time>2020-02-09T08:30:07.000Z</time>
      </trkpt>
      <trkpt lat="42.9081" lon="0.11553">
        <ele>1623.9</ele>
        <time>2020-02-09T08:30:11.000Z</time>
      </trkpt>
      <trkpt lat="42.90811" lon="0.11556">
        <ele>1624</ele>
        <time>2020-02-09T08:30:15.000Z</time>
      </trkpt>
      <trkpt lat="42.90813" lon="0.11559">
        <ele>1624.2</ele>
        <time>2020-02-09T08:30:18.000Z</time>
      </trkpt>
      <trkpt lat="42.90814" lon="0.11564">
        <ele>1624.4</ele>
        <time>2020-02-09T08:30:22.000Z</time>
      </trkpt>
      <trkpt lat="42.90814" lon="0.11568">
        <ele>1624.5</ele>
        <time>2020-02-09T08:30:25.000Z</time>
      </trkpt>
      <trkpt lat="42.90814" lon="0.11571">
        <ele>1624.7</ele>
        <time>2020-02-09T08:30:28.000Z</time>
      </trkpt>
      <trkpt lat="42.90812" lon="0.11576">
        <ele>1624.9</ele>
        <time>2020-02-09T08:30:34.000Z</time>
      </trkpt>
      <trkpt lat="42.90811" lon="0.1158">
        <ele>1625.1</ele>
        <time>2020-02-09T08:30:38.000Z</time>
      </trkpt>
      <trkpt lat="42.9081" lon="0.11585">
        <ele>1625.2</ele>
        <time>2020-02-09T08:30:42.000Z</time>
      </trkpt>
      <trkpt lat="42.90809" lon="0.1159">
        <ele>1625.4</ele>
        <time>2020-02-09T08:30:45.000Z</time>
      </trkpt>
      <trkpt lat="42.9081" lon="0.11594">
        <ele>1625.6</ele>
        <time>2020-02-09T08:30:49.000Z</time>
      </trkpt>
      <trkpt lat="42.90812" lon="0.11597">
        <ele>1628.9</ele>
        <time>2020-02-09T08:30:54.000Z</time>
      </trkpt>
      <trkpt lat="42.90816" lon="0.11596">
        <ele>1629.9</ele>
        <time>2020-02-09T08:30:58.000Z</time>
      </trkpt>
      <trkpt lat="42.90819" lon="0.11594">
        <ele>1630.9</ele>
        <time>2020-02-09T08:31:02.000Z</time>
      </trkpt>
      <trkpt lat="42.90822" lon="0.11592">
        <ele>1631.8</ele>
        <time>2020-02-09T08:31:05.000Z</time>
      </trkpt>
      <trkpt lat="42.90825" lon="0.11589">
        <ele>1632.6</ele>
        <time>2020-02-09T08:31:11.000Z</time>
      </trkpt>
      <trkpt lat="42.90827" lon="0.11587">
        <ele>1633.4</ele>
        <time>2020-02-09T08:31:15.000Z</time>
      </trkpt>
      <trkpt lat="42.9083" lon="0.11584">
        <ele>1634.2</ele>
        <time>2020-02-09T08:31:19.000Z</time>
      </trkpt>
      <trkpt lat="42.90832" lon="0.11582">
        <ele>1634.9</ele>
        <time>2020-02-09T08:31:23.000Z</time>
      </trkpt>
      <trkpt lat="42.90835" lon="0.11579">
        <ele>1636</ele>
        <time>2020-02-09T08:31:27.000Z</time>
      </trkpt>
      <trkpt lat="42.90838" lon="0.11576">
        <ele>1636.9</ele>
        <time>2020-02-09T08:31:31.000Z</time>
      </trkpt>
      <trkpt lat="42.90841" lon="0.11575">
        <ele>1637.8</ele>
        <time>2020-02-09T08:31:35.000Z</time>
      </trkpt>
      <trkpt lat="42.90844" lon="0.11574">
        <ele>1638.5</ele>
        <time>2020-02-09T08:31:40.000Z</time>
      </trkpt>
      <trkpt lat="42.90847" lon="0.11574">
        <ele>1639.3</ele>
        <time>2020-02-09T08:31:49.000Z</time>
      </trkpt>
      <trkpt lat="42.90848" lon="0.11578">
        <ele>1642</ele>
        <time>2020-02-09T08:31:56.000Z</time>
      </trkpt>
      <trkpt lat="42.90848" lon="0.11582">
        <ele>1642.9</ele>
        <time>2020-02-09T08:32:00.000Z</time>
      </trkpt>
      <trkpt lat="42.90849" lon="0.11587">
        <ele>1643.9</ele>
        <time>2020-02-09T08:32:05.000Z</time>
      </trkpt>
      <trkpt lat="42.90851" lon="0.11589">
        <ele>1644.7</ele>
        <time>2020-02-09T08:32:12.000Z</time>
      </trkpt>
      <trkpt lat="42.90854" lon="0.11592">
        <ele>1645.6</ele>
        <time>2020-02-09T08:32:18.000Z</time>
      </trkpt>
      <trkpt lat="42.90857" lon="0.11593">
        <ele>1646.5</ele>
        <time>2020-02-09T08:32:22.000Z</time>
      </trkpt>
      <trkpt lat="42.90859" lon="0.11591">
        <ele>1647.3</ele>
        <time>2020-02-09T08:32:30.000Z</time>
      </trkpt>
      <trkpt lat="42.90861" lon="0.11589">
        <ele>1648.2</ele>
        <time>2020-02-09T08:32:36.000Z</time>
      </trkpt>
      <trkpt lat="42.90864" lon="0.11587">
        <ele>1649.3</ele>
        <time>2020-02-09T08:32:46.000Z</time>
      </trkpt>
      <trkpt lat="42.90868" lon="0.11587">
        <ele>1650.3</ele>
        <time>2020-02-09T08:32:52.000Z</time>
      </trkpt>
      <trkpt lat="42.9087" lon="0.11589">
        <ele>1651.1</ele>
        <time>2020-02-09T08:32:56.000Z</time>
      </trkpt>
      <trkpt lat="42.90872" lon="0.11594">
        <ele>1652.2</ele>
        <time>2020-02-09T08:33:02.000Z</time>
      </trkpt>
      <trkpt lat="42.90872" lon="0.11597">
        <ele>1653.2</ele>
        <time>2020-02-09T08:33:11.000Z</time>
      </trkpt>
      <trkpt lat="42.90874" lon="0.116">
        <ele>1654.1</ele>
        <time>2020-02-09T08:33:16.000Z</time>
      </trkpt>
      <trkpt lat="42.90877" lon="0.116">
        <ele>1655.1</ele>
        <time>2020-02-09T08:33:20.000Z</time>
      </trkpt>
      <trkpt lat="42.9088" lon="0.11601">
        <ele>1656.1</ele>
        <time>2020-02-09T08:33:28.000Z</time>
      </trkpt>
      <trkpt lat="42.90882" lon="0.11604">
        <ele>1657.1</ele>
        <time>2020-02-09T08:33:35.000Z</time>
      </trkpt>
      <trkpt lat="42.90885" lon="0.11603">
        <ele>1658.1</ele>
        <time>2020-02-09T08:33:40.000Z</time>
      </trkpt>
      <trkpt lat="42.90887" lon="0.11607">
        <ele>1659.2</ele>
        <time>2020-02-09T08:33:55.000Z</time>
      </trkpt>
      <trkpt lat="42.90887" lon="0.11611">
        <ele>1660.3</ele>
        <time>2020-02-09T08:34:03.000Z</time>
      </trkpt>
      <trkpt lat="42.90891" lon="0.1161">
        <ele>1661.5</ele>
        <time>2020-02-09T08:34:15.000Z</time>
      </trkpt>
      <trkpt lat="42.90894" lon="0.1161">
        <ele>1662.4</ele>
        <time>2020-02-09T08:34:19.000Z</time>
      </trkpt>
      <trkpt lat="42.90894" lon="0.11614">
        <ele>1663.3</ele>
        <time>2020-02-09T08:34:41.000Z</time>
      </trkpt>
      <trkpt lat="42.90893" lon="0.11618">
        <ele>1664.4</ele>
        <time>2020-02-09T08:34:48.000Z</time>
      </trkpt>
      <trkpt lat="42.9089" lon="0.1162">
        <ele>1665.3</ele>
        <time>2020-02-09T08:34:54.000Z</time>
      </trkpt>
      <trkpt lat="42.9089" lon="0.11623">
        <ele>1666.3</ele>
        <time>2020-02-09T08:35:00.000Z</time>
      </trkpt>
      <trkpt lat="42.90892" lon="0.11625">
        <ele>1667.3</ele>
        <time>2020-02-09T08:35:10.000Z</time>
      </trkpt>
      <trkpt lat="42.90894" lon="0.11627">
        <ele>1668.4</ele>
        <time>2020-02-09T08:35:19.000Z</time>
      </trkpt>
      <trkpt lat="42.90897" lon="0.11629">
        <ele>1669.7</ele>
        <time>2020-02-09T08:35:24.000Z</time>
      </trkpt>
      <trkpt lat="42.90899" lon="0.11632">
        <ele>1670.7</ele>
        <time>2020-02-09T08:35:36.000Z</time>
      </trkpt>
      <trkpt lat="42.90901" lon="0.11635">
        <ele>1671.6</ele>
        <time>2020-02-09T08:35:40.000Z</time>
      </trkpt>
      <trkpt lat="42.90903" lon="0.11636">
        <ele>1672.6</ele>
        <time>2020-02-09T08:35:47.000Z</time>
      </trkpt>
      <trkpt lat="42.90905" lon="0.1164">
        <ele>1673.9</ele>
        <time>2020-02-09T08:35:55.000Z</time>
      </trkpt>
      <trkpt lat="42.90906" lon="0.11644">
        <ele>1674.7</ele>
        <time>2020-02-09T08:36:11.000Z</time>
      </trkpt>
      <trkpt lat="42.90905" lon="0.11647">
        <ele>1675.5</ele>
        <time>2020-02-09T08:36:23.000Z</time>
      </trkpt>
      <trkpt lat="42.90907" lon="0.11651">
        <ele>1675.5</ele>
        <time>2020-02-09T08:36:34.000Z</time>
      </trkpt>
      <trkpt lat="42.90907" lon="0.11655">
        <ele>1676.3</ele>
        <time>2020-02-09T08:36:43.000Z</time>
      </trkpt>
      <trkpt lat="42.90908" lon="0.11659">
        <ele>1678</ele>
        <time>2020-02-09T08:36:51.000Z</time>
      </trkpt>
      <trkpt lat="42.90908" lon="0.11663">
        <ele>1678.8</ele>
        <time>2020-02-09T08:37:05.000Z</time>
      </trkpt>
      <trkpt lat="42.90908" lon="0.11666">
        <ele>1679.6</ele>
        <time>2020-02-09T08:37:13.000Z</time>
      </trkpt>
      <trkpt lat="42.90908" lon="0.11672">
        <ele>1680.4</ele>
        <time>2020-02-09T08:37:20.000Z</time>
      </trkpt>
      <trkpt lat="42.90907" lon="0.11676">
        <ele>1680.5</ele>
        <time>2020-02-09T08:37:24.000Z</time>
      </trkpt>
      <trkpt lat="42.90906" lon="0.1168">
        <ele>1681.4</ele>
        <time>2020-02-09T08:37:29.000Z</time>
      </trkpt>
      <trkpt lat="42.90906" lon="0.11685">
        <ele>1682.4</ele>
        <time>2020-02-09T08:37:36.000Z</time>
      </trkpt>
      <trkpt lat="42.90908" lon="0.1168">
        <ele>1682.2</ele>
        <time>2020-02-09T08:37:54.000Z</time>
      </trkpt>
      <trkpt lat="42.9091" lon="0.1168">
        <ele>1682.2</ele>
        <time>2020-02-09T08:38:44.000Z</time>
      </trkpt>
      <trkpt lat="42.90913" lon="0.11683">
        <ele>1683.9</ele>
        <time>2020-02-09T08:38:56.000Z</time>
      </trkpt>
      <trkpt lat="42.90916" lon="0.11685">
        <ele>1684.8</ele>
        <time>2020-02-09T08:39:00.000Z</time>
      </trkpt>
      <trkpt lat="42.90918" lon="0.11686">
        <ele>1686.6</ele>
        <time>2020-02-09T08:39:05.000Z</time>
      </trkpt>
      <trkpt lat="42.90921" lon="0.11688">
        <ele>1687.5</ele>
        <time>2020-02-09T08:39:09.000Z</time>
      </trkpt>
      <trkpt lat="42.90921" lon="0.11692">
        <ele>1688.3</ele>
        <time>2020-02-09T08:39:20.000Z</time>
      </trkpt>
      <trkpt lat="42.90923" lon="0.11696">
        <ele>1689.2</ele>
        <time>2020-02-09T08:39:24.000Z</time>
      </trkpt>
      <trkpt lat="42.90925" lon="0.11699">
        <ele>1690.8</ele>
        <time>2020-02-09T08:39:45.000Z</time>
      </trkpt>
      <trkpt lat="42.90926" lon="0.11702">
        <ele>1691.4</ele>
        <time>2020-02-09T08:39:58.000Z</time>
      </trkpt>
      <trkpt lat="42.90922" lon="0.11701">
        <ele>1690</ele>
        <time>2020-02-09T08:40:36.000Z</time>
      </trkpt>
      <trkpt lat="42.90924" lon="0.11698">
        <ele>1689.9</ele>
        <time>2020-02-09T08:41:26.000Z</time>
      </trkpt>
      <trkpt lat="42.90922" lon="0.11701">
        <ele>1690</ele>
        <time>2020-02-09T08:42:28.000Z</time>
      </trkpt>
      <trkpt lat="42.90919" lon="0.11702">
        <ele>1689.2</ele>
        <time>2020-02-09T08:44:15.000Z</time>
      </trkpt>
      <trkpt lat="42.90922" lon="0.11702">
        <ele>1690</ele>
        <time>2020-02-09T08:44:25.000Z</time>
      </trkpt>
      <trkpt lat="42.90925" lon="0.11704">
        <ele>1691.6</ele>
        <time>2020-02-09T08:50:21.000Z</time>
      </trkpt>
      <trkpt lat="42.90922" lon="0.11705">
        <ele>1690.8</ele>
        <time>2020-02-09T08:51:51.000Z</time>
      </trkpt>
      <trkpt lat="42.90918" lon="0.11706">
        <ele>1690</ele>
        <time>2020-02-09T08:52:17.000Z</time>
      </trkpt>
      <trkpt lat="42.90916" lon="0.11706">
        <ele>1689.2</ele>
        <time>2020-02-09T08:52:19.000Z</time>
      </trkpt>
      <trkpt lat="42.90913" lon="0.11706">
        <ele>1688.3</ele>
        <time>2020-02-09T08:52:23.000Z</time>
      </trkpt>
      <trkpt lat="42.90916" lon="0.11706">
        <ele>1689.2</ele>
        <time>2020-02-09T08:52:30.000Z</time>
      </trkpt>
      <trkpt lat="42.90919" lon="0.11707">
        <ele>1690</ele>
        <time>2020-02-09T08:53:42.000Z</time>
      </trkpt>
      <trkpt lat="42.90921" lon="0.11707">
        <ele>1690.8</ele>
        <time>2020-02-09T08:53:47.000Z</time>
      </trkpt>
      <trkpt lat="42.90924" lon="0.11707">
        <ele>1691.6</ele>
        <time>2020-02-09T08:53:54.000Z</time>
      </trkpt>
      <trkpt lat="42.90928" lon="0.11708">
        <ele>1693</ele>
        <time>2020-02-09T08:54:07.000Z</time>
      </trkpt>
      <trkpt lat="42.90931" lon="0.1171">
        <ele>1693.7</ele>
        <time>2020-02-09T08:54:10.000Z</time>
      </trkpt>
      <trkpt lat="42.90934" lon="0.11711">
        <ele>1694.4</ele>
        <time>2020-02-09T08:54:15.000Z</time>
      </trkpt>
      <trkpt lat="42.90937" lon="0.11713">
        <ele>1695.9</ele>
        <time>2020-02-09T08:54:21.000Z</time>
      </trkpt>
      <trkpt lat="42.90939" lon="0.11717">
        <ele>1697.6</ele>
        <time>2020-02-09T08:54:28.000Z</time>
      </trkpt>
      <trkpt lat="42.9094" lon="0.11721">
        <ele>1698.4</ele>
        <time>2020-02-09T08:54:59.000Z</time>
      </trkpt>
      <trkpt lat="42.90941" lon="0.11724">
        <ele>1698.4</ele>
        <time>2020-02-09T08:55:08.000Z</time>
      </trkpt>
      <trkpt lat="42.9094" lon="0.11728">
        <ele>1699.3</ele>
        <time>2020-02-09T08:55:24.000Z</time>
      </trkpt>
      <trkpt lat="42.90937" lon="0.1173">
        <ele>1699.5</ele>
        <time>2020-02-09T08:55:33.000Z</time>
      </trkpt>
      <trkpt lat="42.9094" lon="0.11732">
        <ele>1700.2</ele>
        <time>2020-02-09T08:55:44.000Z</time>
      </trkpt>
      <trkpt lat="42.90943" lon="0.11735">
        <ele>1701.8</ele>
        <time>2020-02-09T08:55:49.000Z</time>
      </trkpt>
      <trkpt lat="42.90943" lon="0.11738">
        <ele>1702.6</ele>
        <time>2020-02-09T08:55:55.000Z</time>
      </trkpt>
      <trkpt lat="42.90941" lon="0.11742">
        <ele>1702.7</ele>
        <time>2020-02-09T08:56:02.000Z</time>
      </trkpt>
      <trkpt lat="42.90939" lon="0.11745">
        <ele>1702.7</ele>
        <time>2020-02-09T08:56:06.000Z</time>
      </trkpt>
      <trkpt lat="42.90937" lon="0.11748">
        <ele>1702.9</ele>
        <time>2020-02-09T08:56:10.000Z</time>
      </trkpt>
      <trkpt lat="42.90935" lon="0.11751">
        <ele>1703.2</ele>
        <time>2020-02-09T08:56:21.000Z</time>
      </trkpt>
      <trkpt lat="42.90932" lon="0.11754">
        <ele>1702.7</ele>
        <time>2020-02-09T08:56:29.000Z</time>
      </trkpt>
      <trkpt lat="42.90929" lon="0.11757">
        <ele>1703.5</ele>
        <time>2020-02-09T08:56:36.000Z</time>
      </trkpt>
      <trkpt lat="42.90927" lon="0.1176">
        <ele>1703.9</ele>
        <time>2020-02-09T08:56:46.000Z</time>
      </trkpt>
      <trkpt lat="42.90925" lon="0.11761">
        <ele>1703.3</ele>
        <time>2020-02-09T08:56:56.000Z</time>
      </trkpt>
      <trkpt lat="42.90922" lon="0.11764">
        <ele>1703.6</ele>
        <time>2020-02-09T08:57:01.000Z</time>
      </trkpt>
      <trkpt lat="42.90921" lon="0.11768">
        <ele>1704.6</ele>
        <time>2020-02-09T08:57:06.000Z</time>
      </trkpt>
      <trkpt lat="42.90917" lon="0.11772">
        <ele>1704.9</ele>
        <time>2020-02-09T08:57:13.000Z</time>
      </trkpt>
      <trkpt lat="42.90916" lon="0.11775">
        <ele>1704.2</ele>
        <time>2020-02-09T08:57:18.000Z</time>
      </trkpt>
      <trkpt lat="42.90917" lon="0.1178">
        <ele>1705.9</ele>
        <time>2020-02-09T08:57:26.000Z</time>
      </trkpt>
      <trkpt lat="42.90919" lon="0.11782">
        <ele>1707</ele>
        <time>2020-02-09T08:57:31.000Z</time>
      </trkpt>
      <trkpt lat="42.90922" lon="0.11783">
        <ele>1707.6</ele>
        <time>2020-02-09T08:57:36.000Z</time>
      </trkpt>
      <trkpt lat="42.90923" lon="0.11786">
        <ele>1709.1</ele>
        <time>2020-02-09T08:57:44.000Z</time>
      </trkpt>
      <trkpt lat="42.90921" lon="0.11791">
        <ele>1709.5</ele>
        <time>2020-02-09T08:57:50.000Z</time>
      </trkpt>
      <trkpt lat="42.9092" lon="0.11794">
        <ele>1709.8</ele>
        <time>2020-02-09T08:57:55.000Z</time>
      </trkpt>
      <trkpt lat="42.90919" lon="0.11798">
        <ele>1710.8</ele>
        <time>2020-02-09T08:58:01.000Z</time>
      </trkpt>
      <trkpt lat="42.90919" lon="0.11802">
        <ele>1711.8</ele>
        <time>2020-02-09T08:58:10.000Z</time>
      </trkpt>
      <trkpt lat="42.90921" lon="0.11806">
        <ele>1713.3</ele>
        <time>2020-02-09T08:58:16.000Z</time>
      </trkpt>
      <trkpt lat="42.90922" lon="0.11809">
        <ele>1713.3</ele>
        <time>2020-02-09T08:58:22.000Z</time>
      </trkpt>
      <trkpt lat="42.90926" lon="0.11812">
        <ele>1714.8</ele>
        <time>2020-02-09T08:58:29.000Z</time>
      </trkpt>
      <trkpt lat="42.90928" lon="0.11814">
        <ele>1715.2</ele>
        <time>2020-02-09T08:58:34.000Z</time>
      </trkpt>
      <trkpt lat="42.90932" lon="0.11816">
        <ele>1716.6</ele>
        <time>2020-02-09T08:58:44.000Z</time>
      </trkpt>
      <trkpt lat="42.90935" lon="0.11817">
        <ele>1716.9</ele>
        <time>2020-02-09T08:58:49.000Z</time>
      </trkpt>
      <trkpt lat="42.90938" lon="0.11818">
        <ele>1717.3</ele>
        <time>2020-02-09T08:58:58.000Z</time>
      </trkpt>
      <trkpt lat="42.90936" lon="0.11815">
        <ele>1717.3</ele>
        <time>2020-02-09T08:59:17.000Z</time>
      </trkpt>
      <trkpt lat="42.90939" lon="0.11813">
        <ele>1716.7</ele>
        <time>2020-02-09T09:00:06.000Z</time>
      </trkpt>
      <trkpt lat="42.90941" lon="0.11815">
        <ele>1717.7</ele>
        <time>2020-02-09T09:00:13.000Z</time>
      </trkpt>
      <trkpt lat="42.90944" lon="0.11817">
        <ele>1718.2</ele>
        <time>2020-02-09T09:00:18.000Z</time>
      </trkpt>
      <trkpt lat="42.90947" lon="0.1182">
        <ele>1719.5</ele>
        <time>2020-02-09T09:00:23.000Z</time>
      </trkpt>
      <trkpt lat="42.9095" lon="0.11823">
        <ele>1719.9</ele>
        <time>2020-02-09T09:00:26.000Z</time>
      </trkpt>
      <trkpt lat="42.90954" lon="0.11825">
        <ele>1721.1</ele>
        <time>2020-02-09T09:00:30.000Z</time>
      </trkpt>
      <trkpt lat="42.90956" lon="0.11827">
        <ele>1721.3</ele>
        <time>2020-02-09T09:00:34.000Z</time>
      </trkpt>
      <trkpt lat="42.90959" lon="0.11828">
        <ele>1722.4</ele>
        <time>2020-02-09T09:00:36.000Z</time>
      </trkpt>
      <trkpt lat="42.90963" lon="0.1183">
        <ele>1722.6</ele>
        <time>2020-02-09T09:00:41.000Z</time>
      </trkpt>
      <trkpt lat="42.90965" lon="0.11832">
        <ele>1722.8</ele>
        <time>2020-02-09T09:00:44.000Z</time>
      </trkpt>
      <trkpt lat="42.90968" lon="0.11834">
        <ele>1724</ele>
        <time>2020-02-09T09:00:48.000Z</time>
      </trkpt>
      <trkpt lat="42.90972" lon="0.11838">
        <ele>1725.1</ele>
        <time>2020-02-09T09:00:53.000Z</time>
      </trkpt>
      <trkpt lat="42.90974" lon="0.11841">
        <ele>1726.2</ele>
        <time>2020-02-09T09:00:58.000Z</time>
      </trkpt>
      <trkpt lat="42.90976" lon="0.11845">
        <ele>1727.2</ele>
        <time>2020-02-09T09:01:04.000Z</time>
      </trkpt>
      <trkpt lat="42.90977" lon="0.11849">
        <ele>1728.3</ele>
        <time>2020-02-09T09:01:09.000Z</time>
      </trkpt>
      <trkpt lat="42.90978" lon="0.11853">
        <ele>1729.2</ele>
        <time>2020-02-09T09:01:26.000Z</time>
      </trkpt>
      <trkpt lat="42.9098" lon="0.11857">
        <ele>1729.4</ele>
        <time>2020-02-09T09:01:32.000Z</time>
      </trkpt>
      <trkpt lat="42.90983" lon="0.1186">
        <ele>1730.5</ele>
        <time>2020-02-09T09:01:38.000Z</time>
      </trkpt>
      <trkpt lat="42.90985" lon="0.11863">
        <ele>1731.5</ele>
        <time>2020-02-09T09:01:42.000Z</time>
      </trkpt>
      <trkpt lat="42.90987" lon="0.11865">
        <ele>1731.5</ele>
        <time>2020-02-09T09:01:46.000Z</time>
      </trkpt>
      <trkpt lat="42.9099" lon="0.11867">
        <ele>1732.5</ele>
        <time>2020-02-09T09:01:50.000Z</time>
      </trkpt>
      <trkpt lat="42.90993" lon="0.11871">
        <ele>1733.5</ele>
        <time>2020-02-09T09:01:54.000Z</time>
      </trkpt>
      <trkpt lat="42.90995" lon="0.11873">
        <ele>1733.5</ele>
        <time>2020-02-09T09:01:58.000Z</time>
      </trkpt>
      <trkpt lat="42.90997" lon="0.11871">
        <ele>1733.6</ele>
        <time>2020-02-09T09:02:10.000Z</time>
      </trkpt>
      <trkpt lat="42.91" lon="0.11873">
        <ele>1733.7</ele>
        <time>2020-02-09T09:02:18.000Z</time>
      </trkpt>
      <trkpt lat="42.91003" lon="0.11875">
        <ele>1734.6</ele>
        <time>2020-02-09T09:02:22.000Z</time>
      </trkpt>
      <trkpt lat="42.91006" lon="0.11875">
        <ele>1734.8</ele>
        <time>2020-02-09T09:02:26.000Z</time>
      </trkpt>
      <trkpt lat="42.91009" lon="0.11874">
        <ele>1734.1</ele>
        <time>2020-02-09T09:02:31.000Z</time>
      </trkpt>
      <trkpt lat="42.91012" lon="0.11874">
        <ele>1734.2</ele>
        <time>2020-02-09T09:02:38.000Z</time>
      </trkpt>
      <trkpt lat="42.91015" lon="0.11876">
        <ele>1735</ele>
        <time>2020-02-09T09:02:45.000Z</time>
      </trkpt>
      <trkpt lat="42.91017" lon="0.11878">
        <ele>1735</ele>
        <time>2020-02-09T09:02:52.000Z</time>
      </trkpt>
      <trkpt lat="42.91019" lon="0.11881">
        <ele>1735.9</ele>
        <time>2020-02-09T09:03:04.000Z</time>
      </trkpt>
      <trkpt lat="42.91022" lon="0.11882">
        <ele>1736</ele>
        <time>2020-02-09T09:03:14.000Z</time>
      </trkpt>
      <trkpt lat="42.91025" lon="0.11882">
        <ele>1736.1</ele>
        <time>2020-02-09T09:03:25.000Z</time>
      </trkpt>
      <trkpt lat="42.91028" lon="0.11881">
        <ele>1736.2</ele>
        <time>2020-02-09T09:03:31.000Z</time>
      </trkpt>
      <trkpt lat="42.91032" lon="0.11881">
        <ele>1736.4</ele>
        <time>2020-02-09T09:03:37.000Z</time>
      </trkpt>
      <trkpt lat="42.91034" lon="0.1188">
        <ele>1736.6</ele>
        <time>2020-02-09T09:03:43.000Z</time>
      </trkpt>
      <trkpt lat="42.91038" lon="0.11881">
        <ele>1736.8</ele>
        <time>2020-02-09T09:03:49.000Z</time>
      </trkpt>
      <trkpt lat="42.91041" lon="0.11883">
        <ele>1737</ele>
        <time>2020-02-09T09:03:54.000Z</time>
      </trkpt>
      <trkpt lat="42.91043" lon="0.11885">
        <ele>1737.8</ele>
        <time>2020-02-09T09:03:58.000Z</time>
      </trkpt>
      <trkpt lat="42.91046" lon="0.11887">
        <ele>1738</ele>
        <time>2020-02-09T09:04:05.000Z</time>
      </trkpt>
      <trkpt lat="42.91049" lon="0.11889">
        <ele>1738.5</ele>
        <time>2020-02-09T09:04:10.000Z</time>
      </trkpt>
      <trkpt lat="42.9105" lon="0.11892">
        <ele>1739.4</ele>
        <time>2020-02-09T09:04:21.000Z</time>
      </trkpt>
      <trkpt lat="42.9105" lon="0.11897">
        <ele>1740</ele>
        <time>2020-02-09T09:04:25.000Z</time>
      </trkpt>
      <trkpt lat="42.91048" lon="0.11901">
        <ele>1740.3</ele>
        <time>2020-02-09T09:04:30.000Z</time>
      </trkpt>
      <trkpt lat="42.91045" lon="0.11904">
        <ele>1740.1</ele>
        <time>2020-02-09T09:04:38.000Z</time>
      </trkpt>
      <trkpt lat="42.91043" lon="0.11906">
        <ele>1740.8</ele>
        <time>2020-02-09T09:04:50.000Z</time>
      </trkpt>
      <trkpt lat="42.91042" lon="0.1191">
        <ele>1741.5</ele>
        <time>2020-02-09T09:05:00.000Z</time>
      </trkpt>
      <trkpt lat="42.91045" lon="0.11913">
        <ele>1741.6</ele>
        <time>2020-02-09T09:05:06.000Z</time>
      </trkpt>
      <trkpt lat="42.91048" lon="0.11914">
        <ele>1742.5</ele>
        <time>2020-02-09T09:05:14.000Z</time>
      </trkpt>
      <trkpt lat="42.91052" lon="0.11916">
        <ele>1742.7</ele>
        <time>2020-02-09T09:05:19.000Z</time>
      </trkpt>
      <trkpt lat="42.91054" lon="0.11916">
        <ele>1742.9</ele>
        <time>2020-02-09T09:05:23.000Z</time>
      </trkpt>
      <trkpt lat="42.91058" lon="0.11918">
        <ele>1743.8</ele>
        <time>2020-02-09T09:05:30.000Z</time>
      </trkpt>
      <trkpt lat="42.9106" lon="0.1192">
        <ele>1744.1</ele>
        <time>2020-02-09T09:05:36.000Z</time>
      </trkpt>
      <trkpt lat="42.91063" lon="0.11923">
        <ele>1744.9</ele>
        <time>2020-02-09T09:05:38.000Z</time>
      </trkpt>
      <trkpt lat="42.91064" lon="0.11926">
        <ele>1744.9</ele>
        <time>2020-02-09T09:05:43.000Z</time>
      </trkpt>
      <trkpt lat="42.91067" lon="0.11928">
        <ele>1745.8</ele>
        <time>2020-02-09T09:05:54.000Z</time>
      </trkpt>
      <trkpt lat="42.9107" lon="0.1193">
        <ele>1746</ele>
        <time>2020-02-09T09:05:58.000Z</time>
      </trkpt>
      <trkpt lat="42.91074" lon="0.1193">
        <ele>1746.2</ele>
        <time>2020-02-09T09:06:03.000Z</time>
      </trkpt>
      <trkpt lat="42.91074" lon="0.11934">
        <ele>1747</ele>
        <time>2020-02-09T09:06:10.000Z</time>
      </trkpt>
      <trkpt lat="42.91073" lon="0.11938">
        <ele>1747.4</ele>
        <time>2020-02-09T09:06:17.000Z</time>
      </trkpt>
      <trkpt lat="42.91071" lon="0.11941">
        <ele>1748.2</ele>
        <time>2020-02-09T09:06:23.000Z</time>
      </trkpt>
      <trkpt lat="42.9107" lon="0.11944">
        <ele>1748.9</ele>
        <time>2020-02-09T09:06:29.000Z</time>
      </trkpt>
      <trkpt lat="42.91068" lon="0.11947">
        <ele>1748.9</ele>
        <time>2020-02-09T09:06:39.000Z</time>
      </trkpt>
      <trkpt lat="42.91067" lon="0.11951">
        <ele>1749.7</ele>
        <time>2020-02-09T09:06:48.000Z</time>
      </trkpt>
      <trkpt lat="42.9107" lon="0.11954">
        <ele>1750.7</ele>
        <time>2020-02-09T09:07:04.000Z</time>
      </trkpt>
      <trkpt lat="42.91072" lon="0.11956">
        <ele>1750.7</ele>
        <time>2020-02-09T09:07:08.000Z</time>
      </trkpt>
      <trkpt lat="42.91075" lon="0.11956">
        <ele>1751.7</ele>
        <time>2020-02-09T09:07:17.000Z</time>
      </trkpt>
      <trkpt lat="42.91078" lon="0.11957">
        <ele>1751.9</ele>
        <time>2020-02-09T09:07:21.000Z</time>
      </trkpt>
      <trkpt lat="42.91081" lon="0.11958">
        <ele>1752</ele>
        <time>2020-02-09T09:07:26.000Z</time>
      </trkpt>
      <trkpt lat="42.91083" lon="0.11961">
        <ele>1753</ele>
        <time>2020-02-09T09:07:33.000Z</time>
      </trkpt>
      <trkpt lat="42.91085" lon="0.11965">
        <ele>1753</ele>
        <time>2020-02-09T09:07:41.000Z</time>
      </trkpt>
      <trkpt lat="42.91085" lon="0.11969">
        <ele>1753.8</ele>
        <time>2020-02-09T09:07:46.000Z</time>
      </trkpt>
      <trkpt lat="42.91084" lon="0.11974">
        <ele>1755.5</ele>
        <time>2020-02-09T09:07:52.000Z</time>
      </trkpt>
      <trkpt lat="42.91084" lon="0.11978">
        <ele>1756.4</ele>
        <time>2020-02-09T09:07:58.000Z</time>
      </trkpt>
      <trkpt lat="42.91084" lon="0.11982">
        <ele>1756.4</ele>
        <time>2020-02-09T09:08:03.000Z</time>
      </trkpt>
      <trkpt lat="42.91086" lon="0.11985">
        <ele>1757.2</ele>
        <time>2020-02-09T09:08:09.000Z</time>
      </trkpt>
      <trkpt lat="42.91087" lon="0.11989">
        <ele>1758.2</ele>
        <time>2020-02-09T09:08:12.000Z</time>
      </trkpt>
      <trkpt lat="42.9109" lon="0.11992">
        <ele>1759.3</ele>
        <time>2020-02-09T09:08:24.000Z</time>
      </trkpt>
      <trkpt lat="42.91092" lon="0.11994">
        <ele>1759.3</ele>
        <time>2020-02-09T09:08:28.000Z</time>
      </trkpt>
      <trkpt lat="42.91095" lon="0.11995">
        <ele>1760.4</ele>
        <time>2020-02-09T09:08:36.000Z</time>
      </trkpt>
      <trkpt lat="42.91097" lon="0.11998">
        <ele>1760.5</ele>
        <time>2020-02-09T09:08:47.000Z</time>
      </trkpt>
      <trkpt lat="42.91099" lon="0.12002">
        <ele>1761.6</ele>
        <time>2020-02-09T09:08:52.000Z</time>
      </trkpt>
      <trkpt lat="42.91101" lon="0.12004">
        <ele>1762.7</ele>
        <time>2020-02-09T09:08:59.000Z</time>
      </trkpt>
      <trkpt lat="42.91104" lon="0.12005">
        <ele>1762.7</ele>
        <time>2020-02-09T09:09:07.000Z</time>
      </trkpt>
      <trkpt lat="42.91107" lon="0.12004">
        <ele>1762.8</ele>
        <time>2020-02-09T09:09:14.000Z</time>
      </trkpt>
      <trkpt lat="42.9111" lon="0.12003">
        <ele>1761.8</ele>
        <time>2020-02-09T09:09:19.000Z</time>
      </trkpt>
      <trkpt lat="42.91113" lon="0.12004">
        <ele>1763</ele>
        <time>2020-02-09T09:09:26.000Z</time>
      </trkpt>
      <trkpt lat="42.91116" lon="0.12004">
        <ele>1763.1</ele>
        <time>2020-02-09T09:09:30.000Z</time>
      </trkpt>
      <trkpt lat="42.9112" lon="0.12004">
        <ele>1763.2</ele>
        <time>2020-02-09T09:09:36.000Z</time>
      </trkpt>
      <trkpt lat="42.91123" lon="0.12005">
        <ele>1763.4</ele>
        <time>2020-02-09T09:09:41.000Z</time>
      </trkpt>
      <trkpt lat="42.91125" lon="0.12007">
        <ele>1763.6</ele>
        <time>2020-02-09T09:09:49.000Z</time>
      </trkpt>
      <trkpt lat="42.91128" lon="0.1201">
        <ele>1764.8</ele>
        <time>2020-02-09T09:10:00.000Z</time>
      </trkpt>
      <trkpt lat="42.9113" lon="0.12011">
        <ele>1764.8</ele>
        <time>2020-02-09T09:10:08.000Z</time>
      </trkpt>
      <trkpt lat="42.91133" lon="0.12014">
        <ele>1766.1</ele>
        <time>2020-02-09T09:10:14.000Z</time>
      </trkpt>
      <trkpt lat="42.91136" lon="0.12015">
        <ele>1766.4</ele>
        <time>2020-02-09T09:10:27.000Z</time>
      </trkpt>
      <trkpt lat="42.91138" lon="0.12016">
        <ele>1766.8</ele>
        <time>2020-02-09T09:10:34.000Z</time>
      </trkpt>
      <trkpt lat="42.91141" lon="0.12017">
        <ele>1768.2</ele>
        <time>2020-02-09T09:10:43.000Z</time>
      </trkpt>
      <trkpt lat="42.91145" lon="0.12017">
        <ele>1768.7</ele>
        <time>2020-02-09T09:10:50.000Z</time>
      </trkpt>
      <trkpt lat="42.91148" lon="0.12017">
        <ele>1769.2</ele>
        <time>2020-02-09T09:10:56.000Z</time>
      </trkpt>
      <trkpt lat="42.91149" lon="0.12014">
        <ele>1768.8</ele>
        <time>2020-02-09T09:11:02.000Z</time>
      </trkpt>
      <trkpt lat="42.91151" lon="0.12011">
        <ele>1767.9</ele>
        <time>2020-02-09T09:11:10.000Z</time>
      </trkpt>
      <trkpt lat="42.91154" lon="0.12009">
        <ele>1768.4</ele>
        <time>2020-02-09T09:11:18.000Z</time>
      </trkpt>
      <trkpt lat="42.91155" lon="0.12005">
        <ele>1767.5</ele>
        <time>2020-02-09T09:11:26.000Z</time>
      </trkpt>
      <trkpt lat="42.91156" lon="0.12001">
        <ele>1767.2</ele>
        <time>2020-02-09T09:11:35.000Z</time>
      </trkpt>
      <trkpt lat="42.91156" lon="0.11997">
        <ele>1766.4</ele>
        <time>2020-02-09T09:11:51.000Z</time>
      </trkpt>
      <trkpt lat="42.91158" lon="0.11994">
        <ele>1765.7</ele>
        <time>2020-02-09T09:12:02.000Z</time>
      </trkpt>
      <trkpt lat="42.9116" lon="0.11993">
        <ele>1766.3</ele>
        <time>2020-02-09T09:12:08.000Z</time>
      </trkpt>
      <trkpt lat="42.91163" lon="0.11991">
        <ele>1767</ele>
        <time>2020-02-09T09:12:14.000Z</time>
      </trkpt>
      <trkpt lat="42.91168" lon="0.1199">
        <ele>1767.1</ele>
        <time>2020-02-09T09:12:18.000Z</time>
      </trkpt>
      <trkpt lat="42.91171" lon="0.1199">
        <ele>1767.9</ele>
        <time>2020-02-09T09:12:21.000Z</time>
      </trkpt>
      <trkpt lat="42.91176" lon="0.1199">
        <ele>1769.3</ele>
        <time>2020-02-09T09:12:27.000Z</time>
      </trkpt>
      <trkpt lat="42.91179" lon="0.11989">
        <ele>1769.9</ele>
        <time>2020-02-09T09:12:32.000Z</time>
      </trkpt>
      <trkpt lat="42.91179" lon="0.11985">
        <ele>1769.3</ele>
        <time>2020-02-09T09:12:47.000Z</time>
      </trkpt>
      <trkpt lat="42.91181" lon="0.1198">
        <ele>1769.4</ele>
        <time>2020-02-09T09:12:51.000Z</time>
      </trkpt>
      <trkpt lat="42.91182" lon="0.11977">
        <ele>1768.8</ele>
        <time>2020-02-09T09:13:00.000Z</time>
      </trkpt>
      <trkpt lat="42.91184" lon="0.11973">
        <ele>1769</ele>
        <time>2020-02-09T09:13:15.000Z</time>
      </trkpt>
      <trkpt lat="42.91187" lon="0.11973">
        <ele>1769</ele>
        <time>2020-02-09T09:13:22.000Z</time>
      </trkpt>
      <trkpt lat="42.9119" lon="0.11973">
        <ele>1769.8</ele>
        <time>2020-02-09T09:13:35.000Z</time>
      </trkpt>
      <trkpt lat="42.91193" lon="0.11971">
        <ele>1770.6</ele>
        <time>2020-02-09T09:13:44.000Z</time>
      </trkpt>
      <trkpt lat="42.91195" lon="0.11969">
        <ele>1771.5</ele>
        <time>2020-02-09T09:13:50.000Z</time>
      </trkpt>
      <trkpt lat="42.91198" lon="0.11966">
        <ele>1772</ele>
        <time>2020-02-09T09:13:56.000Z</time>
      </trkpt>
      <trkpt lat="42.912" lon="0.11964">
        <ele>1772.6</ele>
        <time>2020-02-09T09:14:03.000Z</time>
      </trkpt>
      <trkpt lat="42.91202" lon="0.11961">
        <ele>1772.6</ele>
        <time>2020-02-09T09:14:09.000Z</time>
      </trkpt>
      <trkpt lat="42.91205" lon="0.1196">
        <ele>1773.2</ele>
        <time>2020-02-09T09:14:16.000Z</time>
      </trkpt>
      <trkpt lat="42.91208" lon="0.11961">
        <ele>1774.2</ele>
        <time>2020-02-09T09:14:23.000Z</time>
      </trkpt>
      <trkpt lat="42.91212" lon="0.1196">
        <ele>1775.9</ele>
        <time>2020-02-09T09:14:32.000Z</time>
      </trkpt>
      <trkpt lat="42.91214" lon="0.11958">
        <ele>1775.9</ele>
        <time>2020-02-09T09:14:38.000Z</time>
      </trkpt>
      <trkpt lat="42.91216" lon="0.11955">
        <ele>1776.7</ele>
        <time>2020-02-09T09:14:56.000Z</time>
      </trkpt>
      <trkpt lat="42.91218" lon="0.11957">
        <ele>1776.9</ele>
        <time>2020-02-09T09:15:05.000Z</time>
      </trkpt>
      <trkpt lat="42.91221" lon="0.11956">
        <ele>1777.8</ele>
        <time>2020-02-09T09:15:18.000Z</time>
      </trkpt>
      <trkpt lat="42.91224" lon="0.11954">
        <ele>1778.9</ele>
        <time>2020-02-09T09:15:23.000Z</time>
      </trkpt>
      <trkpt lat="42.91228" lon="0.11951">
        <ele>1780.9</ele>
        <time>2020-02-09T09:15:25.000Z</time>
      </trkpt>
      <trkpt lat="42.9123" lon="0.11951">
        <ele>1780.9</ele>
        <time>2020-02-09T09:15:30.000Z</time>
      </trkpt>
      <trkpt lat="42.91233" lon="0.11949">
        <ele>1782</ele>
        <time>2020-02-09T09:15:33.000Z</time>
      </trkpt>
      <trkpt lat="42.91235" lon="0.11946">
        <ele>1782.9</ele>
        <time>2020-02-09T09:15:38.000Z</time>
      </trkpt>
      <trkpt lat="42.91235" lon="0.11942">
        <ele>1782.8</ele>
        <time>2020-02-09T09:15:45.000Z</time>
      </trkpt>
      <trkpt lat="42.91236" lon="0.11937">
        <ele>1782.7</ele>
        <time>2020-02-09T09:16:04.000Z</time>
      </trkpt>
      <trkpt lat="42.91236" lon="0.11934">
        <ele>1782.8</ele>
        <time>2020-02-09T09:16:17.000Z</time>
      </trkpt>
      <trkpt lat="42.91234" lon="0.11941">
        <ele>1782.8</ele>
        <time>2020-02-09T09:16:26.000Z</time>
      </trkpt>
      <trkpt lat="42.91233" lon="0.11937">
        <ele>1781.7</ele>
        <time>2020-02-09T09:17:14.000Z</time>
      </trkpt>
      <trkpt lat="42.91236" lon="0.11934">
        <ele>1782.8</ele>
        <time>2020-02-09T09:21:00.000Z</time>
      </trkpt>
      <trkpt lat="42.9124" lon="0.11934">
        <ele>1783.9</ele>
        <time>2020-02-09T09:21:17.000Z</time>
      </trkpt>
      <trkpt lat="42.91242" lon="0.11934">
        <ele>1785.1</ele>
        <time>2020-02-09T09:21:34.000Z</time>
      </trkpt>
      <trkpt lat="42.91246" lon="0.11933">
        <ele>1786.4</ele>
        <time>2020-02-09T09:21:37.000Z</time>
      </trkpt>
      <trkpt lat="42.91249" lon="0.11932">
        <ele>1787.7</ele>
        <time>2020-02-09T09:21:40.000Z</time>
      </trkpt>
      <trkpt lat="42.91253" lon="0.11931">
        <ele>1789.1</ele>
        <time>2020-02-09T09:21:45.000Z</time>
      </trkpt>
      <trkpt lat="42.91255" lon="0.11931">
        <ele>1790.5</ele>
        <time>2020-02-09T09:21:48.000Z</time>
      </trkpt>
      <trkpt lat="42.91259" lon="0.1193">
        <ele>1791.9</ele>
        <time>2020-02-09T09:21:54.000Z</time>
      </trkpt>
      <trkpt lat="42.91262" lon="0.11929">
        <ele>1794.5</ele>
        <time>2020-02-09T09:21:59.000Z</time>
      </trkpt>
      <trkpt lat="42.91266" lon="0.11928">
        <ele>1795.8</ele>
        <time>2020-02-09T09:22:04.000Z</time>
      </trkpt>
      <trkpt lat="42.9127" lon="0.11927">
        <ele>1797</ele>
        <time>2020-02-09T09:22:12.000Z</time>
      </trkpt>
      <trkpt lat="42.91272" lon="0.11925">
        <ele>1798.4</ele>
        <time>2020-02-09T09:22:19.000Z</time>
      </trkpt>
      <trkpt lat="42.91275" lon="0.11922">
        <ele>1798.4</ele>
        <time>2020-02-09T09:22:27.000Z</time>
      </trkpt>
      <trkpt lat="42.91276" lon="0.11919">
        <ele>1799.9</ele>
        <time>2020-02-09T09:22:30.000Z</time>
      </trkpt>
      <trkpt lat="42.91278" lon="0.11915">
        <ele>1800.1</ele>
        <time>2020-02-09T09:22:36.000Z</time>
      </trkpt>
      <trkpt lat="42.91278" lon="0.11911">
        <ele>1801.8</ele>
        <time>2020-02-09T09:22:40.000Z</time>
      </trkpt>
      <trkpt lat="42.91277" lon="0.11906">
        <ele>1800.6</ele>
        <time>2020-02-09T09:22:49.000Z</time>
      </trkpt>
      <trkpt lat="42.91275" lon="0.11904">
        <ele>1799.6</ele>
        <time>2020-02-09T09:22:52.000Z</time>
      </trkpt>
      <trkpt lat="42.91272" lon="0.11901">
        <ele>1799.6</ele>
        <time>2020-02-09T09:23:02.000Z</time>
      </trkpt>
      <trkpt lat="42.9127" lon="0.11898">
        <ele>1798.6</ele>
        <time>2020-02-09T09:23:10.000Z</time>
      </trkpt>
      <trkpt lat="42.91269" lon="0.11894">
        <ele>1799.1</ele>
        <time>2020-02-09T09:23:16.000Z</time>
      </trkpt>
      <trkpt lat="42.9127" lon="0.1189">
        <ele>1799.7</ele>
        <time>2020-02-09T09:23:24.000Z</time>
      </trkpt>
      <trkpt lat="42.91271" lon="0.11887">
        <ele>1800.2</ele>
        <time>2020-02-09T09:23:29.000Z</time>
      </trkpt>
      <trkpt lat="42.91272" lon="0.11882">
        <ele>1802.3</ele>
        <time>2020-02-09T09:23:40.000Z</time>
      </trkpt>
      <trkpt lat="42.91272" lon="0.11879">
        <ele>1801.5</ele>
        <time>2020-02-09T09:23:45.000Z</time>
      </trkpt>
      <trkpt lat="42.91272" lon="0.11875">
        <ele>1802.2</ele>
        <time>2020-02-09T09:23:54.000Z</time>
      </trkpt>
      <trkpt lat="42.91273" lon="0.11871">
        <ele>1803.7</ele>
        <time>2020-02-09T09:24:01.000Z</time>
      </trkpt>
      <trkpt lat="42.91272" lon="0.11867">
        <ele>1804.4</ele>
        <time>2020-02-09T09:24:10.000Z</time>
      </trkpt>
      <trkpt lat="42.91269" lon="0.11866">
        <ele>1803</ele>
        <time>2020-02-09T09:24:22.000Z</time>
      </trkpt>
      <trkpt lat="42.9127" lon="0.11863">
        <ele>1803.8</ele>
        <time>2020-02-09T09:24:29.000Z</time>
      </trkpt>
      <trkpt lat="42.91271" lon="0.11859">
        <ele>1804.6</ele>
        <time>2020-02-09T09:24:40.000Z</time>
      </trkpt>
      <trkpt lat="42.91273" lon="0.11857">
        <ele>1806.8</ele>
        <time>2020-02-09T09:24:48.000Z</time>
      </trkpt>
      <trkpt lat="42.91276" lon="0.11861">
        <ele>1807.4</ele>
        <time>2020-02-09T09:24:56.000Z</time>
      </trkpt>
      <trkpt lat="42.91276" lon="0.11864">
        <ele>1806.7</ele>
        <time>2020-02-09T09:25:03.000Z</time>
      </trkpt>
      <trkpt lat="42.91279" lon="0.11865">
        <ele>1808.2</ele>
        <time>2020-02-09T09:25:21.000Z</time>
      </trkpt>
      <trkpt lat="42.91282" lon="0.11864">
        <ele>1809.7</ele>
        <time>2020-02-09T09:25:30.000Z</time>
      </trkpt>
      <trkpt lat="42.91285" lon="0.11863">
        <ele>1811.2</ele>
        <time>2020-02-09T09:25:43.000Z</time>
      </trkpt>
      <trkpt lat="42.91285" lon="0.11858">
        <ele>1811.9</ele>
        <time>2020-02-09T09:25:50.000Z</time>
      </trkpt>
      <trkpt lat="42.91284" lon="0.11852">
        <ele>1811.8</ele>
        <time>2020-02-09T09:25:55.000Z</time>
      </trkpt>
      <trkpt lat="42.91287" lon="0.11852">
        <ele>1813.1</ele>
        <time>2020-02-09T09:26:02.000Z</time>
      </trkpt>
      <trkpt lat="42.9129" lon="0.11849">
        <ele>1814.4</ele>
        <time>2020-02-09T09:26:08.000Z</time>
      </trkpt>
      <trkpt lat="42.91292" lon="0.11848">
        <ele>1816</ele>
        <time>2020-02-09T09:26:16.000Z</time>
      </trkpt>
      <trkpt lat="42.91295" lon="0.11849">
        <ele>1816.5</ele>
        <time>2020-02-09T09:26:21.000Z</time>
      </trkpt>
      <trkpt lat="42.91297" lon="0.11852">
        <ele>1817.5</ele>
        <time>2020-02-09T09:26:28.000Z</time>
      </trkpt>
      <trkpt lat="42.913" lon="0.11855">
        <ele>1817</ele>
        <time>2020-02-09T09:26:35.000Z</time>
      </trkpt>
      <trkpt lat="42.91303" lon="0.11856">
        <ele>1818.2</ele>
        <time>2020-02-09T09:26:45.000Z</time>
      </trkpt>
      <trkpt lat="42.91306" lon="0.11856">
        <ele>1819.4</ele>
        <time>2020-02-09T09:26:55.000Z</time>
      </trkpt>
      <trkpt lat="42.91309" lon="0.11857">
        <ele>1820.6</ele>
        <time>2020-02-09T09:27:03.000Z</time>
      </trkpt>
      <trkpt lat="42.91311" lon="0.11855">
        <ele>1821.7</ele>
        <time>2020-02-09T09:27:22.000Z</time>
      </trkpt>
      <trkpt lat="42.91315" lon="0.11855">
        <ele>1822.8</ele>
        <time>2020-02-09T09:27:35.000Z</time>
      </trkpt>
      <trkpt lat="42.91317" lon="0.11855">
        <ele>1823.7</ele>
        <time>2020-02-09T09:27:45.000Z</time>
      </trkpt>
      <trkpt lat="42.9132" lon="0.11855">
        <ele>1824.6</ele>
        <time>2020-02-09T09:27:56.000Z</time>
      </trkpt>
      <trkpt lat="42.91323" lon="0.11855">
        <ele>1825.6</ele>
        <time>2020-02-09T09:28:12.000Z</time>
      </trkpt>
      <trkpt lat="42.91328" lon="0.11855">
        <ele>1826.7</ele>
        <time>2020-02-09T09:28:22.000Z</time>
      </trkpt>
      <trkpt lat="42.9133" lon="0.11855">
        <ele>1827.9</ele>
        <time>2020-02-09T09:28:26.000Z</time>
      </trkpt>
      <trkpt lat="42.91333" lon="0.11855">
        <ele>1829.2</ele>
        <time>2020-02-09T09:28:36.000Z</time>
      </trkpt>
      <trkpt lat="42.91336" lon="0.11855">
        <ele>1830.4</ele>
        <time>2020-02-09T09:28:39.000Z</time>
      </trkpt>
      <trkpt lat="42.91341" lon="0.11855">
        <ele>1831.6</ele>
        <time>2020-02-09T09:28:43.000Z</time>
      </trkpt>
      <trkpt lat="42.91342" lon="0.11855">
        <ele>1832.7</ele>
        <time>2020-02-09T09:28:46.000Z</time>
      </trkpt>
      <trkpt lat="42.91346" lon="0.11854">
        <ele>1833.7</ele>
        <time>2020-02-09T09:28:52.000Z</time>
      </trkpt>
      <trkpt lat="42.91349" lon="0.11854">
        <ele>1834.7</ele>
        <time>2020-02-09T09:28:55.000Z</time>
      </trkpt>
      <trkpt lat="42.91351" lon="0.11852">
        <ele>1835.9</ele>
        <time>2020-02-09T09:28:57.000Z</time>
      </trkpt>
      <trkpt lat="42.91352" lon="0.11846">
        <ele>1836</ele>
        <time>2020-02-09T09:29:08.000Z</time>
      </trkpt>
      <trkpt lat="42.91353" lon="0.11843">
        <ele>1836</ele>
        <time>2020-02-09T09:29:12.000Z</time>
      </trkpt>
      <trkpt lat="42.91354" lon="0.1184">
        <ele>1837.2</ele>
        <time>2020-02-09T09:29:15.000Z</time>
      </trkpt>
      <trkpt lat="42.91355" lon="0.11836">
        <ele>1837.2</ele>
        <time>2020-02-09T09:29:19.000Z</time>
      </trkpt>
      <trkpt lat="42.91355" lon="0.11832">
        <ele>1837.3</ele>
        <time>2020-02-09T09:29:23.000Z</time>
      </trkpt>
      <trkpt lat="42.91354" lon="0.11825">
        <ele>1837.4</ele>
        <time>2020-02-09T09:29:29.000Z</time>
      </trkpt>
      <trkpt lat="42.91355" lon="0.1182">
        <ele>1837.5</ele>
        <time>2020-02-09T09:29:34.000Z</time>
      </trkpt>
      <trkpt lat="42.91356" lon="0.11817">
        <ele>1837.6</ele>
        <time>2020-02-09T09:29:37.000Z</time>
      </trkpt>
      <trkpt lat="42.91358" lon="0.11813">
        <ele>1838.9</ele>
        <time>2020-02-09T09:29:43.000Z</time>
      </trkpt>
      <trkpt lat="42.91359" lon="0.11811">
        <ele>1838.9</ele>
        <time>2020-02-09T09:29:51.000Z</time>
      </trkpt>
      <trkpt lat="42.91361" lon="0.11808">
        <ele>1840.1</ele>
        <time>2020-02-09T09:29:56.000Z</time>
      </trkpt>
      <trkpt lat="42.91364" lon="0.11805">
        <ele>1841.3</ele>
        <time>2020-02-09T09:30:00.000Z</time>
      </trkpt>
      <trkpt lat="42.91367" lon="0.118">
        <ele>1842.4</ele>
        <time>2020-02-09T09:30:07.000Z</time>
      </trkpt>
      <trkpt lat="42.91368" lon="0.11799">
        <ele>1842.4</ele>
        <time>2020-02-09T09:30:10.000Z</time>
      </trkpt>
      <trkpt lat="42.91368" lon="0.11795">
        <ele>1842.4</ele>
        <time>2020-02-09T09:31:34.000Z</time>
      </trkpt>
      <trkpt lat="42.9137" lon="0.11791">
        <ele>1843.4</ele>
        <time>2020-02-09T09:46:18.000Z</time>
      </trkpt>
      <trkpt lat="42.91372" lon="0.11794">
        <ele>1844.3</ele>
        <time>2020-02-09T09:46:38.000Z</time>
      </trkpt>
      <trkpt lat="42.91378" lon="0.11797">
        <ele>1845.2</ele>
        <time>2020-02-09T09:46:45.000Z</time>
      </trkpt>
      <trkpt lat="42.9138" lon="0.11799">
        <ele>1846.2</ele>
        <time>2020-02-09T09:46:48.000Z</time>
      </trkpt>
      <trkpt lat="42.91382" lon="0.118">
        <ele>1847.3</ele>
        <time>2020-02-09T09:46:52.000Z</time>
      </trkpt>
      <trkpt lat="42.91385" lon="0.11802">
        <ele>1847.3</ele>
        <time>2020-02-09T09:47:01.000Z</time>
      </trkpt>
      <trkpt lat="42.91387" lon="0.11804">
        <ele>1848.4</ele>
        <time>2020-02-09T09:47:12.000Z</time>
      </trkpt>
      <trkpt lat="42.91389" lon="0.11808">
        <ele>1849.5</ele>
        <time>2020-02-09T09:47:24.000Z</time>
      </trkpt>
      <trkpt lat="42.9139" lon="0.11812">
        <ele>1849.6</ele>
        <time>2020-02-09T09:47:34.000Z</time>
      </trkpt>
      <trkpt lat="42.91393" lon="0.11816">
        <ele>1850.8</ele>
        <time>2020-02-09T09:47:38.000Z</time>
      </trkpt>
      <trkpt lat="42.91396" lon="0.11818">
        <ele>1852</ele>
        <time>2020-02-09T09:47:41.000Z</time>
      </trkpt>
      <trkpt lat="42.91398" lon="0.1182">
        <ele>1853.2</ele>
        <time>2020-02-09T09:47:46.000Z</time>
      </trkpt>
      <trkpt lat="42.91401" lon="0.11823">
        <ele>1854.3</ele>
        <time>2020-02-09T09:47:53.000Z</time>
      </trkpt>
      <trkpt lat="42.91403" lon="0.11826">
        <ele>1854.4</ele>
        <time>2020-02-09T09:47:56.000Z</time>
      </trkpt>
      <trkpt lat="42.91405" lon="0.11828">
        <ele>1855.7</ele>
        <time>2020-02-09T09:48:00.000Z</time>
      </trkpt>
      <trkpt lat="42.91407" lon="0.11831">
        <ele>1856.7</ele>
        <time>2020-02-09T09:48:02.000Z</time>
      </trkpt>
      <trkpt lat="42.91409" lon="0.11833">
        <ele>1856.9</ele>
        <time>2020-02-09T09:48:12.000Z</time>
      </trkpt>
      <trkpt lat="42.91412" lon="0.11836">
        <ele>1858.2</ele>
        <time>2020-02-09T09:48:21.000Z</time>
      </trkpt>
      <trkpt lat="42.91414" lon="0.11839">
        <ele>1859.4</ele>
        <time>2020-02-09T09:48:25.000Z</time>
      </trkpt>
      <trkpt lat="42.91416" lon="0.11843">
        <ele>1859.6</ele>
        <time>2020-02-09T09:48:33.000Z</time>
      </trkpt>
      <trkpt lat="42.91418" lon="0.11845">
        <ele>1861.1</ele>
        <time>2020-02-09T09:48:44.000Z</time>
      </trkpt>
      <trkpt lat="42.9142" lon="0.11848">
        <ele>1862.5</ele>
        <time>2020-02-09T09:48:48.000Z</time>
      </trkpt>
      <trkpt lat="42.91422" lon="0.11853">
        <ele>1862.7</ele>
        <time>2020-02-09T09:48:57.000Z</time>
      </trkpt>
      <trkpt lat="42.91424" lon="0.11857">
        <ele>1864.3</ele>
        <time>2020-02-09T09:49:02.000Z</time>
      </trkpt>
      <trkpt lat="42.91425" lon="0.1186">
        <ele>1864.6</ele>
        <time>2020-02-09T09:49:05.000Z</time>
      </trkpt>
      <trkpt lat="42.91426" lon="0.11863">
        <ele>1866.3</ele>
        <time>2020-02-09T09:49:10.000Z</time>
      </trkpt>
      <trkpt lat="42.91428" lon="0.11866">
        <ele>1866.7</ele>
        <time>2020-02-09T09:49:18.000Z</time>
      </trkpt>
      <trkpt lat="42.9143" lon="0.1187">
        <ele>1868.3</ele>
        <time>2020-02-09T09:49:27.000Z</time>
      </trkpt>
      <trkpt lat="42.91431" lon="0.11872">
        <ele>1868.3</ele>
        <time>2020-02-09T09:49:32.000Z</time>
      </trkpt>
      <trkpt lat="42.91433" lon="0.11875">
        <ele>1869.9</ele>
        <time>2020-02-09T09:49:45.000Z</time>
      </trkpt>
      <trkpt lat="42.91436" lon="0.11876">
        <ele>1871.2</ele>
        <time>2020-02-09T09:49:54.000Z</time>
      </trkpt>
      <trkpt lat="42.91439" lon="0.11874">
        <ele>1872.1</ele>
        <time>2020-02-09T09:50:02.000Z</time>
      </trkpt>
      <trkpt lat="42.9144" lon="0.11871">
        <ele>1872.1</ele>
        <time>2020-02-09T09:50:07.000Z</time>
      </trkpt>
      <trkpt lat="42.91441" lon="0.11867">
        <ele>1871.6</ele>
        <time>2020-02-09T09:50:11.000Z</time>
      </trkpt>
      <trkpt lat="42.91443" lon="0.11862">
        <ele>1872.6</ele>
        <time>2020-02-09T09:50:19.000Z</time>
      </trkpt>
      <trkpt lat="42.91444" lon="0.11858">
        <ele>1872.1</ele>
        <time>2020-02-09T09:50:22.000Z</time>
      </trkpt>
      <trkpt lat="42.91446" lon="0.11855">
        <ele>1873.1</ele>
        <time>2020-02-09T09:50:24.000Z</time>
      </trkpt>
      <trkpt lat="42.91448" lon="0.11853">
        <ele>1874.5</ele>
        <time>2020-02-09T09:50:32.000Z</time>
      </trkpt>
      <trkpt lat="42.91452" lon="0.11855">
        <ele>1875.8</ele>
        <time>2020-02-09T09:50:40.000Z</time>
      </trkpt>
      <trkpt lat="42.91454" lon="0.11855">
        <ele>1877</ele>
        <time>2020-02-09T09:50:48.000Z</time>
      </trkpt>
      <trkpt lat="42.91458" lon="0.11856">
        <ele>1878.2</ele>
        <time>2020-02-09T09:50:54.000Z</time>
      </trkpt>
      <trkpt lat="42.91462" lon="0.1186">
        <ele>1879.9</ele>
        <time>2020-02-09T09:51:04.000Z</time>
      </trkpt>
      <trkpt lat="42.91464" lon="0.11862">
        <ele>1881.2</ele>
        <time>2020-02-09T09:51:10.000Z</time>
      </trkpt>
      <trkpt lat="42.91466" lon="0.11865">
        <ele>1881.7</ele>
        <time>2020-02-09T09:51:18.000Z</time>
      </trkpt>
      <trkpt lat="42.91468" lon="0.11869">
        <ele>1883.7</ele>
        <time>2020-02-09T09:51:24.000Z</time>
      </trkpt>
      <trkpt lat="42.91469" lon="0.11872">
        <ele>1884.3</ele>
        <time>2020-02-09T09:51:29.000Z</time>
      </trkpt>
      <trkpt lat="42.91471" lon="0.11875">
        <ele>1886.3</ele>
        <time>2020-02-09T09:51:35.000Z</time>
      </trkpt>
      <trkpt lat="42.91472" lon="0.11879">
        <ele>1886.3</ele>
        <time>2020-02-09T09:51:44.000Z</time>
      </trkpt>
      <trkpt lat="42.91474" lon="0.11882">
        <ele>1888.2</ele>
        <time>2020-02-09T09:51:51.000Z</time>
      </trkpt>
      <trkpt lat="42.91476" lon="0.11887">
        <ele>1888.7</ele>
        <time>2020-02-09T09:51:57.000Z</time>
      </trkpt>
      <trkpt lat="42.91477" lon="0.11889">
        <ele>1890.6</ele>
        <time>2020-02-09T09:52:01.000Z</time>
      </trkpt>
      <trkpt lat="42.91479" lon="0.11894">
        <ele>1891.1</ele>
        <time>2020-02-09T09:52:11.000Z</time>
      </trkpt>
      <trkpt lat="42.9148" lon="0.11896">
        <ele>1892.9</ele>
        <time>2020-02-09T09:52:19.000Z</time>
      </trkpt>
      <trkpt lat="42.91481" lon="0.119">
        <ele>1892.9</ele>
        <time>2020-02-09T09:52:27.000Z</time>
      </trkpt>
      <trkpt lat="42.91481" lon="0.11904">
        <ele>1893.5</ele>
        <time>2020-02-09T09:52:31.000Z</time>
      </trkpt>
      <trkpt lat="42.91483" lon="0.11906">
        <ele>1895.3</ele>
        <time>2020-02-09T09:52:39.000Z</time>
      </trkpt>
      <trkpt lat="42.91485" lon="0.11909">
        <ele>1895.3</ele>
        <time>2020-02-09T09:52:48.000Z</time>
      </trkpt>
      <trkpt lat="42.91486" lon="0.11912">
        <ele>1897.3</ele>
        <time>2020-02-09T09:52:52.000Z</time>
      </trkpt>
      <trkpt lat="42.91489" lon="0.11915">
        <ele>1898</ele>
        <time>2020-02-09T09:53:05.000Z</time>
      </trkpt>
      <trkpt lat="42.91492" lon="0.11918">
        <ele>1900.1</ele>
        <time>2020-02-09T09:53:16.000Z</time>
      </trkpt>
      <trkpt lat="42.91493" lon="0.1192">
        <ele>1901.6</ele>
        <time>2020-02-09T09:53:20.000Z</time>
      </trkpt>
      <trkpt lat="42.91496" lon="0.11922">
        <ele>1903.9</ele>
        <time>2020-02-09T09:53:31.000Z</time>
      </trkpt>
      <trkpt lat="42.91499" lon="0.11923">
        <ele>1905.4</ele>
        <time>2020-02-09T09:53:35.000Z</time>
      </trkpt>
      <trkpt lat="42.91502" lon="0.11923">
        <ele>1906.9</ele>
        <time>2020-02-09T09:53:44.000Z</time>
      </trkpt>
      <trkpt lat="42.91506" lon="0.11922">
        <ele>1908.3</ele>
        <time>2020-02-09T09:53:53.000Z</time>
      </trkpt>
      <trkpt lat="42.91508" lon="0.1192">
        <ele>1908.8</ele>
        <time>2020-02-09T09:53:59.000Z</time>
      </trkpt>
      <trkpt lat="42.91509" lon="0.11916">
        <ele>1907.9</ele>
        <time>2020-02-09T09:54:05.000Z</time>
      </trkpt>
      <trkpt lat="42.91511" lon="0.11912">
        <ele>1908.3</ele>
        <time>2020-02-09T09:54:10.000Z</time>
      </trkpt>
      <trkpt lat="42.91513" lon="0.1191">
        <ele>1908.3</ele>
        <time>2020-02-09T09:54:15.000Z</time>
      </trkpt>
      <trkpt lat="42.91517" lon="0.11906">
        <ele>1909.8</ele>
        <time>2020-02-09T09:54:19.000Z</time>
      </trkpt>
      <trkpt lat="42.91519" lon="0.11905">
        <ele>1909.8</ele>
        <time>2020-02-09T09:54:24.000Z</time>
      </trkpt>
      <trkpt lat="42.91521" lon="0.11903">
        <ele>1910</ele>
        <time>2020-02-09T09:54:31.000Z</time>
      </trkpt>
      <trkpt lat="42.91523" lon="0.119">
        <ele>1909.2</ele>
        <time>2020-02-09T09:54:36.000Z</time>
      </trkpt>
      <trkpt lat="42.91525" lon="0.11897">
        <ele>1910.4</ele>
        <time>2020-02-09T09:54:43.000Z</time>
      </trkpt>
      <trkpt lat="42.91528" lon="0.11894">
        <ele>1910.7</ele>
        <time>2020-02-09T09:54:51.000Z</time>
      </trkpt>
      <trkpt lat="42.91531" lon="0.11893">
        <ele>1912</ele>
        <time>2020-02-09T09:54:59.000Z</time>
      </trkpt>
      <trkpt lat="42.91533" lon="0.11891">
        <ele>1912.4</ele>
        <time>2020-02-09T09:55:01.000Z</time>
      </trkpt>
      <trkpt lat="42.91536" lon="0.1189">
        <ele>1912.4</ele>
        <time>2020-02-09T09:55:05.000Z</time>
      </trkpt>
      <trkpt lat="42.91539" lon="0.11887">
        <ele>1912.8</ele>
        <time>2020-02-09T09:55:14.000Z</time>
      </trkpt>
      <trkpt lat="42.91539" lon="0.11884">
        <ele>1914</ele>
        <time>2020-02-09T09:55:27.000Z</time>
      </trkpt>
      <trkpt lat="42.91538" lon="0.1188">
        <ele>1912</ele>
        <time>2020-02-09T09:55:32.000Z</time>
      </trkpt>
      <trkpt lat="42.91539" lon="0.11876">
        <ele>1912.4</ele>
        <time>2020-02-09T09:55:56.000Z</time>
      </trkpt>
      <trkpt lat="42.91543" lon="0.11876">
        <ele>1913.5</ele>
        <time>2020-02-09T09:56:03.000Z</time>
      </trkpt>
      <trkpt lat="42.91545" lon="0.11875">
        <ele>1913.8</ele>
        <time>2020-02-09T09:56:08.000Z</time>
      </trkpt>
      <trkpt lat="42.91548" lon="0.11874">
        <ele>1913.8</ele>
        <time>2020-02-09T09:56:10.000Z</time>
      </trkpt>
      <trkpt lat="42.91551" lon="0.11874">
        <ele>1914.9</ele>
        <time>2020-02-09T09:56:18.000Z</time>
      </trkpt>
      <trkpt lat="42.91555" lon="0.11874">
        <ele>1917.4</ele>
        <time>2020-02-09T09:56:28.000Z</time>
      </trkpt>
      <trkpt lat="42.91558" lon="0.11875">
        <ele>1919.6</ele>
        <time>2020-02-09T09:56:30.000Z</time>
      </trkpt>
      <trkpt lat="42.91562" lon="0.11876">
        <ele>1920.9</ele>
        <time>2020-02-09T09:56:36.000Z</time>
      </trkpt>
      <trkpt lat="42.91565" lon="0.1188">
        <ele>1923</ele>
        <time>2020-02-09T09:56:43.000Z</time>
      </trkpt>
      <trkpt lat="42.91567" lon="0.11882">
        <ele>1923</ele>
        <time>2020-02-09T09:56:46.000Z</time>
      </trkpt>
      <trkpt lat="42.91569" lon="0.11888">
        <ele>1925.9</ele>
        <time>2020-02-09T09:56:53.000Z</time>
      </trkpt>
      <trkpt lat="42.91569" lon="0.11891">
        <ele>1925.9</ele>
        <time>2020-02-09T09:56:57.000Z</time>
      </trkpt>
      <trkpt lat="42.91569" lon="0.11897">
        <ele>1927.7</ele>
        <time>2020-02-09T09:57:06.000Z</time>
      </trkpt>
      <trkpt lat="42.91569" lon="0.119">
        <ele>1927.7</ele>
        <time>2020-02-09T09:57:09.000Z</time>
      </trkpt>
      <trkpt lat="42.91571" lon="0.11906">
        <ele>1930.7</ele>
        <time>2020-02-09T09:57:16.000Z</time>
      </trkpt>
      <trkpt lat="42.91572" lon="0.11907">
        <ele>1930.7</ele>
        <time>2020-02-09T09:57:17.000Z</time>
      </trkpt>
      <trkpt lat="42.91575" lon="0.11909">
        <ele>1932.9</ele>
        <time>2020-02-09T09:57:25.000Z</time>
      </trkpt>
      <trkpt lat="42.91578" lon="0.1191">
        <ele>1934.2</ele>
        <time>2020-02-09T09:57:29.000Z</time>
      </trkpt>
      <trkpt lat="42.91581" lon="0.11909">
        <ele>1934.6</ele>
        <time>2020-02-09T09:57:36.000Z</time>
      </trkpt>
      <trkpt lat="42.91584" lon="0.11908">
        <ele>1936.1</ele>
        <time>2020-02-09T09:57:41.000Z</time>
      </trkpt>
      <trkpt lat="42.91586" lon="0.11908">
        <ele>1937.6</ele>
        <time>2020-02-09T09:57:47.000Z</time>
      </trkpt>
      <trkpt lat="42.91589" lon="0.11907">
        <ele>1937.6</ele>
        <time>2020-02-09T09:57:58.000Z</time>
      </trkpt>
      <trkpt lat="42.91592" lon="0.11905">
        <ele>1939</ele>
        <time>2020-02-09T09:58:04.000Z</time>
      </trkpt>
      <trkpt lat="42.91594" lon="0.11904">
        <ele>1939.2</ele>
        <time>2020-02-09T09:58:11.000Z</time>
      </trkpt>
      <trkpt lat="42.91598" lon="0.11901">
        <ele>1940.3</ele>
        <time>2020-02-09T09:58:18.000Z</time>
      </trkpt>
      <trkpt lat="42.916" lon="0.119">
        <ele>1940.5</ele>
        <time>2020-02-09T09:58:24.000Z</time>
      </trkpt>
      <trkpt lat="42.91602" lon="0.11902">
        <ele>1941.5</ele>
        <time>2020-02-09T09:58:48.000Z</time>
      </trkpt>
      <trkpt lat="42.91603" lon="0.11906">
        <ele>1943.8</ele>
        <time>2020-02-09T09:58:57.000Z</time>
      </trkpt>
      <trkpt lat="42.91605" lon="0.1191">
        <ele>1946.3</ele>
        <time>2020-02-09T09:59:04.000Z</time>
      </trkpt>
      <trkpt lat="42.91606" lon="0.11914">
        <ele>1947.4</ele>
        <time>2020-02-09T09:59:12.000Z</time>
      </trkpt>
      <trkpt lat="42.91607" lon="0.11918">
        <ele>1948.5</ele>
        <time>2020-02-09T09:59:19.000Z</time>
      </trkpt>
      <trkpt lat="42.91608" lon="0.11922">
        <ele>1948.5</ele>
        <time>2020-02-09T09:59:29.000Z</time>
      </trkpt>
      <trkpt lat="42.91608" lon="0.11927">
        <ele>1950.5</ele>
        <time>2020-02-09T09:59:39.000Z</time>
      </trkpt>
      <trkpt lat="42.91608" lon="0.11931">
        <ele>1953.1</ele>
        <time>2020-02-09T09:59:42.000Z</time>
      </trkpt>
      <trkpt lat="42.91609" lon="0.11935">
        <ele>1954.2</ele>
        <time>2020-02-09T09:59:52.000Z</time>
      </trkpt>
      <trkpt lat="42.91613" lon="0.11936">
        <ele>1955.7</ele>
        <time>2020-02-09T10:00:02.000Z</time>
      </trkpt>
      <trkpt lat="42.91615" lon="0.11932">
        <ele>1956</ele>
        <time>2020-02-09T10:00:40.000Z</time>
      </trkpt>
      <trkpt lat="42.91616" lon="0.1193">
        <ele>1954.9</ele>
        <time>2020-02-09T10:00:45.000Z</time>
      </trkpt>
      <trkpt lat="42.91619" lon="0.11928">
        <ele>1956.3</ele>
        <time>2020-02-09T10:00:52.000Z</time>
      </trkpt>
      <trkpt lat="42.91622" lon="0.11928">
        <ele>1958.3</ele>
        <time>2020-02-09T10:00:59.000Z</time>
      </trkpt>
      <trkpt lat="42.91625" lon="0.11927">
        <ele>1959.6</ele>
        <time>2020-02-09T10:01:03.000Z</time>
      </trkpt>
      <trkpt lat="42.91629" lon="0.11927">
        <ele>1960.9</ele>
        <time>2020-02-09T10:01:09.000Z</time>
      </trkpt>
      <trkpt lat="42.91632" lon="0.11926">
        <ele>1961.3</ele>
        <time>2020-02-09T10:01:14.000Z</time>
      </trkpt>
      <trkpt lat="42.91634" lon="0.11923">
        <ele>1962.7</ele>
        <time>2020-02-09T10:01:23.000Z</time>
      </trkpt>
      <trkpt lat="42.91637" lon="0.11925">
        <ele>1964.2</ele>
        <time>2020-02-09T10:01:36.000Z</time>
      </trkpt>
      <trkpt lat="42.91639" lon="0.11929">
        <ele>1965.2</ele>
        <time>2020-02-09T10:01:44.000Z</time>
      </trkpt>
      <trkpt lat="42.91639" lon="0.11932">
        <ele>1966.4</ele>
        <time>2020-02-09T10:01:51.000Z</time>
      </trkpt>
      <trkpt lat="42.9164" lon="0.11936">
        <ele>1969</ele>
        <time>2020-02-09T10:01:59.000Z</time>
      </trkpt>
      <trkpt lat="42.91641" lon="0.11942">
        <ele>1970.3</ele>
        <time>2020-02-09T10:02:11.000Z</time>
      </trkpt>
      <trkpt lat="42.91641" lon="0.11946">
        <ele>1971.7</ele>
        <time>2020-02-09T10:02:14.000Z</time>
      </trkpt>
      <trkpt lat="42.91642" lon="0.11951">
        <ele>1973.1</ele>
        <time>2020-02-09T10:02:19.000Z</time>
      </trkpt>
      <trkpt lat="42.91645" lon="0.11953">
        <ele>1976.1</ele>
        <time>2020-02-09T10:02:23.000Z</time>
      </trkpt>
      <trkpt lat="42.91647" lon="0.11953">
        <ele>1977.5</ele>
        <time>2020-02-09T10:02:26.000Z</time>
      </trkpt>
      <trkpt lat="42.91649" lon="0.11951">
        <ele>1977.4</ele>
        <time>2020-02-09T10:02:38.000Z</time>
      </trkpt>
      <trkpt lat="42.91652" lon="0.11949">
        <ele>1977.4</ele>
        <time>2020-02-09T10:02:44.000Z</time>
      </trkpt>
      <trkpt lat="42.91654" lon="0.11947">
        <ele>1977.3</ele>
        <time>2020-02-09T10:02:53.000Z</time>
      </trkpt>
      <trkpt lat="42.91656" lon="0.11944">
        <ele>1978.7</ele>
        <time>2020-02-09T10:02:59.000Z</time>
      </trkpt>
      <trkpt lat="42.91658" lon="0.11941">
        <ele>1977.3</ele>
        <time>2020-02-09T10:03:10.000Z</time>
      </trkpt>
      <trkpt lat="42.9166" lon="0.11939">
        <ele>1978.7</ele>
        <time>2020-02-09T10:03:16.000Z</time>
      </trkpt>
      <trkpt lat="42.91663" lon="0.1194">
        <ele>1980.2</ele>
        <time>2020-02-09T10:03:28.000Z</time>
      </trkpt>
      <trkpt lat="42.91666" lon="0.11938">
        <ele>1980.4</ele>
        <time>2020-02-09T10:03:36.000Z</time>
      </trkpt>
      <trkpt lat="42.91668" lon="0.11935">
        <ele>1981.9</ele>
        <time>2020-02-09T10:03:46.000Z</time>
      </trkpt>
      <trkpt lat="42.9167" lon="0.11932">
        <ele>1980.7</ele>
        <time>2020-02-09T10:03:50.000Z</time>
      </trkpt>
      <trkpt lat="42.91673" lon="0.1193">
        <ele>1981</ele>
        <time>2020-02-09T10:04:00.000Z</time>
      </trkpt>
      <trkpt lat="42.91675" lon="0.11927">
        <ele>1982.5</ele>
        <time>2020-02-09T10:04:08.000Z</time>
      </trkpt>
      <trkpt lat="42.91677" lon="0.11923">
        <ele>1981.3</ele>
        <time>2020-02-09T10:04:17.000Z</time>
      </trkpt>
      <trkpt lat="42.91678" lon="0.11919">
        <ele>1981.5</ele>
        <time>2020-02-09T10:04:20.000Z</time>
      </trkpt>
      <trkpt lat="42.91679" lon="0.11916">
        <ele>1980.3</ele>
        <time>2020-02-09T10:04:27.000Z</time>
      </trkpt>
      <trkpt lat="42.91681" lon="0.11912">
        <ele>1980.3</ele>
        <time>2020-02-09T10:04:43.000Z</time>
      </trkpt>
      <trkpt lat="42.91683" lon="0.11909">
        <ele>1979.2</ele>
        <time>2020-02-09T10:04:47.000Z</time>
      </trkpt>
      <trkpt lat="42.91685" lon="0.11906">
        <ele>1980.4</ele>
        <time>2020-02-09T10:04:53.000Z</time>
      </trkpt>
      <trkpt lat="42.91687" lon="0.11903">
        <ele>1979.3</ele>
        <time>2020-02-09T10:05:01.000Z</time>
      </trkpt>
      <trkpt lat="42.91689" lon="0.119">
        <ele>1979.6</ele>
        <time>2020-02-09T10:05:08.000Z</time>
      </trkpt>
      <trkpt lat="42.9169" lon="0.11896">
        <ele>1978.7</ele>
        <time>2020-02-09T10:05:14.000Z</time>
      </trkpt>
      <trkpt lat="42.91692" lon="0.11893">
        <ele>1980</ele>
        <time>2020-02-09T10:05:30.000Z</time>
      </trkpt>
      <trkpt lat="42.91696" lon="0.11891">
        <ele>1980.6</ele>
        <time>2020-02-09T10:05:36.000Z</time>
      </trkpt>
      <trkpt lat="42.91699" lon="0.1189">
        <ele>1982</ele>
        <time>2020-02-09T10:05:44.000Z</time>
      </trkpt>
      <trkpt lat="42.91701" lon="0.11889">
        <ele>1983.4</ele>
        <time>2020-02-09T10:05:52.000Z</time>
      </trkpt>
      <trkpt lat="42.91704" lon="0.11887">
        <ele>1983.8</ele>
        <time>2020-02-09T10:05:58.000Z</time>
      </trkpt>
      <trkpt lat="42.91707" lon="0.11887">
        <ele>1985</ele>
        <time>2020-02-09T10:06:06.000Z</time>
      </trkpt>
      <trkpt lat="42.9171" lon="0.11888">
        <ele>1986.9</ele>
        <time>2020-02-09T10:06:18.000Z</time>
      </trkpt>
      <trkpt lat="42.91712" lon="0.11891">
        <ele>1986.9</ele>
        <time>2020-02-09T10:06:23.000Z</time>
      </trkpt>
      <trkpt lat="42.91713" lon="0.11895">
        <ele>1989</ele>
        <time>2020-02-09T10:06:29.000Z</time>
      </trkpt>
      <trkpt lat="42.91715" lon="0.11898">
        <ele>1990</ele>
        <time>2020-02-09T10:06:35.000Z</time>
      </trkpt>
      <trkpt lat="42.91716" lon="0.11902">
        <ele>1992.4</ele>
        <time>2020-02-09T10:06:42.000Z</time>
      </trkpt>
      <trkpt lat="42.91718" lon="0.11905">
        <ele>1993.5</ele>
        <time>2020-02-09T10:06:54.000Z</time>
      </trkpt>
      <trkpt lat="42.91721" lon="0.11906">
        <ele>1995</ele>
        <time>2020-02-09T10:07:01.000Z</time>
      </trkpt>
      <trkpt lat="42.91722" lon="0.1191">
        <ele>1997.7</ele>
        <time>2020-02-09T10:07:08.000Z</time>
      </trkpt>
      <trkpt lat="42.91724" lon="0.11914">
        <ele>2000.4</ele>
        <time>2020-02-09T10:07:13.000Z</time>
      </trkpt>
      <trkpt lat="42.91727" lon="0.11913">
        <ele>1999.2</ele>
        <time>2020-02-09T10:07:23.000Z</time>
      </trkpt>
      <trkpt lat="42.91727" lon="0.11909">
        <ele>1998</ele>
        <time>2020-02-09T10:07:37.000Z</time>
      </trkpt>
      <trkpt lat="42.91728" lon="0.11903">
        <ele>1996.8</ele>
        <time>2020-02-09T10:08:24.000Z</time>
      </trkpt>
      <trkpt lat="42.91731" lon="0.11901">
        <ele>1999.4</ele>
        <time>2020-02-09T10:08:31.000Z</time>
      </trkpt>
      <trkpt lat="42.91734" lon="0.11896">
        <ele>1998.5</ele>
        <time>2020-02-09T10:08:46.000Z</time>
      </trkpt>
      <trkpt lat="42.91733" lon="0.119">
        <ele>1998.3</ele>
        <time>2020-02-09T10:08:49.000Z</time>
      </trkpt>
      <trkpt lat="42.91736" lon="0.11898">
        <ele>1999.5</ele>
        <time>2020-02-09T10:09:13.000Z</time>
      </trkpt>
      <trkpt lat="42.91738" lon="0.11896">
        <ele>1999.7</ele>
        <time>2020-02-09T10:10:29.000Z</time>
      </trkpt>
      <trkpt lat="42.91739" lon="0.11892">
        <ele>1999.7</ele>
        <time>2020-02-09T10:10:37.000Z</time>
      </trkpt>
      <trkpt lat="42.91741" lon="0.11889">
        <ele>2000.1</ele>
        <time>2020-02-09T10:11:08.000Z</time>
      </trkpt>
      <trkpt lat="42.91744" lon="0.11889">
        <ele>2001.4</ele>
        <time>2020-02-09T10:11:21.000Z</time>
      </trkpt>
      <trkpt lat="42.91747" lon="0.11888">
        <ele>2002.7</ele>
        <time>2020-02-09T10:11:29.000Z</time>
      </trkpt>
      <trkpt lat="42.91749" lon="0.11886">
        <ele>2001.9</ele>
        <time>2020-02-09T10:11:36.000Z</time>
      </trkpt>
      <trkpt lat="42.91753" lon="0.11884">
        <ele>2003.2</ele>
        <time>2020-02-09T10:11:48.000Z</time>
      </trkpt>
      <trkpt lat="42.91757" lon="0.11881">
        <ele>2004.8</ele>
        <time>2020-02-09T10:11:51.000Z</time>
      </trkpt>
      <trkpt lat="42.91761" lon="0.11879">
        <ele>2006</ele>
        <time>2020-02-09T10:11:58.000Z</time>
      </trkpt>
      <trkpt lat="42.91763" lon="0.11879">
        <ele>2006.4</ele>
        <time>2020-02-09T10:12:00.000Z</time>
      </trkpt>
      <trkpt lat="42.91766" lon="0.11877">
        <ele>2007.5</ele>
        <time>2020-02-09T10:12:04.000Z</time>
      </trkpt>
      <trkpt lat="42.91771" lon="0.11874">
        <ele>2008.1</ele>
        <time>2020-02-09T10:12:10.000Z</time>
      </trkpt>
      <trkpt lat="42.91774" lon="0.11871">
        <ele>2009.3</ele>
        <time>2020-02-09T10:12:13.000Z</time>
      </trkpt>
      <trkpt lat="42.91775" lon="0.11871">
        <ele>2010.6</ele>
        <time>2020-02-09T10:12:15.000Z</time>
      </trkpt>
      <trkpt lat="42.91778" lon="0.11868">
        <ele>2011.2</ele>
        <time>2020-02-09T10:12:21.000Z</time>
      </trkpt>
      <trkpt lat="42.91781" lon="0.11867">
        <ele>2011.2</ele>
        <time>2020-02-09T10:12:25.000Z</time>
      </trkpt>
      <trkpt lat="42.91784" lon="0.11865">
        <ele>2011.9</ele>
        <time>2020-02-09T10:12:32.000Z</time>
      </trkpt>
      <trkpt lat="42.91786" lon="0.11863">
        <ele>2013.1</ele>
        <time>2020-02-09T10:12:38.000Z</time>
      </trkpt>
      <trkpt lat="42.9179" lon="0.11861">
        <ele>2013.8</ele>
        <time>2020-02-09T10:12:47.000Z</time>
      </trkpt>
      <trkpt lat="42.91792" lon="0.1186">
        <ele>2015</ele>
        <time>2020-02-09T10:12:51.000Z</time>
      </trkpt>
      <trkpt lat="42.91795" lon="0.11858">
        <ele>2016.2</ele>
        <time>2020-02-09T10:12:59.000Z</time>
      </trkpt>
      <trkpt lat="42.91797" lon="0.11857">
        <ele>2016.9</ele>
        <time>2020-02-09T10:13:02.000Z</time>
      </trkpt>
      <trkpt lat="42.918" lon="0.11857">
        <ele>2018.1</ele>
        <time>2020-02-09T10:13:12.000Z</time>
      </trkpt>
      <trkpt lat="42.91803" lon="0.11855">
        <ele>2019.4</ele>
        <time>2020-02-09T10:13:19.000Z</time>
      </trkpt>
      <trkpt lat="42.91807" lon="0.11854">
        <ele>2020.8</ele>
        <time>2020-02-09T10:13:27.000Z</time>
      </trkpt>
      <trkpt lat="42.9181" lon="0.11857">
        <ele>2022.2</ele>
        <time>2020-02-09T10:13:32.000Z</time>
      </trkpt>
      <trkpt lat="42.91812" lon="0.11858">
        <ele>2022.8</ele>
        <time>2020-02-09T10:13:39.000Z</time>
      </trkpt>
      <trkpt lat="42.91815" lon="0.11857">
        <ele>2023.5</ele>
        <time>2020-02-09T10:13:45.000Z</time>
      </trkpt>
      <trkpt lat="42.91817" lon="0.11855">
        <ele>2024.7</ele>
        <time>2020-02-09T10:14:01.000Z</time>
      </trkpt>
      <trkpt lat="42.9182" lon="0.11854">
        <ele>2025.8</ele>
        <time>2020-02-09T10:14:08.000Z</time>
      </trkpt>
      <trkpt lat="42.91823" lon="0.11853">
        <ele>2026.3</ele>
        <time>2020-02-09T10:14:15.000Z</time>
      </trkpt>
      <trkpt lat="42.91826" lon="0.1185">
        <ele>2027.3</ele>
        <time>2020-02-09T10:14:26.000Z</time>
      </trkpt>
      <trkpt lat="42.91828" lon="0.11849">
        <ele>2028.5</ele>
        <time>2020-02-09T10:14:32.000Z</time>
      </trkpt>
      <trkpt lat="42.91831" lon="0.11849">
        <ele>2028</ele>
        <time>2020-02-09T10:14:39.000Z</time>
      </trkpt>
      <trkpt lat="42.91837" lon="0.11847">
        <ele>2030.5</ele>
        <time>2020-02-09T10:14:46.000Z</time>
      </trkpt>
      <trkpt lat="42.91837" lon="0.11846">
        <ele>2030.5</ele>
        <time>2020-02-09T10:14:50.000Z</time>
      </trkpt>
      <trkpt lat="42.9184" lon="0.11844">
        <ele>2031.1</ele>
        <time>2020-02-09T10:14:53.000Z</time>
      </trkpt>
      <trkpt lat="42.91843" lon="0.11841">
        <ele>2032.2</ele>
        <time>2020-02-09T10:15:03.000Z</time>
      </trkpt>
      <trkpt lat="42.91844" lon="0.11837">
        <ele>2031.6</ele>
        <time>2020-02-09T10:15:08.000Z</time>
      </trkpt>
      <trkpt lat="42.91843" lon="0.11832">
        <ele>2031.1</ele>
        <time>2020-02-09T10:15:15.000Z</time>
      </trkpt>
      <trkpt lat="42.91842" lon="0.11827">
        <ele>2030</ele>
        <time>2020-02-09T10:15:24.000Z</time>
      </trkpt>
      <trkpt lat="42.91841" lon="0.1182">
        <ele>2029.6</ele>
        <time>2020-02-09T10:15:34.000Z</time>
      </trkpt>
      <trkpt lat="42.91838" lon="0.11819">
        <ele>2028.6</ele>
        <time>2020-02-09T10:15:41.000Z</time>
      </trkpt>
      <trkpt lat="42.91835" lon="0.11815">
        <ele>2027.2</ele>
        <time>2020-02-09T10:15:49.000Z</time>
      </trkpt>
      <trkpt lat="42.91837" lon="0.11812">
        <ele>2026.8</ele>
        <time>2020-02-09T10:15:56.000Z</time>
      </trkpt>
      <trkpt lat="42.91835" lon="0.11807">
        <ele>2026.6</ele>
        <time>2020-02-09T10:15:59.000Z</time>
      </trkpt>
      <trkpt lat="42.91834" lon="0.11803">
        <ele>2026.4</ele>
        <time>2020-02-09T10:16:04.000Z</time>
      </trkpt>
      <trkpt lat="42.91835" lon="0.11799">
        <ele>2026.2</ele>
        <time>2020-02-09T10:16:12.000Z</time>
      </trkpt>
      <trkpt lat="42.91838" lon="0.11795">
        <ele>2027.1</ele>
        <time>2020-02-09T10:16:18.000Z</time>
      </trkpt>
      <trkpt lat="42.91841" lon="0.11792">
        <ele>2027</ele>
        <time>2020-02-09T10:16:22.000Z</time>
      </trkpt>
      <trkpt lat="42.91844" lon="0.11792">
        <ele>2027.9</ele>
        <time>2020-02-09T10:16:27.000Z</time>
      </trkpt>
      <trkpt lat="42.91846" lon="0.11793">
        <ele>2028.8</ele>
        <time>2020-02-09T10:16:28.000Z</time>
      </trkpt>
      <trkpt lat="42.9185" lon="0.11797">
        <ele>2029.6</ele>
        <time>2020-02-09T10:16:30.000Z</time>
      </trkpt>
      <trkpt lat="42.91854" lon="0.11799">
        <ele>2031.7</ele>
        <time>2020-02-09T10:16:34.000Z</time>
      </trkpt>
      <trkpt lat="42.91857" lon="0.11797">
        <ele>2032.6</ele>
        <time>2020-02-09T10:16:44.000Z</time>
      </trkpt>
      <trkpt lat="42.91861" lon="0.11794">
        <ele>2033.6</ele>
        <time>2020-02-09T10:16:49.000Z</time>
      </trkpt>
      <trkpt lat="42.91862" lon="0.11792">
        <ele>2033.5</ele>
        <time>2020-02-09T10:16:56.000Z</time>
      </trkpt>
      <trkpt lat="42.91865" lon="0.11791">
        <ele>2034.6</ele>
        <time>2020-02-09T10:17:00.000Z</time>
      </trkpt>
      <trkpt lat="42.91867" lon="0.11788">
        <ele>2035.3</ele>
        <time>2020-02-09T10:17:09.000Z</time>
      </trkpt>
      <trkpt lat="42.9187" lon="0.11785">
        <ele>2036.2</ele>
        <time>2020-02-09T10:17:18.000Z</time>
      </trkpt>
      <trkpt lat="42.91871" lon="0.1178">
        <ele>2035.9</ele>
        <time>2020-02-09T10:17:21.000Z</time>
      </trkpt>
      <trkpt lat="42.9187" lon="0.11774">
        <ele>2035.8</ele>
        <time>2020-02-09T10:17:25.000Z</time>
      </trkpt>
      <trkpt lat="42.9187" lon="0.11772">
        <ele>2035.8</ele>
        <time>2020-02-09T10:17:27.000Z</time>
      </trkpt>
      <trkpt lat="42.91872" lon="0.11769">
        <ele>2035.7</ele>
        <time>2020-02-09T10:17:32.000Z</time>
      </trkpt>
      <trkpt lat="42.91871" lon="0.11764">
        <ele>2035.7</ele>
        <time>2020-02-09T10:17:45.000Z</time>
      </trkpt>
      <trkpt lat="42.91872" lon="0.1176">
        <ele>2035.6</ele>
        <time>2020-02-09T10:17:52.000Z</time>
      </trkpt>
      <trkpt lat="42.91872" lon="0.11755">
        <ele>2035.6</ele>
        <time>2020-02-09T10:17:59.000Z</time>
      </trkpt>
      <trkpt lat="42.9187" lon="0.11752">
        <ele>2035.6</ele>
        <time>2020-02-09T10:18:03.000Z</time>
      </trkpt>
      <trkpt lat="42.91869" lon="0.11747">
        <ele>2035.5</ele>
        <time>2020-02-09T10:18:09.000Z</time>
      </trkpt>
      <trkpt lat="42.91871" lon="0.11744">
        <ele>2035.6</ele>
        <time>2020-02-09T10:18:19.000Z</time>
      </trkpt>
      <trkpt lat="42.91874" lon="0.11742">
        <ele>2036.2</ele>
        <time>2020-02-09T10:18:23.000Z</time>
      </trkpt>
      <trkpt lat="42.91871" lon="0.11742">
        <ele>2035.6</ele>
        <time>2020-02-09T10:18:31.000Z</time>
      </trkpt>
      <trkpt lat="42.9187" lon="0.11737">
        <ele>2035.6</ele>
        <time>2020-02-09T10:18:37.000Z</time>
      </trkpt>
      <trkpt lat="42.91868" lon="0.11734">
        <ele>2035</ele>
        <time>2020-02-09T10:18:42.000Z</time>
      </trkpt>
      <trkpt lat="42.91868" lon="0.1173">
        <ele>2035.1</ele>
        <time>2020-02-09T10:18:51.000Z</time>
      </trkpt>
      <trkpt lat="42.91873" lon="0.11732">
        <ele>2036.2</ele>
        <time>2020-02-09T10:18:57.000Z</time>
      </trkpt>
      <trkpt lat="42.91876" lon="0.11736">
        <ele>2036.7</ele>
        <time>2020-02-09T10:19:00.000Z</time>
      </trkpt>
      <trkpt lat="42.91879" lon="0.11738">
        <ele>2037.3</ele>
        <time>2020-02-09T10:19:13.000Z</time>
      </trkpt>
      <trkpt lat="42.91883" lon="0.11738">
        <ele>2037.9</ele>
        <time>2020-02-09T10:19:25.000Z</time>
      </trkpt>
      <trkpt lat="42.91887" lon="0.11744">
        <ele>2038.4</ele>
        <time>2020-02-09T10:19:29.000Z</time>
      </trkpt>
      <trkpt lat="42.91889" lon="0.11743">
        <ele>2039.1</ele>
        <time>2020-02-09T10:19:39.000Z</time>
      </trkpt>
      <trkpt lat="42.9189" lon="0.11751">
        <ele>2039.1</ele>
        <time>2020-02-09T10:19:52.000Z</time>
      </trkpt>
      <trkpt lat="42.91893" lon="0.11752">
        <ele>2039.6</ele>
        <time>2020-02-09T10:19:55.000Z</time>
      </trkpt>
      <trkpt lat="42.91895" lon="0.11755">
        <ele>2040.2</ele>
        <time>2020-02-09T10:19:58.000Z</time>
      </trkpt>
      <trkpt lat="42.91899" lon="0.11754">
        <ele>2040.7</ele>
        <time>2020-02-09T10:20:11.000Z</time>
      </trkpt>
      <trkpt lat="42.91902" lon="0.11754">
        <ele>2041.2</ele>
        <time>2020-02-09T10:20:17.000Z</time>
      </trkpt>
      <trkpt lat="42.91904" lon="0.11752">
        <ele>2041.6</ele>
        <time>2020-02-09T10:20:21.000Z</time>
      </trkpt>
      <trkpt lat="42.9191" lon="0.11749">
        <ele>2042.7</ele>
        <time>2020-02-09T10:20:29.000Z</time>
      </trkpt>
      <trkpt lat="42.91911" lon="0.11748">
        <ele>2042.7</ele>
        <time>2020-02-09T10:20:30.000Z</time>
      </trkpt>
      <trkpt lat="42.91914" lon="0.11747">
        <ele>2043.1</ele>
        <time>2020-02-09T10:20:33.000Z</time>
      </trkpt>
      <trkpt lat="42.91918" lon="0.11744">
        <ele>2043.6</ele>
        <time>2020-02-09T10:20:34.000Z</time>
      </trkpt>
      <trkpt lat="42.9192" lon="0.11741">
        <ele>2044.1</ele>
        <time>2020-02-09T10:20:37.000Z</time>
      </trkpt>
      <trkpt lat="42.9192" lon="0.11739">
        <ele>2044.1</ele>
        <time>2020-02-09T10:20:43.000Z</time>
      </trkpt>
      <trkpt lat="42.91921" lon="0.11735">
        <ele>2044</ele>
        <time>2020-02-09T10:20:47.000Z</time>
      </trkpt>
      <trkpt lat="42.91923" lon="0.11737">
        <ele>2044.5</ele>
        <time>2020-02-09T10:20:58.000Z</time>
      </trkpt>
      <trkpt lat="42.91925" lon="0.11733">
        <ele>2044.5</ele>
        <time>2020-02-09T10:21:08.000Z</time>
      </trkpt>
      <trkpt lat="42.91927" lon="0.1173">
        <ele>2044.8</ele>
        <time>2020-02-09T10:21:19.000Z</time>
      </trkpt>
      <trkpt lat="42.9193" lon="0.11732">
        <ele>2045.3</ele>
        <time>2020-02-09T10:21:31.000Z</time>
      </trkpt>
      <trkpt lat="42.91932" lon="0.11736">
        <ele>2045.8</ele>
        <time>2020-02-09T10:21:40.000Z</time>
      </trkpt>
      <trkpt lat="42.91935" lon="0.11735">
        <ele>2045.8</ele>
        <time>2020-02-09T10:26:39.000Z</time>
      </trkpt>
      <trkpt lat="42.91938" lon="0.11733">
        <ele>2046.1</ele>
        <time>2020-02-09T10:26:58.000Z</time>
      </trkpt>
      <trkpt lat="42.91941" lon="0.11731">
        <ele>2046.5</ele>
        <time>2020-02-09T10:27:03.000Z</time>
      </trkpt>
      <trkpt lat="42.91946" lon="0.1173">
        <ele>2047.6</ele>
        <time>2020-02-09T10:27:07.000Z</time>
      </trkpt>
      <trkpt lat="42.91947" lon="0.1173">
        <ele>2047.5</ele>
        <time>2020-02-09T10:27:09.000Z</time>
      </trkpt>
      <trkpt lat="42.9195" lon="0.11728">
        <ele>2047.9</ele>
        <time>2020-02-09T10:27:12.000Z</time>
      </trkpt>
      <trkpt lat="42.91955" lon="0.11727">
        <ele>2048.9</ele>
        <time>2020-02-09T10:27:22.000Z</time>
      </trkpt>
      <trkpt lat="42.91957" lon="0.11726">
        <ele>2048.8</ele>
        <time>2020-02-09T10:27:24.000Z</time>
      </trkpt>
      <trkpt lat="42.9196" lon="0.11724">
        <ele>2049.2</ele>
        <time>2020-02-09T10:27:28.000Z</time>
      </trkpt>
      <trkpt lat="42.91964" lon="0.11722">
        <ele>2050</ele>
        <time>2020-02-09T10:27:34.000Z</time>
      </trkpt>
      <trkpt lat="42.91966" lon="0.1172">
        <ele>2050.4</ele>
        <time>2020-02-09T10:27:38.000Z</time>
      </trkpt>
      <trkpt lat="42.91969" lon="0.11719">
        <ele>2050.3</ele>
        <time>2020-02-09T10:27:42.000Z</time>
      </trkpt>
      <trkpt lat="42.91973" lon="0.11718">
        <ele>2050.8</ele>
        <time>2020-02-09T10:27:47.000Z</time>
      </trkpt>
      <trkpt lat="42.91979" lon="0.11717">
        <ele>2051.8</ele>
        <time>2020-02-09T10:27:52.000Z</time>
      </trkpt>
      <trkpt lat="42.9198" lon="0.11717">
        <ele>2052.2</ele>
        <time>2020-02-09T10:27:58.000Z</time>
      </trkpt>
      <trkpt lat="42.91985" lon="0.11716">
        <ele>2052.5</ele>
        <time>2020-02-09T10:28:07.000Z</time>
      </trkpt>
      <trkpt lat="42.91986" lon="0.11717">
        <ele>2052.9</ele>
        <time>2020-02-09T10:28:09.000Z</time>
      </trkpt>
      <trkpt lat="42.91989" lon="0.11718">
        <ele>2053.3</ele>
        <time>2020-02-09T10:28:14.000Z</time>
      </trkpt>
      <trkpt lat="42.91992" lon="0.11719">
        <ele>2053.6</ele>
        <time>2020-02-09T10:28:20.000Z</time>
      </trkpt>
      <trkpt lat="42.91996" lon="0.1172">
        <ele>2054.1</ele>
        <time>2020-02-09T10:28:32.000Z</time>
      </trkpt>
      <trkpt lat="42.92" lon="0.11721">
        <ele>2054.7</ele>
        <time>2020-02-09T10:28:33.000Z</time>
      </trkpt>
      <trkpt lat="42.92001" lon="0.11722">
        <ele>2054.6</ele>
        <time>2020-02-09T10:28:41.000Z</time>
      </trkpt>
      <trkpt lat="42.92004" lon="0.11724">
        <ele>2055</ele>
        <time>2020-02-09T10:28:46.000Z</time>
      </trkpt>
      <trkpt lat="42.92006" lon="0.11726">
        <ele>2055.6</ele>
        <time>2020-02-09T10:28:50.000Z</time>
      </trkpt>
      <trkpt lat="42.92012" lon="0.1173">
        <ele>2056.5</ele>
        <time>2020-02-09T10:29:05.000Z</time>
      </trkpt>
      <trkpt lat="42.92014" lon="0.11733">
        <ele>2056.7</ele>
        <time>2020-02-09T10:29:10.000Z</time>
      </trkpt>
      <trkpt lat="42.92018" lon="0.11735">
        <ele>2057.3</ele>
        <time>2020-02-09T10:29:17.000Z</time>
      </trkpt>
      <trkpt lat="42.92019" lon="0.11737">
        <ele>2057.3</ele>
        <time>2020-02-09T10:29:21.000Z</time>
      </trkpt>
      <trkpt lat="42.92021" lon="0.1174">
        <ele>2057.8</ele>
        <time>2020-02-09T10:29:27.000Z</time>
      </trkpt>
      <trkpt lat="42.92023" lon="0.11746">
        <ele>2058.5</ele>
        <time>2020-02-09T10:29:35.000Z</time>
      </trkpt>
      <trkpt lat="42.92024" lon="0.11748">
        <ele>2058.9</ele>
        <time>2020-02-09T10:29:39.000Z</time>
      </trkpt>
      <trkpt lat="42.92024" lon="0.11754">
        <ele>2059.3</ele>
        <time>2020-02-09T10:29:54.000Z</time>
      </trkpt>
      <trkpt lat="42.92025" lon="0.11757">
        <ele>2059.6</ele>
        <time>2020-02-09T10:29:57.000Z</time>
      </trkpt>
      <trkpt lat="42.92028" lon="0.11762">
        <ele>2060.5</ele>
        <time>2020-02-09T10:30:04.000Z</time>
      </trkpt>
      <trkpt lat="42.92028" lon="0.11763">
        <ele>2060.5</ele>
        <time>2020-02-09T10:30:06.000Z</time>
      </trkpt>
      <trkpt lat="42.9203" lon="0.11768">
        <ele>2061.9</ele>
        <time>2020-02-09T10:30:07.000Z</time>
      </trkpt>
      <trkpt lat="42.9203" lon="0.11771">
        <ele>2061.9</ele>
        <time>2020-02-09T10:30:15.000Z</time>
      </trkpt>
      <trkpt lat="42.92031" lon="0.11777">
        <ele>2063.3</ele>
        <time>2020-02-09T10:30:19.000Z</time>
      </trkpt>
      <trkpt lat="42.92032" lon="0.11778">
        <ele>2063.2</ele>
        <time>2020-02-09T10:30:21.000Z</time>
      </trkpt>
      <trkpt lat="42.92032" lon="0.11783">
        <ele>2063.9</ele>
        <time>2020-02-09T10:30:34.000Z</time>
      </trkpt>
      <trkpt lat="42.92034" lon="0.11787">
        <ele>2064.9</ele>
        <time>2020-02-09T10:30:40.000Z</time>
      </trkpt>
      <trkpt lat="42.92036" lon="0.1179">
        <ele>2065.9</ele>
        <time>2020-02-09T10:30:45.000Z</time>
      </trkpt>
      <trkpt lat="42.92038" lon="0.11793">
        <ele>2066.5</ele>
        <time>2020-02-09T10:30:51.000Z</time>
      </trkpt>
      <trkpt lat="42.9204" lon="0.11797">
        <ele>2066.8</ele>
        <time>2020-02-09T10:30:56.000Z</time>
      </trkpt>
      <trkpt lat="42.92041" lon="0.11801">
        <ele>2067.6</ele>
        <time>2020-02-09T10:31:31.000Z</time>
      </trkpt>
      <trkpt lat="42.92041" lon="0.11805">
        <ele>2068.2</ele>
        <time>2020-02-09T10:31:47.000Z</time>
      </trkpt>
      <trkpt lat="42.92043" lon="0.11807">
        <ele>2069.3</ele>
        <time>2020-02-09T10:32:46.000Z</time>
      </trkpt>
      <trkpt lat="42.92044" lon="0.11811">
        <ele>2070.2</ele>
        <time>2020-02-09T10:33:15.000Z</time>
      </trkpt>
      <trkpt lat="42.92047" lon="0.11812">
        <ele>2070.5</ele>
        <time>2020-02-09T10:33:25.000Z</time>
      </trkpt>
      <trkpt lat="42.9205" lon="0.11813">
        <ele>2070.7</ele>
        <time>2020-02-09T10:33:29.000Z</time>
      </trkpt>
      <trkpt lat="42.92052" lon="0.11816">
        <ele>2071.9</ele>
        <time>2020-02-09T10:33:35.000Z</time>
      </trkpt>
      <trkpt lat="42.92055" lon="0.11818">
        <ele>2072.3</ele>
        <time>2020-02-09T10:33:39.000Z</time>
      </trkpt>
      <trkpt lat="42.92057" lon="0.1182">
        <ele>2073.2</ele>
        <time>2020-02-09T10:33:45.000Z</time>
      </trkpt>
      <trkpt lat="42.9206" lon="0.11821">
        <ele>2073.5</ele>
        <time>2020-02-09T10:33:50.000Z</time>
      </trkpt>
      <trkpt lat="42.92064" lon="0.11821">
        <ele>2074.3</ele>
        <time>2020-02-09T10:33:55.000Z</time>
      </trkpt>
      <trkpt lat="42.92067" lon="0.11821">
        <ele>2074.3</ele>
        <time>2020-02-09T10:34:00.000Z</time>
      </trkpt>
      <trkpt lat="42.9207" lon="0.11821">
        <ele>2075</ele>
        <time>2020-02-09T10:34:08.000Z</time>
      </trkpt>
      <trkpt lat="42.92074" lon="0.11823">
        <ele>2075.3</ele>
        <time>2020-02-09T10:34:15.000Z</time>
      </trkpt>
      <trkpt lat="42.92076" lon="0.11825">
        <ele>2076.2</ele>
        <time>2020-02-09T10:34:21.000Z</time>
      </trkpt>
      <trkpt lat="42.92078" lon="0.11828">
        <ele>2077.4</ele>
        <time>2020-02-09T10:34:28.000Z</time>
      </trkpt>
      <trkpt lat="42.9208" lon="0.11831">
        <ele>2077.7</ele>
        <time>2020-02-09T10:34:33.000Z</time>
      </trkpt>
      <trkpt lat="42.92083" lon="0.11833">
        <ele>2078.6</ele>
        <time>2020-02-09T10:34:40.000Z</time>
      </trkpt>
      <trkpt lat="42.92085" lon="0.11835">
        <ele>2079</ele>
        <time>2020-02-09T10:34:48.000Z</time>
      </trkpt>
      <trkpt lat="42.92088" lon="0.11836">
        <ele>2080.1</ele>
        <time>2020-02-09T10:34:55.000Z</time>
      </trkpt>
      <trkpt lat="42.92091" lon="0.11838">
        <ele>2080.6</ele>
        <time>2020-02-09T10:35:02.000Z</time>
      </trkpt>
      <trkpt lat="42.92094" lon="0.1184">
        <ele>2081</ele>
        <time>2020-02-09T10:35:09.000Z</time>
      </trkpt>
      <trkpt lat="42.92096" lon="0.11842">
        <ele>2082.1</ele>
        <time>2020-02-09T10:35:21.000Z</time>
      </trkpt>
      <trkpt lat="42.92099" lon="0.11844">
        <ele>2082.5</ele>
        <time>2020-02-09T10:35:29.000Z</time>
      </trkpt>
      <trkpt lat="42.92102" lon="0.11847">
        <ele>2083.7</ele>
        <time>2020-02-09T10:35:36.000Z</time>
      </trkpt>
      <trkpt lat="42.92105" lon="0.11849">
        <ele>2085.1</ele>
        <time>2020-02-09T10:35:41.000Z</time>
      </trkpt>
      <trkpt lat="42.92107" lon="0.11851">
        <ele>2085.1</ele>
        <time>2020-02-09T10:35:46.000Z</time>
      </trkpt>
      <trkpt lat="42.9211" lon="0.11853">
        <ele>2085.7</ele>
        <time>2020-02-09T10:35:50.000Z</time>
      </trkpt>
      <trkpt lat="42.92113" lon="0.11855">
        <ele>2087.2</ele>
        <time>2020-02-09T10:35:55.000Z</time>
      </trkpt>
      <trkpt lat="42.92115" lon="0.11857">
        <ele>2087.9</ele>
        <time>2020-02-09T10:36:01.000Z</time>
      </trkpt>
      <trkpt lat="42.92119" lon="0.11859">
        <ele>2089.4</ele>
        <time>2020-02-09T10:36:05.000Z</time>
      </trkpt>
      <trkpt lat="42.92122" lon="0.1186">
        <ele>2090.1</ele>
        <time>2020-02-09T10:36:09.000Z</time>
      </trkpt>
      <trkpt lat="42.92125" lon="0.11861">
        <ele>2090.7</ele>
        <time>2020-02-09T10:36:15.000Z</time>
      </trkpt>
      <trkpt lat="42.92128" lon="0.11864">
        <ele>2092.2</ele>
        <time>2020-02-09T10:36:21.000Z</time>
      </trkpt>
      <trkpt lat="42.9213" lon="0.11866">
        <ele>2093.1</ele>
        <time>2020-02-09T10:36:26.000Z</time>
      </trkpt>
      <trkpt lat="42.92132" lon="0.11869">
        <ele>2093.8</ele>
        <time>2020-02-09T10:36:32.000Z</time>
      </trkpt>
      <trkpt lat="42.92134" lon="0.11871">
        <ele>2095.4</ele>
        <time>2020-02-09T10:36:38.000Z</time>
      </trkpt>
      <trkpt lat="42.92137" lon="0.11873">
        <ele>2096.1</ele>
        <time>2020-02-09T10:36:44.000Z</time>
      </trkpt>
      <trkpt lat="42.92139" lon="0.11874">
        <ele>2096.1</ele>
        <time>2020-02-09T10:36:50.000Z</time>
      </trkpt>
      <trkpt lat="42.92143" lon="0.11875">
        <ele>2098.3</ele>
        <time>2020-02-09T10:36:57.000Z</time>
      </trkpt>
      <trkpt lat="42.92146" lon="0.11876">
        <ele>2098.9</ele>
        <time>2020-02-09T10:37:03.000Z</time>
      </trkpt>
      <trkpt lat="42.92149" lon="0.11877">
        <ele>2099.5</ele>
        <time>2020-02-09T10:37:07.000Z</time>
      </trkpt>
      <trkpt lat="42.92151" lon="0.11881">
        <ele>2100.3</ele>
        <time>2020-02-09T10:37:16.000Z</time>
      </trkpt>
      <trkpt lat="42.92154" lon="0.11883">
        <ele>2100.8</ele>
        <time>2020-02-09T10:37:20.000Z</time>
      </trkpt>
      <trkpt lat="42.92156" lon="0.11886">
        <ele>2102</ele>
        <time>2020-02-09T10:37:26.000Z</time>
      </trkpt>
      <trkpt lat="42.92157" lon="0.1189">
        <ele>2102.7</ele>
        <time>2020-02-09T10:37:33.000Z</time>
      </trkpt>
      <trkpt lat="42.92157" lon="0.11894">
        <ele>2103.4</ele>
        <time>2020-02-09T10:37:39.000Z</time>
      </trkpt>
      <trkpt lat="42.92159" lon="0.11899">
        <ele>2104.6</ele>
        <time>2020-02-09T10:37:46.000Z</time>
      </trkpt>
      <trkpt lat="42.9216" lon="0.11903">
        <ele>2105.4</ele>
        <time>2020-02-09T10:37:53.000Z</time>
      </trkpt>
      <trkpt lat="42.92161" lon="0.11908">
        <ele>2106.1</ele>
        <time>2020-02-09T10:37:57.000Z</time>
      </trkpt>
      <trkpt lat="42.92161" lon="0.11912">
        <ele>2106.9</ele>
        <time>2020-02-09T10:38:05.000Z</time>
      </trkpt>
      <trkpt lat="42.92161" lon="0.11916">
        <ele>2107.7</ele>
        <time>2020-02-09T10:38:25.000Z</time>
      </trkpt>
      <trkpt lat="42.92162" lon="0.1192">
        <ele>2108.9</ele>
        <time>2020-02-09T10:38:31.000Z</time>
      </trkpt>
      <trkpt lat="42.92163" lon="0.11924">
        <ele>2109.7</ele>
        <time>2020-02-09T10:38:36.000Z</time>
      </trkpt>
      <trkpt lat="42.92164" lon="0.11928">
        <ele>2111</ele>
        <time>2020-02-09T10:38:43.000Z</time>
      </trkpt>
      <trkpt lat="42.92167" lon="0.1193">
        <ele>2111</ele>
        <time>2020-02-09T10:38:52.000Z</time>
      </trkpt>
      <trkpt lat="42.9217" lon="0.11933">
        <ele>2112.2</ele>
        <time>2020-02-09T10:38:57.000Z</time>
      </trkpt>
      <trkpt lat="42.92172" lon="0.11936">
        <ele>2113.6</ele>
        <time>2020-02-09T10:39:07.000Z</time>
      </trkpt>
      <trkpt lat="42.92175" lon="0.11939">
        <ele>2114.1</ele>
        <time>2020-02-09T10:39:12.000Z</time>
      </trkpt>
      <trkpt lat="42.92179" lon="0.11939">
        <ele>2114.7</ele>
        <time>2020-02-09T10:39:17.000Z</time>
      </trkpt>
      <trkpt lat="42.92182" lon="0.11938">
        <ele>2115.3</ele>
        <time>2020-02-09T10:39:27.000Z</time>
      </trkpt>
      <trkpt lat="42.92185" lon="0.11938">
        <ele>2115.9</ele>
        <time>2020-02-09T10:39:34.000Z</time>
      </trkpt>
      <trkpt lat="42.92188" lon="0.11938">
        <ele>2116.5</ele>
        <time>2020-02-09T10:39:49.000Z</time>
      </trkpt>
      <trkpt lat="42.92191" lon="0.11937">
        <ele>2117.1</ele>
        <time>2020-02-09T10:39:57.000Z</time>
      </trkpt>
      <trkpt lat="42.92194" lon="0.11936">
        <ele>2117.8</ele>
        <time>2020-02-09T10:40:02.000Z</time>
      </trkpt>
      <trkpt lat="42.92197" lon="0.11935">
        <ele>2118.6</ele>
        <time>2020-02-09T10:40:11.000Z</time>
      </trkpt>
      <trkpt lat="42.92199" lon="0.11935">
        <ele>2118.5</ele>
        <time>2020-02-09T10:40:23.000Z</time>
      </trkpt>
      <trkpt lat="42.92202" lon="0.11935">
        <ele>2120.1</ele>
        <time>2020-02-09T10:40:40.000Z</time>
      </trkpt>
      <trkpt lat="42.92205" lon="0.11934">
        <ele>2120</ele>
        <time>2020-02-09T10:40:50.000Z</time>
      </trkpt>
      <trkpt lat="42.92209" lon="0.11934">
        <ele>2120.7</ele>
        <time>2020-02-09T10:40:56.000Z</time>
      </trkpt>
      <trkpt lat="42.9221" lon="0.11937">
        <ele>2121.4</ele>
        <time>2020-02-09T10:41:05.000Z</time>
      </trkpt>
      <trkpt lat="42.92212" lon="0.1194">
        <ele>2122.9</ele>
        <time>2020-02-09T10:41:17.000Z</time>
      </trkpt>
      <trkpt lat="42.92215" lon="0.11942">
        <ele>2123.5</ele>
        <time>2020-02-09T10:41:27.000Z</time>
      </trkpt>
      <trkpt lat="42.92218" lon="0.11944">
        <ele>2124.3</ele>
        <time>2020-02-09T10:41:40.000Z</time>
      </trkpt>
      <trkpt lat="42.92221" lon="0.11946">
        <ele>2125.1</ele>
        <time>2020-02-09T10:41:44.000Z</time>
      </trkpt>
      <trkpt lat="42.92222" lon="0.1195">
        <ele>2126.7</ele>
        <time>2020-02-09T10:41:49.000Z</time>
      </trkpt>
      <trkpt lat="42.92225" lon="0.11952">
        <ele>2128.2</ele>
        <time>2020-02-09T10:41:54.000Z</time>
      </trkpt>
      <trkpt lat="42.92227" lon="0.11953">
        <ele>2129</ele>
        <time>2020-02-09T10:42:06.000Z</time>
      </trkpt>
      <trkpt lat="42.92223" lon="0.11951">
        <ele>2126.7</ele>
        <time>2020-02-09T10:42:27.000Z</time>
      </trkpt>
      <trkpt lat="42.92226" lon="0.11951">
        <ele>2127.5</ele>
        <time>2020-02-09T10:42:43.000Z</time>
      </trkpt>
      <trkpt lat="42.92228" lon="0.11953">
        <ele>2129</ele>
        <time>2020-02-09T10:43:48.000Z</time>
      </trkpt>
      <trkpt lat="42.92231" lon="0.11952">
        <ele>2129.7</ele>
        <time>2020-02-09T10:43:58.000Z</time>
      </trkpt>
      <trkpt lat="42.92233" lon="0.11954">
        <ele>2129.7</ele>
        <time>2020-02-09T10:46:42.000Z</time>
      </trkpt>
      <trkpt lat="42.92235" lon="0.11957">
        <ele>2131.1</ele>
        <time>2020-02-09T10:46:48.000Z</time>
      </trkpt>
      <trkpt lat="42.92238" lon="0.11961">
        <ele>2132.4</ele>
        <time>2020-02-09T10:46:56.000Z</time>
      </trkpt>
      <trkpt lat="42.9224" lon="0.11964">
        <ele>2133.1</ele>
        <time>2020-02-09T10:46:59.000Z</time>
      </trkpt>
      <trkpt lat="42.92242" lon="0.11967">
        <ele>2133.8</ele>
        <time>2020-02-09T10:47:03.000Z</time>
      </trkpt>
      <trkpt lat="42.92245" lon="0.11969">
        <ele>2135.2</ele>
        <time>2020-02-09T10:47:08.000Z</time>
      </trkpt>
      <trkpt lat="42.92248" lon="0.11971">
        <ele>2136</ele>
        <time>2020-02-09T10:47:12.000Z</time>
      </trkpt>
      <trkpt lat="42.92251" lon="0.11972">
        <ele>2136.9</ele>
        <time>2020-02-09T10:47:17.000Z</time>
      </trkpt>
      <trkpt lat="42.92254" lon="0.11974">
        <ele>2138.4</ele>
        <time>2020-02-09T10:47:22.000Z</time>
      </trkpt>
      <trkpt lat="42.92251" lon="0.11974">
        <ele>2137.5</ele>
        <time>2020-02-09T10:47:40.000Z</time>
      </trkpt>
      <trkpt lat="42.92254" lon="0.11975">
        <ele>2138.4</ele>
        <time>2020-02-09T10:48:08.000Z</time>
      </trkpt>
      <trkpt lat="42.92256" lon="0.11978">
        <ele>2139.8</ele>
        <time>2020-02-09T10:48:23.000Z</time>
      </trkpt>
      <trkpt lat="42.92259" lon="0.1198">
        <ele>2140.6</ele>
        <time>2020-02-09T10:48:29.000Z</time>
      </trkpt>
      <trkpt lat="42.92262" lon="0.11981">
        <ele>2141.4</ele>
        <time>2020-02-09T10:48:34.000Z</time>
      </trkpt>
      <trkpt lat="42.92265" lon="0.11983">
        <ele>2142.8</ele>
        <time>2020-02-09T10:48:39.000Z</time>
      </trkpt>
      <trkpt lat="42.92268" lon="0.11985">
        <ele>2142.8</ele>
        <time>2020-02-09T10:48:42.000Z</time>
      </trkpt>
      <trkpt lat="42.9227" lon="0.11987">
        <ele>2144.3</ele>
        <time>2020-02-09T10:48:45.000Z</time>
      </trkpt>
      <trkpt lat="42.92273" lon="0.11989">
        <ele>2145.3</ele>
        <time>2020-02-09T10:48:50.000Z</time>
      </trkpt>
      <trkpt lat="42.92276" lon="0.11993">
        <ele>2146.9</ele>
        <time>2020-02-09T10:48:56.000Z</time>
      </trkpt>
      <trkpt lat="42.92278" lon="0.11996">
        <ele>2148.6</ele>
        <time>2020-02-09T10:49:01.000Z</time>
      </trkpt>
      <trkpt lat="42.9228" lon="0.11999">
        <ele>2148.6</ele>
        <time>2020-02-09T10:49:05.000Z</time>
      </trkpt>
      <trkpt lat="42.92281" lon="0.12002">
        <ele>2150.2</ele>
        <time>2020-02-09T10:49:09.000Z</time>
      </trkpt>
      <trkpt lat="42.92283" lon="0.12005">
        <ele>2150.8</ele>
        <time>2020-02-09T10:49:15.000Z</time>
      </trkpt>
      <trkpt lat="42.92284" lon="0.12008">
        <ele>2152.3</ele>
        <time>2020-02-09T10:49:22.000Z</time>
      </trkpt>
      <trkpt lat="42.92285" lon="0.12012">
        <ele>2152.3</ele>
        <time>2020-02-09T10:49:26.000Z</time>
      </trkpt>
      <trkpt lat="42.92284" lon="0.12016">
        <ele>2151.8</ele>
        <time>2020-02-09T10:49:34.000Z</time>
      </trkpt>
      <trkpt lat="42.92282" lon="0.1202">
        <ele>2152.3</ele>
        <time>2020-02-09T10:49:45.000Z</time>
      </trkpt>
      <trkpt lat="42.92281" lon="0.12023">
        <ele>2152.8</ele>
        <time>2020-02-09T10:49:52.000Z</time>
      </trkpt>
      <trkpt lat="42.9228" lon="0.12028">
        <ele>2152.5</ele>
        <time>2020-02-09T10:49:59.000Z</time>
      </trkpt>
      <trkpt lat="42.92279" lon="0.12032">
        <ele>2153.2</ele>
        <time>2020-02-09T10:50:06.000Z</time>
      </trkpt>
      <trkpt lat="42.92278" lon="0.12035">
        <ele>2153.9</ele>
        <time>2020-02-09T10:50:13.000Z</time>
      </trkpt>
      <trkpt lat="42.92278" lon="0.1204">
        <ele>2154.6</ele>
        <time>2020-02-09T10:50:17.000Z</time>
      </trkpt>
      <trkpt lat="42.92279" lon="0.12044">
        <ele>2155.4</ele>
        <time>2020-02-09T10:50:22.000Z</time>
      </trkpt>
      <trkpt lat="42.92281" lon="0.12047">
        <ele>2156.9</ele>
        <time>2020-02-09T10:50:36.000Z</time>
      </trkpt>
      <trkpt lat="42.92283" lon="0.12051">
        <ele>2157.7</ele>
        <time>2020-02-09T10:50:42.000Z</time>
      </trkpt>
      <trkpt lat="42.92285" lon="0.12054">
        <ele>2158.4</ele>
        <time>2020-02-09T10:50:46.000Z</time>
      </trkpt>
      <trkpt lat="42.92287" lon="0.12057">
        <ele>2159.2</ele>
        <time>2020-02-09T10:50:52.000Z</time>
      </trkpt>
      <trkpt lat="42.92289" lon="0.1206">
        <ele>2160.7</ele>
        <time>2020-02-09T10:50:57.000Z</time>
      </trkpt>
      <trkpt lat="42.92292" lon="0.12059">
        <ele>2160.6</ele>
        <time>2020-02-09T10:51:09.000Z</time>
      </trkpt>
      <trkpt lat="42.92295" lon="0.12058">
        <ele>2161.2</ele>
        <time>2020-02-09T10:51:15.000Z</time>
      </trkpt>
      <trkpt lat="42.92298" lon="0.12057">
        <ele>2161.9</ele>
        <time>2020-02-09T10:51:29.000Z</time>
      </trkpt>
      <trkpt lat="42.92301" lon="0.12056">
        <ele>2162.7</ele>
        <time>2020-02-09T10:51:38.000Z</time>
      </trkpt>
      <trkpt lat="42.92304" lon="0.12055">
        <ele>2163.4</ele>
        <time>2020-02-09T10:51:49.000Z</time>
      </trkpt>
      <trkpt lat="42.92307" lon="0.12053">
        <ele>2163.5</ele>
        <time>2020-02-09T10:52:06.000Z</time>
      </trkpt>
      <trkpt lat="42.92309" lon="0.12051">
        <ele>2163.5</ele>
        <time>2020-02-09T10:52:15.000Z</time>
      </trkpt>
      <trkpt lat="42.92312" lon="0.1205">
        <ele>2163.6</ele>
        <time>2020-02-09T10:52:25.000Z</time>
      </trkpt>
      <trkpt lat="42.92314" lon="0.12049">
        <ele>2164.4</ele>
        <time>2020-02-09T10:52:45.000Z</time>
      </trkpt>
      <trkpt lat="42.92317" lon="0.12048">
        <ele>2165.2</ele>
        <time>2020-02-09T10:52:51.000Z</time>
      </trkpt>
      <trkpt lat="42.92321" lon="0.12049">
        <ele>2165.9</ele>
        <time>2020-02-09T10:52:59.000Z</time>
      </trkpt>
      <trkpt lat="42.92324" lon="0.1205">
        <ele>2166.7</ele>
        <time>2020-02-09T10:53:03.000Z</time>
      </trkpt>
      <trkpt lat="42.92327" lon="0.1205">
        <ele>2167.4</ele>
        <time>2020-02-09T10:53:12.000Z</time>
      </trkpt>
      <trkpt lat="42.9233" lon="0.12048">
        <ele>2168.1</ele>
        <time>2020-02-09T10:53:22.000Z</time>
      </trkpt>
      <trkpt lat="42.92333" lon="0.12046">
        <ele>2168.6</ele>
        <time>2020-02-09T10:53:29.000Z</time>
      </trkpt>
      <trkpt lat="42.92336" lon="0.12045">
        <ele>2169.4</ele>
        <time>2020-02-09T10:53:37.000Z</time>
      </trkpt>
      <trkpt lat="42.92339" lon="0.12045">
        <ele>2170.2</ele>
        <time>2020-02-09T10:53:45.000Z</time>
      </trkpt>
      <trkpt lat="42.92341" lon="0.12044">
        <ele>2170.9</ele>
        <time>2020-02-09T10:53:50.000Z</time>
      </trkpt>
      <trkpt lat="42.92344" lon="0.12044">
        <ele>2171.5</ele>
        <time>2020-02-09T10:53:58.000Z</time>
      </trkpt>
      <trkpt lat="42.92347" lon="0.12045">
        <ele>2172.1</ele>
        <time>2020-02-09T10:54:07.000Z</time>
      </trkpt>
      <trkpt lat="42.9235" lon="0.12044">
        <ele>2172.6</ele>
        <time>2020-02-09T10:54:13.000Z</time>
      </trkpt>
      <trkpt lat="42.92352" lon="0.12041">
        <ele>2172.4</ele>
        <time>2020-02-09T10:54:21.000Z</time>
      </trkpt>
      <trkpt lat="42.92355" lon="0.1204">
        <ele>2173</ele>
        <time>2020-02-09T10:54:28.000Z</time>
      </trkpt>
      <trkpt lat="42.92358" lon="0.12039">
        <ele>2173.5</ele>
        <time>2020-02-09T10:54:34.000Z</time>
      </trkpt>
      <trkpt lat="42.92361" lon="0.12039">
        <ele>2174.1</ele>
        <time>2020-02-09T10:54:41.000Z</time>
      </trkpt>
      <trkpt lat="42.92364" lon="0.12038">
        <ele>2174.7</ele>
        <time>2020-02-09T10:54:47.000Z</time>
      </trkpt>
      <trkpt lat="42.92367" lon="0.12036">
        <ele>2175.2</ele>
        <time>2020-02-09T10:54:54.000Z</time>
      </trkpt>
      <trkpt lat="42.92369" lon="0.12033">
        <ele>2175.7</ele>
        <time>2020-02-09T10:55:02.000Z</time>
      </trkpt>
      <trkpt lat="42.92372" lon="0.12031">
        <ele>2176.3</ele>
        <time>2020-02-09T10:55:11.000Z</time>
      </trkpt>
      <trkpt lat="42.92375" lon="0.12028">
        <ele>2176.2</ele>
        <time>2020-02-09T10:55:17.000Z</time>
      </trkpt>
      <trkpt lat="42.92377" lon="0.12025">
        <ele>2176.8</ele>
        <time>2020-02-09T10:55:22.000Z</time>
      </trkpt>
      <trkpt lat="42.92379" lon="0.12023">
        <ele>2177.4</ele>
        <time>2020-02-09T10:55:28.000Z</time>
      </trkpt>
      <trkpt lat="42.92382" lon="0.12021">
        <ele>2178</ele>
        <time>2020-02-09T10:55:34.000Z</time>
      </trkpt>
      <trkpt lat="42.92385" lon="0.1202">
        <ele>2178.9</ele>
        <time>2020-02-09T10:55:39.000Z</time>
      </trkpt>
      <trkpt lat="42.92388" lon="0.1202">
        <ele>2179.7</ele>
        <time>2020-02-09T10:55:43.000Z</time>
      </trkpt>
      <trkpt lat="42.92391" lon="0.12018">
        <ele>2180.5</ele>
        <time>2020-02-09T10:55:48.000Z</time>
      </trkpt>
      <trkpt lat="42.92394" lon="0.12017">
        <ele>2180.5</ele>
        <time>2020-02-09T10:55:52.000Z</time>
      </trkpt>
      <trkpt lat="42.92397" lon="0.12015">
        <ele>2181.3</ele>
        <time>2020-02-09T10:55:59.000Z</time>
      </trkpt>
      <trkpt lat="42.92399" lon="0.12013">
        <ele>2182</ele>
        <time>2020-02-09T10:56:08.000Z</time>
      </trkpt>
      <trkpt lat="42.92399" lon="0.12009">
        <ele>2182.1</ele>
        <time>2020-02-09T10:56:14.000Z</time>
      </trkpt>
      <trkpt lat="42.92399" lon="0.12016">
        <ele>2182</ele>
        <time>2020-02-09T10:56:31.000Z</time>
      </trkpt>
      <trkpt lat="42.92402" lon="0.12018">
        <ele>2182.7</ele>
        <time>2020-02-09T10:56:38.000Z</time>
      </trkpt>
      <trkpt lat="42.92406" lon="0.12017">
        <ele>2183.3</ele>
        <time>2020-02-09T10:56:42.000Z</time>
      </trkpt>
      <trkpt lat="42.92409" lon="0.12014">
        <ele>2184</ele>
        <time>2020-02-09T10:56:43.000Z</time>
      </trkpt>
      <trkpt lat="42.92413" lon="0.12013">
        <ele>2185.3</ele>
        <time>2020-02-09T10:56:47.000Z</time>
      </trkpt>
      <trkpt lat="42.92416" lon="0.12014">
        <ele>2185.3</ele>
        <time>2020-02-09T10:56:50.000Z</time>
      </trkpt>
      <trkpt lat="42.92418" lon="0.12012">
        <ele>2186</ele>
        <time>2020-02-09T10:57:17.000Z</time>
      </trkpt>
      <trkpt lat="42.92421" lon="0.12012">
        <ele>2186.7</ele>
        <time>2020-02-09T10:57:22.000Z</time>
      </trkpt>
      <trkpt lat="42.92425" lon="0.12011">
        <ele>2187.4</ele>
        <time>2020-02-09T10:57:28.000Z</time>
      </trkpt>
      <trkpt lat="42.92428" lon="0.12012">
        <ele>2188.3</ele>
        <time>2020-02-09T10:57:42.000Z</time>
      </trkpt>
      <trkpt lat="42.92431" lon="0.12014">
        <ele>2189</ele>
        <time>2020-02-09T10:57:46.000Z</time>
      </trkpt>
      <trkpt lat="42.92434" lon="0.12016">
        <ele>2189.6</ele>
        <time>2020-02-09T10:57:50.000Z</time>
      </trkpt>
      <trkpt lat="42.92438" lon="0.12017">
        <ele>2190.3</ele>
        <time>2020-02-09T10:57:56.000Z</time>
      </trkpt>
      <trkpt lat="42.9244" lon="0.12017">
        <ele>2191</ele>
        <time>2020-02-09T10:58:01.000Z</time>
      </trkpt>
      <trkpt lat="42.92443" lon="0.12016">
        <ele>2191.8</ele>
        <time>2020-02-09T10:58:07.000Z</time>
      </trkpt>
      <trkpt lat="42.92447" lon="0.12015">
        <ele>2192.5</ele>
        <time>2020-02-09T10:58:12.000Z</time>
      </trkpt>
      <trkpt lat="42.92449" lon="0.12014">
        <ele>2193.3</ele>
        <time>2020-02-09T10:58:18.000Z</time>
      </trkpt>
      <trkpt lat="42.92452" lon="0.12011">
        <ele>2194.1</ele>
        <time>2020-02-09T10:58:24.000Z</time>
      </trkpt>
      <trkpt lat="42.92454" lon="0.12009">
        <ele>2194.8</ele>
        <time>2020-02-09T10:58:28.000Z</time>
      </trkpt>
      <trkpt lat="42.92457" lon="0.12007">
        <ele>2195.6</ele>
        <time>2020-02-09T10:58:33.000Z</time>
      </trkpt>
      <trkpt lat="42.92459" lon="0.12003">
        <ele>2195.7</ele>
        <time>2020-02-09T10:58:37.000Z</time>
      </trkpt>
      <trkpt lat="42.92462" lon="0.12">
        <ele>2196.3</ele>
        <time>2020-02-09T10:58:46.000Z</time>
      </trkpt>
      <trkpt lat="42.92465" lon="0.11999">
        <ele>2196.9</ele>
        <time>2020-02-09T10:58:52.000Z</time>
      </trkpt>
      <trkpt lat="42.92468" lon="0.11999">
        <ele>2197.6</ele>
        <time>2020-02-09T10:58:57.000Z</time>
      </trkpt>
      <trkpt lat="42.92471" lon="0.11998">
        <ele>2198.3</ele>
        <time>2020-02-09T10:59:03.000Z</time>
      </trkpt>
      <trkpt lat="42.92474" lon="0.11995">
        <ele>2199.1</ele>
        <time>2020-02-09T10:59:08.000Z</time>
      </trkpt>
      <trkpt lat="42.92477" lon="0.11991">
        <ele>2199.8</ele>
        <time>2020-02-09T10:59:13.000Z</time>
      </trkpt>
      <trkpt lat="42.92478" lon="0.11988">
        <ele>2199.9</ele>
        <time>2020-02-09T10:59:18.000Z</time>
      </trkpt>
      <trkpt lat="42.92478" lon="0.11984">
        <ele>2200.1</ele>
        <time>2020-02-09T10:59:26.000Z</time>
      </trkpt>
      <trkpt lat="42.92478" lon="0.1198">
        <ele>2200.2</ele>
        <time>2020-02-09T10:59:32.000Z</time>
      </trkpt>
      <trkpt lat="42.92481" lon="0.11978">
        <ele>2200.9</ele>
        <time>2020-02-09T10:59:39.000Z</time>
      </trkpt>
      <trkpt lat="42.92484" lon="0.11977">
        <ele>2201.6</ele>
        <time>2020-02-09T10:59:47.000Z</time>
      </trkpt>
      <trkpt lat="42.92486" lon="0.11974">
        <ele>2202.2</ele>
        <time>2020-02-09T10:59:51.000Z</time>
      </trkpt>
      <trkpt lat="42.92485" lon="0.1197">
        <ele>2202.4</ele>
        <time>2020-02-09T10:59:56.000Z</time>
      </trkpt>
      <trkpt lat="42.92486" lon="0.11965">
        <ele>2202.6</ele>
        <time>2020-02-09T11:00:01.000Z</time>
      </trkpt>
      <trkpt lat="42.92487" lon="0.11961">
        <ele>2202.8</ele>
        <time>2020-02-09T11:00:08.000Z</time>
      </trkpt>
      <trkpt lat="42.92488" lon="0.11958">
        <ele>2203.1</ele>
        <time>2020-02-09T11:00:14.000Z</time>
      </trkpt>
      <trkpt lat="42.92488" lon="0.11954">
        <ele>2204</ele>
        <time>2020-02-09T11:00:21.000Z</time>
      </trkpt>
      <trkpt lat="42.92489" lon="0.1195">
        <ele>2204.3</ele>
        <time>2020-02-09T11:00:23.000Z</time>
      </trkpt>
      <trkpt lat="42.92488" lon="0.11946">
        <ele>2204.1</ele>
        <time>2020-02-09T11:00:27.000Z</time>
      </trkpt>
      <trkpt lat="42.92487" lon="0.11942">
        <ele>2204.4</ele>
        <time>2020-02-09T11:00:31.000Z</time>
      </trkpt>
      <trkpt lat="42.92488" lon="0.11937">
        <ele>2204.8</ele>
        <time>2020-02-09T11:00:38.000Z</time>
      </trkpt>
      <trkpt lat="42.92489" lon="0.11932">
        <ele>2205.7</ele>
        <time>2020-02-09T11:00:44.000Z</time>
      </trkpt>
      <trkpt lat="42.9249" lon="0.11929">
        <ele>2206.1</ele>
        <time>2020-02-09T11:00:53.000Z</time>
      </trkpt>
      <trkpt lat="42.92492" lon="0.11926">
        <ele>2207.1</ele>
        <time>2020-02-09T11:01:00.000Z</time>
      </trkpt>
      <trkpt lat="42.92494" lon="0.11923">
        <ele>2207.1</ele>
        <time>2020-02-09T11:01:09.000Z</time>
      </trkpt>
      <trkpt lat="42.92497" lon="0.1192">
        <ele>2208.2</ele>
        <time>2020-02-09T11:01:19.000Z</time>
      </trkpt>
      <trkpt lat="42.92498" lon="0.11917">
        <ele>2209.3</ele>
        <time>2020-02-09T11:01:25.000Z</time>
      </trkpt>
      <trkpt lat="42.925" lon="0.11913">
        <ele>2209.8</ele>
        <time>2020-02-09T11:01:30.000Z</time>
      </trkpt>
      <trkpt lat="42.92501" lon="0.11909">
        <ele>2210.5</ele>
        <time>2020-02-09T11:01:35.000Z</time>
      </trkpt>
      <trkpt lat="42.92501" lon="0.11906">
        <ele>2210.9</ele>
        <time>2020-02-09T11:01:47.000Z</time>
      </trkpt>
      <trkpt lat="42.92502" lon="0.11902">
        <ele>2211.3</ele>
        <time>2020-02-09T11:01:53.000Z</time>
      </trkpt>
      <trkpt lat="42.92503" lon="0.11898">
        <ele>2211.6</ele>
        <time>2020-02-09T11:01:57.000Z</time>
      </trkpt>
      <trkpt lat="42.92502" lon="0.11894">
        <ele>2212</ele>
        <time>2020-02-09T11:02:03.000Z</time>
      </trkpt>
      <trkpt lat="42.92502" lon="0.1189">
        <ele>2212.3</ele>
        <time>2020-02-09T11:02:09.000Z</time>
      </trkpt>
      <trkpt lat="42.92502" lon="0.11885">
        <ele>2212.6</ele>
        <time>2020-02-09T11:02:16.000Z</time>
      </trkpt>
      <trkpt lat="42.92502" lon="0.11881">
        <ele>2212.9</ele>
        <time>2020-02-09T11:02:22.000Z</time>
      </trkpt>
      <trkpt lat="42.92503" lon="0.11877">
        <ele>2213.2</ele>
        <time>2020-02-09T11:02:35.000Z</time>
      </trkpt>
      <trkpt lat="42.92502" lon="0.11873">
        <ele>2213.5</ele>
        <time>2020-02-09T11:02:41.000Z</time>
      </trkpt>
      <trkpt lat="42.92502" lon="0.11869">
        <ele>2213.8</ele>
        <time>2020-02-09T11:02:45.000Z</time>
      </trkpt>
      <trkpt lat="42.925" lon="0.11864">
        <ele>2213.4</ele>
        <time>2020-02-09T11:02:50.000Z</time>
      </trkpt>
      <trkpt lat="42.92499" lon="0.1186">
        <ele>2213.8</ele>
        <time>2020-02-09T11:02:54.000Z</time>
      </trkpt>
      <trkpt lat="42.92499" lon="0.11857">
        <ele>2214.1</ele>
        <time>2020-02-09T11:02:58.000Z</time>
      </trkpt>
      <trkpt lat="42.92498" lon="0.11853">
        <ele>2214.4</ele>
        <time>2020-02-09T11:03:06.000Z</time>
      </trkpt>
      <trkpt lat="42.92499" lon="0.11849">
        <ele>2214.4</ele>
        <time>2020-02-09T11:03:12.000Z</time>
      </trkpt>
      <trkpt lat="42.925" lon="0.11845">
        <ele>2214.8</ele>
        <time>2020-02-09T11:03:20.000Z</time>
      </trkpt>
      <trkpt lat="42.92501" lon="0.11841">
        <ele>2215.9</ele>
        <time>2020-02-09T11:03:28.000Z</time>
      </trkpt>
      <trkpt lat="42.92503" lon="0.11836">
        <ele>2216.5</ele>
        <time>2020-02-09T11:03:33.000Z</time>
      </trkpt>
      <trkpt lat="42.92505" lon="0.11833">
        <ele>2217.2</ele>
        <time>2020-02-09T11:03:39.000Z</time>
      </trkpt>
      <trkpt lat="42.92507" lon="0.11829">
        <ele>2217.5</ele>
        <time>2020-02-09T11:03:46.000Z</time>
      </trkpt>
      <trkpt lat="42.92508" lon="0.11826">
        <ele>2218.4</ele>
        <time>2020-02-09T11:03:57.000Z</time>
      </trkpt>
      <trkpt lat="42.92508" lon="0.11822">
        <ele>2218.6</ele>
        <time>2020-02-09T11:04:01.000Z</time>
      </trkpt>
      <trkpt lat="42.92508" lon="0.11818">
        <ele>2218.9</ele>
        <time>2020-02-09T11:04:07.000Z</time>
      </trkpt>
      <trkpt lat="42.92509" lon="0.11814">
        <ele>2219.1</ele>
        <time>2020-02-09T11:04:29.000Z</time>
      </trkpt>
      <trkpt lat="42.92508" lon="0.1181">
        <ele>2219.3</ele>
        <time>2020-02-09T11:04:35.000Z</time>
      </trkpt>
      <trkpt lat="42.92506" lon="0.11807">
        <ele>2218.8</ele>
        <time>2020-02-09T11:04:40.000Z</time>
      </trkpt>
      <trkpt lat="42.92504" lon="0.11804">
        <ele>2219</ele>
        <time>2020-02-09T11:04:45.000Z</time>
      </trkpt>
      <trkpt lat="42.92501" lon="0.118">
        <ele>2218.7</ele>
        <time>2020-02-09T11:04:51.000Z</time>
      </trkpt>
      <trkpt lat="42.92499" lon="0.11797">
        <ele>2218.3</ele>
        <time>2020-02-09T11:04:58.000Z</time>
      </trkpt>
      <trkpt lat="42.92497" lon="0.11793">
        <ele>2217.8</ele>
        <time>2020-02-09T11:05:05.000Z</time>
      </trkpt>
      <trkpt lat="42.92495" lon="0.1179">
        <ele>2218</ele>
        <time>2020-02-09T11:05:09.000Z</time>
      </trkpt>
      <trkpt lat="42.92494" lon="0.11786">
        <ele>2217.8</ele>
        <time>2020-02-09T11:05:13.000Z</time>
      </trkpt>
      <trkpt lat="42.92493" lon="0.11782">
        <ele>2218</ele>
        <time>2020-02-09T11:05:17.000Z</time>
      </trkpt>
      <trkpt lat="42.92492" lon="0.11778">
        <ele>2218.2</ele>
        <time>2020-02-09T11:05:22.000Z</time>
      </trkpt>
      <trkpt lat="42.92491" lon="0.11774">
        <ele>2218.1</ele>
        <time>2020-02-09T11:05:26.000Z</time>
      </trkpt>
      <trkpt lat="42.92488" lon="0.1177">
        <ele>2217.9</ele>
        <time>2020-02-09T11:05:31.000Z</time>
      </trkpt>
      <trkpt lat="42.92485" lon="0.11766">
        <ele>2218.1</ele>
        <time>2020-02-09T11:05:37.000Z</time>
      </trkpt>
      <trkpt lat="42.92483" lon="0.11761">
        <ele>2217.8</ele>
        <time>2020-02-09T11:05:42.000Z</time>
      </trkpt>
      <trkpt lat="42.92481" lon="0.11757">
        <ele>2217.4</ele>
        <time>2020-02-09T11:05:48.000Z</time>
      </trkpt>
      <trkpt lat="42.9248" lon="0.11754">
        <ele>2217.4</ele>
        <time>2020-02-09T11:05:55.000Z</time>
      </trkpt>
      <trkpt lat="42.92478" lon="0.11751">
        <ele>2216.8</ele>
        <time>2020-02-09T11:06:01.000Z</time>
      </trkpt>
      <trkpt lat="42.92477" lon="0.11747">
        <ele>2216.8</ele>
        <time>2020-02-09T11:06:09.000Z</time>
      </trkpt>
      <trkpt lat="42.92475" lon="0.11743">
        <ele>2216.1</ele>
        <time>2020-02-09T11:06:22.000Z</time>
      </trkpt>
      <trkpt lat="42.92474" lon="0.11739">
        <ele>2216.1</ele>
        <time>2020-02-09T11:06:28.000Z</time>
      </trkpt>
      <trkpt lat="42.92472" lon="0.11735">
        <ele>2215.3</ele>
        <time>2020-02-09T11:06:35.000Z</time>
      </trkpt>
      <trkpt lat="42.9247" lon="0.11732">
        <ele>2215.2</ele>
        <time>2020-02-09T11:06:42.000Z</time>
      </trkpt>
      <trkpt lat="42.92468" lon="0.11731">
        <ele>2214.4</ele>
        <time>2020-02-09T11:06:53.000Z</time>
      </trkpt>
      <trkpt lat="42.92464" lon="0.11729">
        <ele>2213.6</ele>
        <time>2020-02-09T11:07:32.000Z</time>
      </trkpt>
      <trkpt lat="42.92461" lon="0.11728">
        <ele>2212.8</ele>
        <time>2020-02-09T11:07:45.000Z</time>
      </trkpt>
      <trkpt lat="42.92458" lon="0.11727">
        <ele>2212</ele>
        <time>2020-02-09T11:07:53.000Z</time>
      </trkpt>
      <trkpt lat="42.92455" lon="0.11728">
        <ele>2211.1</ele>
        <time>2020-02-09T11:07:58.000Z</time>
      </trkpt>
      <trkpt lat="42.92452" lon="0.11729">
        <ele>2210.1</ele>
        <time>2020-02-09T11:08:05.000Z</time>
      </trkpt>
      <trkpt lat="42.9245" lon="0.11732">
        <ele>2209.1</ele>
        <time>2020-02-09T11:08:11.000Z</time>
      </trkpt>
      <trkpt lat="42.92449" lon="0.11736">
        <ele>2209</ele>
        <time>2020-02-09T11:08:20.000Z</time>
      </trkpt>
      <trkpt lat="42.92446" lon="0.11736">
        <ele>2207.9</ele>
        <time>2020-02-09T11:08:47.000Z</time>
      </trkpt>
      <trkpt lat="42.92446" lon="0.1174">
        <ele>2207.8</ele>
        <time>2020-02-09T12:29:16.000Z</time>
      </trkpt>
      <trkpt lat="42.92444" lon="0.1174">
        <ele>2206.6</ele>
        <time>2020-02-09T12:29:53.000Z</time>
      </trkpt>
      <trkpt lat="42.92442" lon="0.11737">
        <ele>2206.7</ele>
        <time>2020-02-09T12:33:35.000Z</time>
      </trkpt>
      <trkpt lat="42.92446" lon="0.11737">
        <ele>2207.9</ele>
        <time>2020-02-09T12:34:33.000Z</time>
      </trkpt>
      <trkpt lat="42.92448" lon="0.11742">
        <ele>2208.8</ele>
        <time>2020-02-09T12:35:34.000Z</time>
      </trkpt>
      <trkpt lat="42.92452" lon="0.11742">
        <ele>2210</ele>
        <time>2020-02-09T12:35:38.000Z</time>
      </trkpt>
      <trkpt lat="42.92454" lon="0.11739">
        <ele>2211.1</ele>
        <time>2020-02-09T12:35:39.000Z</time>
      </trkpt>
      <trkpt lat="42.92456" lon="0.11735">
        <ele>2211.1</ele>
        <time>2020-02-09T12:35:43.000Z</time>
      </trkpt>
      <trkpt lat="42.92457" lon="0.11731">
        <ele>2212</ele>
        <time>2020-02-09T12:35:50.000Z</time>
      </trkpt>
      <trkpt lat="42.92459" lon="0.11728">
        <ele>2212</ele>
        <time>2020-02-09T12:35:57.000Z</time>
      </trkpt>
      <trkpt lat="42.92461" lon="0.11724">
        <ele>2212.7</ele>
        <time>2020-02-09T12:35:59.000Z</time>
      </trkpt>
      <trkpt lat="42.92464" lon="0.11724">
        <ele>2213.5</ele>
        <time>2020-02-09T12:36:20.000Z</time>
      </trkpt>
      <trkpt lat="42.92467" lon="0.11725">
        <ele>2214.3</ele>
        <time>2020-02-09T12:36:22.000Z</time>
      </trkpt>
      <trkpt lat="42.92469" lon="0.11728">
        <ele>2214.3</ele>
        <time>2020-02-09T12:36:25.000Z</time>
      </trkpt>
      <trkpt lat="42.92472" lon="0.11726">
        <ele>2215.1</ele>
        <time>2020-02-09T12:36:28.000Z</time>
      </trkpt>
      <trkpt lat="42.92482" lon="0.11729">
        <ele>2217.7</ele>
        <time>2020-02-09T12:36:30.000Z</time>
      </trkpt>
      <trkpt lat="42.92499" lon="0.11735">
        <ele>2219.6</ele>
        <time>2020-02-09T12:36:32.000Z</time>
      </trkpt>
      <trkpt lat="42.92515" lon="0.11739">
        <ele>2220.2</ele>
        <time>2020-02-09T12:36:34.000Z</time>
      </trkpt>
      <trkpt lat="42.92521" lon="0.11742">
        <ele>2220.2</ele>
        <time>2020-02-09T12:36:35.000Z</time>
      </trkpt>
      <trkpt lat="42.92528" lon="0.1174">
        <ele>2220.3</ele>
        <time>2020-02-09T12:36:37.000Z</time>
      </trkpt>
      <trkpt lat="42.92531" lon="0.11739">
        <ele>2220.3</ele>
        <time>2020-02-09T12:36:38.000Z</time>
      </trkpt>
      <trkpt lat="42.92538" lon="0.11736">
        <ele>2220.3</ele>
        <time>2020-02-09T12:36:39.000Z</time>
      </trkpt>
      <trkpt lat="42.92536" lon="0.11729">
        <ele>2220.4</ele>
        <time>2020-02-09T12:36:42.000Z</time>
      </trkpt>
      <trkpt lat="42.92543" lon="0.11723">
        <ele>2220.4</ele>
        <time>2020-02-09T12:36:43.000Z</time>
      </trkpt>
      <trkpt lat="42.92549" lon="0.11715">
        <ele>2220.6</ele>
        <time>2020-02-09T12:36:44.000Z</time>
      </trkpt>
      <trkpt lat="42.92557" lon="0.117">
        <ele>2220.8</ele>
        <time>2020-02-09T12:36:46.000Z</time>
      </trkpt>
      <trkpt lat="42.9256" lon="0.11692">
        <ele>2221</ele>
        <time>2020-02-09T12:36:47.000Z</time>
      </trkpt>
      <trkpt lat="42.92563" lon="0.11684">
        <ele>2220.9</ele>
        <time>2020-02-09T12:36:48.000Z</time>
      </trkpt>
      <trkpt lat="42.92566" lon="0.11671">
        <ele>2220.6</ele>
        <time>2020-02-09T12:36:50.000Z</time>
      </trkpt>
      <trkpt lat="42.92565" lon="0.11666">
        <ele>2220.5</ele>
        <time>2020-02-09T12:36:51.000Z</time>
      </trkpt>
      <trkpt lat="42.92564" lon="0.11661">
        <ele>2220.3</ele>
        <time>2020-02-09T12:36:52.000Z</time>
      </trkpt>
      <trkpt lat="42.92561" lon="0.11659">
        <ele>2220.2</ele>
        <time>2020-02-09T12:37:03.000Z</time>
      </trkpt>
      <trkpt lat="42.92558" lon="0.1166">
        <ele>2220.2</ele>
        <time>2020-02-09T12:37:07.000Z</time>
      </trkpt>
      <trkpt lat="42.92554" lon="0.11657">
        <ele>2220.2</ele>
        <time>2020-02-09T12:37:09.000Z</time>
      </trkpt>
      <trkpt lat="42.92553" lon="0.11651">
        <ele>2219.4</ele>
        <time>2020-02-09T12:37:11.000Z</time>
      </trkpt>
      <trkpt lat="42.92553" lon="0.11647">
        <ele>2219.1</ele>
        <time>2020-02-09T12:37:13.000Z</time>
      </trkpt>
      <trkpt lat="42.92553" lon="0.11642">
        <ele>2218.7</ele>
        <time>2020-02-09T12:37:14.000Z</time>
      </trkpt>
      <trkpt lat="42.92552" lon="0.11635">
        <ele>2218.3</ele>
        <time>2020-02-09T12:37:17.000Z</time>
      </trkpt>
      <trkpt lat="42.92551" lon="0.11632">
        <ele>2218</ele>
        <time>2020-02-09T12:37:21.000Z</time>
      </trkpt>
      <trkpt lat="42.9255" lon="0.11628">
        <ele>2217.4</ele>
        <time>2020-02-09T12:37:31.000Z</time>
      </trkpt>
      <trkpt lat="42.92546" lon="0.11614">
        <ele>2216.3</ele>
        <time>2020-02-09T12:37:33.000Z</time>
      </trkpt>
      <trkpt lat="42.92543" lon="0.11608">
        <ele>2215.5</ele>
        <time>2020-02-09T12:37:34.000Z</time>
      </trkpt>
      <trkpt lat="42.92541" lon="0.11601">
        <ele>2215</ele>
        <time>2020-02-09T12:37:36.000Z</time>
      </trkpt>
      <trkpt lat="42.92539" lon="0.11596">
        <ele>2214.5</ele>
        <time>2020-02-09T12:38:30.000Z</time>
      </trkpt>
      <trkpt lat="42.92531" lon="0.11596">
        <ele>2213.9</ele>
        <time>2020-02-09T12:38:32.000Z</time>
      </trkpt>
      <trkpt lat="42.9252" lon="0.11608">
        <ele>2213.7</ele>
        <time>2020-02-09T12:38:34.000Z</time>
      </trkpt>
      <trkpt lat="42.92513" lon="0.11606">
        <ele>2213</ele>
        <time>2020-02-09T12:38:38.000Z</time>
      </trkpt>
      <trkpt lat="42.92503" lon="0.11605">
        <ele>2212.1</ele>
        <time>2020-02-09T12:38:39.000Z</time>
      </trkpt>
      <trkpt lat="42.92511" lon="0.11605">
        <ele>2213</ele>
        <time>2020-02-09T12:38:42.000Z</time>
      </trkpt>
      <trkpt lat="42.92512" lon="0.11597">
        <ele>2212.2</ele>
        <time>2020-02-09T12:38:44.000Z</time>
      </trkpt>
      <trkpt lat="42.9251" lon="0.11593">
        <ele>2211.8</ele>
        <time>2020-02-09T12:38:46.000Z</time>
      </trkpt>
      <trkpt lat="42.9247" lon="0.11567">
        <ele>2203.3</ele>
        <time>2020-02-09T12:38:50.000Z</time>
      </trkpt>
      <trkpt lat="42.92465" lon="0.11566">
        <ele>2202.1</ele>
        <time>2020-02-09T12:38:51.000Z</time>
      </trkpt>
      <trkpt lat="42.92461" lon="0.11564">
        <ele>2201</ele>
        <time>2020-02-09T12:38:53.000Z</time>
      </trkpt>
      <trkpt lat="42.92458" lon="0.11562">
        <ele>2200.4</ele>
        <time>2020-02-09T12:38:57.000Z</time>
      </trkpt>
      <trkpt lat="42.92457" lon="0.11559">
        <ele>2200</ele>
        <time>2020-02-09T12:39:32.000Z</time>
      </trkpt>
      <trkpt lat="42.92461" lon="0.11559">
        <ele>2200.6</ele>
        <time>2020-02-09T12:39:49.000Z</time>
      </trkpt>
      <trkpt lat="42.92458" lon="0.11562">
        <ele>2200.4</ele>
        <time>2020-02-09T12:39:51.000Z</time>
      </trkpt>
      <trkpt lat="42.92449" lon="0.11562">
        <ele>2198.3</ele>
        <time>2020-02-09T12:39:53.000Z</time>
      </trkpt>
      <trkpt lat="42.92443" lon="0.11561">
        <ele>2196.3</ele>
        <time>2020-02-09T12:39:54.000Z</time>
      </trkpt>
      <trkpt lat="42.92439" lon="0.11559">
        <ele>2195.5</ele>
        <time>2020-02-09T12:39:56.000Z</time>
      </trkpt>
      <trkpt lat="42.92436" lon="0.11559">
        <ele>2194.6</ele>
        <time>2020-02-09T12:39:57.000Z</time>
      </trkpt>
      <trkpt lat="42.92433" lon="0.11558">
        <ele>2193.8</ele>
        <time>2020-02-09T12:39:58.000Z</time>
      </trkpt>
      <trkpt lat="42.92428" lon="0.11557">
        <ele>2191.7</ele>
        <time>2020-02-09T12:40:00.000Z</time>
      </trkpt>
      <trkpt lat="42.92425" lon="0.11556">
        <ele>2190.3</ele>
        <time>2020-02-09T12:40:01.000Z</time>
      </trkpt>
      <trkpt lat="42.92421" lon="0.11556">
        <ele>2189.3</ele>
        <time>2020-02-09T12:40:03.000Z</time>
      </trkpt>
      <trkpt lat="42.92416" lon="0.11556">
        <ele>2187.3</ele>
        <time>2020-02-09T12:40:05.000Z</time>
      </trkpt>
      <trkpt lat="42.92413" lon="0.11556">
        <ele>2186.3</ele>
        <time>2020-02-09T12:40:06.000Z</time>
      </trkpt>
      <trkpt lat="42.9241" lon="0.11556">
        <ele>2186.3</ele>
        <time>2020-02-09T12:40:07.000Z</time>
      </trkpt>
      <trkpt lat="42.92405" lon="0.11557">
        <ele>2184.4</ele>
        <time>2020-02-09T12:40:09.000Z</time>
      </trkpt>
      <trkpt lat="42.92401" lon="0.11556">
        <ele>2183.6</ele>
        <time>2020-02-09T12:40:11.000Z</time>
      </trkpt>
      <trkpt lat="42.92398" lon="0.11556">
        <ele>2182.8</ele>
        <time>2020-02-09T12:40:12.000Z</time>
      </trkpt>
      <trkpt lat="42.92392" lon="0.11558">
        <ele>2181</ele>
        <time>2020-02-09T12:40:14.000Z</time>
      </trkpt>
      <trkpt lat="42.92389" lon="0.11559">
        <ele>2180.1</ele>
        <time>2020-02-09T12:40:15.000Z</time>
      </trkpt>
      <trkpt lat="42.92387" lon="0.11562">
        <ele>2179.2</ele>
        <time>2020-02-09T12:40:16.000Z</time>
      </trkpt>
      <trkpt lat="42.92382" lon="0.11561">
        <ele>2178.4</ele>
        <time>2020-02-09T12:40:19.000Z</time>
      </trkpt>
      <trkpt lat="42.92378" lon="0.11557">
        <ele>2177.7</ele>
        <time>2020-02-09T12:40:21.000Z</time>
      </trkpt>
      <trkpt lat="42.92375" lon="0.11558">
        <ele>2177</ele>
        <time>2020-02-09T12:40:22.000Z</time>
      </trkpt>
      <trkpt lat="42.9237" lon="0.11561">
        <ele>2175.7</ele>
        <time>2020-02-09T12:40:23.000Z</time>
      </trkpt>
      <trkpt lat="42.92368" lon="0.11563">
        <ele>2174.8</ele>
        <time>2020-02-09T12:40:24.000Z</time>
      </trkpt>
      <trkpt lat="42.92366" lon="0.11566">
        <ele>2174.7</ele>
        <time>2020-02-09T12:40:25.000Z</time>
      </trkpt>
      <trkpt lat="42.92363" lon="0.11569">
        <ele>2173.9</ele>
        <time>2020-02-09T12:40:28.000Z</time>
      </trkpt>
      <trkpt lat="42.92361" lon="0.11572">
        <ele>2172.9</ele>
        <time>2020-02-09T12:40:30.000Z</time>
      </trkpt>
      <trkpt lat="42.92358" lon="0.11574">
        <ele>2172.1</ele>
        <time>2020-02-09T12:40:33.000Z</time>
      </trkpt>
      <trkpt lat="42.92355" lon="0.11573">
        <ele>2171.4</ele>
        <time>2020-02-09T12:40:35.000Z</time>
      </trkpt>
      <trkpt lat="42.92352" lon="0.11577">
        <ele>2170.5</ele>
        <time>2020-02-09T12:40:37.000Z</time>
      </trkpt>
      <trkpt lat="42.9235" lon="0.1158">
        <ele>2170.2</ele>
        <time>2020-02-09T12:40:38.000Z</time>
      </trkpt>
      <trkpt lat="42.92348" lon="0.11585">
        <ele>2169.2</ele>
        <time>2020-02-09T12:40:40.000Z</time>
      </trkpt>
      <trkpt lat="42.92345" lon="0.11586">
        <ele>2168.5</ele>
        <time>2020-02-09T12:40:42.000Z</time>
      </trkpt>
      <trkpt lat="42.92342" lon="0.11585">
        <ele>2167.7</ele>
        <time>2020-02-09T12:40:47.000Z</time>
      </trkpt>
      <trkpt lat="42.9234" lon="0.11583">
        <ele>2167.3</ele>
        <time>2020-02-09T12:40:50.000Z</time>
      </trkpt>
      <trkpt lat="42.92336" lon="0.11581">
        <ele>2166.4</ele>
        <time>2020-02-09T12:40:52.000Z</time>
      </trkpt>
      <trkpt lat="42.92333" lon="0.11582">
        <ele>2165.5</ele>
        <time>2020-02-09T12:40:55.000Z</time>
      </trkpt>
      <trkpt lat="42.9233" lon="0.11583">
        <ele>2164.1</ele>
        <time>2020-02-09T12:41:00.000Z</time>
      </trkpt>
      <trkpt lat="42.92327" lon="0.11582">
        <ele>2163.9</ele>
        <time>2020-02-09T12:41:03.000Z</time>
      </trkpt>
      <trkpt lat="42.92324" lon="0.11581">
        <ele>2163.1</ele>
        <time>2020-02-09T12:41:05.000Z</time>
      </trkpt>
      <trkpt lat="42.9232" lon="0.11579">
        <ele>2162.3</ele>
        <time>2020-02-09T12:41:09.000Z</time>
      </trkpt>
      <trkpt lat="42.92316" lon="0.11578">
        <ele>2162.1</ele>
        <time>2020-02-09T12:41:13.000Z</time>
      </trkpt>
      <trkpt lat="42.92312" lon="0.11577">
        <ele>2161.3</ele>
        <time>2020-02-09T12:41:16.000Z</time>
      </trkpt>
      <trkpt lat="42.92308" lon="0.11575">
        <ele>2159.5</ele>
        <time>2020-02-09T12:41:21.000Z</time>
      </trkpt>
      <trkpt lat="42.92306" lon="0.11573">
        <ele>2159.3</ele>
        <time>2020-02-09T12:41:24.000Z</time>
      </trkpt>
      <trkpt lat="42.92302" lon="0.11571">
        <ele>2158.4</ele>
        <time>2020-02-09T12:41:28.000Z</time>
      </trkpt>
      <trkpt lat="42.92299" lon="0.1157">
        <ele>2158.3</ele>
        <time>2020-02-09T12:41:31.000Z</time>
      </trkpt>
      <trkpt lat="42.92296" lon="0.11568">
        <ele>2157.5</ele>
        <time>2020-02-09T12:41:34.000Z</time>
      </trkpt>
      <trkpt lat="42.92293" lon="0.11567">
        <ele>2156.6</ele>
        <time>2020-02-09T12:41:37.000Z</time>
      </trkpt>
      <trkpt lat="42.92291" lon="0.11564">
        <ele>2157.5</ele>
        <time>2020-02-09T12:41:45.000Z</time>
      </trkpt>
      <trkpt lat="42.92288" lon="0.11559">
        <ele>2157.7</ele>
        <time>2020-02-09T12:41:54.000Z</time>
      </trkpt>
      <trkpt lat="42.92284" lon="0.11554">
        <ele>2158</ele>
        <time>2020-02-09T12:41:56.000Z</time>
      </trkpt>
      <trkpt lat="42.92282" lon="0.11551">
        <ele>2158.5</ele>
        <time>2020-02-09T12:41:59.000Z</time>
      </trkpt>
      <trkpt lat="42.92277" lon="0.11551">
        <ele>2156.8</ele>
        <time>2020-02-09T12:42:17.000Z</time>
      </trkpt>
      <trkpt lat="42.92273" lon="0.11554">
        <ele>2154.6</ele>
        <time>2020-02-09T12:42:19.000Z</time>
      </trkpt>
      <trkpt lat="42.92274" lon="0.11558">
        <ele>2153.3</ele>
        <time>2020-02-09T12:42:22.000Z</time>
      </trkpt>
      <trkpt lat="42.92276" lon="0.11561">
        <ele>2154.2</ele>
        <time>2020-02-09T12:42:39.000Z</time>
      </trkpt>
      <trkpt lat="42.92272" lon="0.11563">
        <ele>2152</ele>
        <time>2020-02-09T12:42:49.000Z</time>
      </trkpt>
      <trkpt lat="42.92269" lon="0.11566">
        <ele>2149.9</ele>
        <time>2020-02-09T12:42:52.000Z</time>
      </trkpt>
      <trkpt lat="42.92269" lon="0.11573">
        <ele>2148.8</ele>
        <time>2020-02-09T12:42:56.000Z</time>
      </trkpt>
      <trkpt lat="42.92265" lon="0.11575">
        <ele>2146.8</ele>
        <time>2020-02-09T12:43:00.000Z</time>
      </trkpt>
      <trkpt lat="42.92264" lon="0.11581">
        <ele>2144.8</ele>
        <time>2020-02-09T12:43:03.000Z</time>
      </trkpt>
      <trkpt lat="42.92261" lon="0.1158">
        <ele>2144</ele>
        <time>2020-02-09T12:43:09.000Z</time>
      </trkpt>
      <trkpt lat="42.92258" lon="0.11579">
        <ele>2143.1</ele>
        <time>2020-02-09T12:43:16.000Z</time>
      </trkpt>
      <trkpt lat="42.92254" lon="0.1158">
        <ele>2142.2</ele>
        <time>2020-02-09T12:43:19.000Z</time>
      </trkpt>
      <trkpt lat="42.92245" lon="0.11582">
        <ele>2139.4</ele>
        <time>2020-02-09T12:43:21.000Z</time>
      </trkpt>
      <trkpt lat="42.92242" lon="0.11582">
        <ele>2138.6</ele>
        <time>2020-02-09T12:43:22.000Z</time>
      </trkpt>
      <trkpt lat="42.92238" lon="0.11584">
        <ele>2136.5</ele>
        <time>2020-02-09T12:44:00.000Z</time>
      </trkpt>
      <trkpt lat="42.92237" lon="0.11591">
        <ele>2134.3</ele>
        <time>2020-02-09T12:44:02.000Z</time>
      </trkpt>
      <trkpt lat="42.92235" lon="0.11598">
        <ele>2131.6</ele>
        <time>2020-02-09T12:44:03.000Z</time>
      </trkpt>
      <trkpt lat="42.92233" lon="0.11603">
        <ele>2129.4</ele>
        <time>2020-02-09T12:44:04.000Z</time>
      </trkpt>
      <trkpt lat="42.92232" lon="0.11613">
        <ele>2127</ele>
        <time>2020-02-09T12:44:06.000Z</time>
      </trkpt>
      <trkpt lat="42.92228" lon="0.11613">
        <ele>2124.8</ele>
        <time>2020-02-09T12:44:09.000Z</time>
      </trkpt>
      <trkpt lat="42.92229" lon="0.11637">
        <ele>2119.1</ele>
        <time>2020-02-09T12:44:12.000Z</time>
      </trkpt>
      <trkpt lat="42.92224" lon="0.11649">
        <ele>2113.4</ele>
        <time>2020-02-09T12:44:16.000Z</time>
      </trkpt>
      <trkpt lat="42.92222" lon="0.11655">
        <ele>2112.4</ele>
        <time>2020-02-09T12:44:17.000Z</time>
      </trkpt>
      <trkpt lat="42.92225" lon="0.11641">
        <ele>2116.8</ele>
        <time>2020-02-09T12:44:18.000Z</time>
      </trkpt>
      <trkpt lat="42.92229" lon="0.11633">
        <ele>2120.2</ele>
        <time>2020-02-09T12:44:20.000Z</time>
      </trkpt>
      <trkpt lat="42.92221" lon="0.11654">
        <ele>2112.4</ele>
        <time>2020-02-09T12:44:22.000Z</time>
      </trkpt>
      <trkpt lat="42.92212" lon="0.11666">
        <ele>2106.4</ele>
        <time>2020-02-09T12:44:24.000Z</time>
      </trkpt>
      <trkpt lat="42.92205" lon="0.11675">
        <ele>2101.7</ele>
        <time>2020-02-09T12:44:25.000Z</time>
      </trkpt>
      <trkpt lat="42.922" lon="0.11678">
        <ele>2099.7</ele>
        <time>2020-02-09T12:44:26.000Z</time>
      </trkpt>
      <trkpt lat="42.92177" lon="0.11693">
        <ele>2090.7</ele>
        <time>2020-02-09T12:44:28.000Z</time>
      </trkpt>
      <trkpt lat="42.92158" lon="0.11707">
        <ele>2083.2</ele>
        <time>2020-02-09T12:44:30.000Z</time>
      </trkpt>
      <trkpt lat="42.9215" lon="0.1171">
        <ele>2081.1</ele>
        <time>2020-02-09T12:44:31.000Z</time>
      </trkpt>
      <trkpt lat="42.92142" lon="0.11709">
        <ele>2078.3</ele>
        <time>2020-02-09T12:44:32.000Z</time>
      </trkpt>
      <trkpt lat="42.92133" lon="0.11708">
        <ele>2075.3</ele>
        <time>2020-02-09T12:44:33.000Z</time>
      </trkpt>
      <trkpt lat="42.92115" lon="0.11705">
        <ele>2072.1</ele>
        <time>2020-02-09T12:44:35.000Z</time>
      </trkpt>
      <trkpt lat="42.92098" lon="0.11709">
        <ele>2068.5</ele>
        <time>2020-02-09T12:44:37.000Z</time>
      </trkpt>
      <trkpt lat="42.9209" lon="0.11711">
        <ele>2067.4</ele>
        <time>2020-02-09T12:44:38.000Z</time>
      </trkpt>
      <trkpt lat="42.92082" lon="0.11711">
        <ele>2065.5</ele>
        <time>2020-02-09T12:44:39.000Z</time>
      </trkpt>
      <trkpt lat="42.92076" lon="0.1171">
        <ele>2064.3</ele>
        <time>2020-02-09T12:44:40.000Z</time>
      </trkpt>
      <trkpt lat="42.92066" lon="0.1171">
        <ele>2062.7</ele>
        <time>2020-02-09T12:44:42.000Z</time>
      </trkpt>
      <trkpt lat="42.92061" lon="0.11711">
        <ele>2062.1</ele>
        <time>2020-02-09T12:44:43.000Z</time>
      </trkpt>
      <trkpt lat="42.92053" lon="0.11713">
        <ele>2060.3</ele>
        <time>2020-02-09T12:44:45.000Z</time>
      </trkpt>
      <trkpt lat="42.9205" lon="0.11714">
        <ele>2059.8</ele>
        <time>2020-02-09T12:44:46.000Z</time>
      </trkpt>
      <trkpt lat="42.92047" lon="0.11715">
        <ele>2059.3</ele>
        <time>2020-02-09T12:44:47.000Z</time>
      </trkpt>
      <trkpt lat="42.9204" lon="0.11717">
        <ele>2058.5</ele>
        <time>2020-02-09T12:44:49.000Z</time>
      </trkpt>
      <trkpt lat="42.92037" lon="0.11718">
        <ele>2058.1</ele>
        <time>2020-02-09T12:44:50.000Z</time>
      </trkpt>
      <trkpt lat="42.9203" lon="0.11719">
        <ele>2057.3</ele>
        <time>2020-02-09T12:44:52.000Z</time>
      </trkpt>
      <trkpt lat="42.92025" lon="0.11723">
        <ele>2056.7</ele>
        <time>2020-02-09T12:44:53.000Z</time>
      </trkpt>
      <trkpt lat="42.92021" lon="0.11727">
        <ele>2056.4</ele>
        <time>2020-02-09T12:44:54.000Z</time>
      </trkpt>
      <trkpt lat="42.92015" lon="0.11729">
        <ele>2056</ele>
        <time>2020-02-09T12:44:55.000Z</time>
      </trkpt>
      <trkpt lat="42.92008" lon="0.1173">
        <ele>2055.3</ele>
        <time>2020-02-09T12:44:56.000Z</time>
      </trkpt>
      <trkpt lat="42.92001" lon="0.1173">
        <ele>2054.6</ele>
        <time>2020-02-09T12:44:57.000Z</time>
      </trkpt>
      <trkpt lat="42.91995" lon="0.11731">
        <ele>2053.2</ele>
        <time>2020-02-09T12:44:58.000Z</time>
      </trkpt>
      <trkpt lat="42.91981" lon="0.11729">
        <ele>2051.4</ele>
        <time>2020-02-09T12:45:00.000Z</time>
      </trkpt>
      <trkpt lat="42.91973" lon="0.11726">
        <ele>2050.4</ele>
        <time>2020-02-09T12:45:01.000Z</time>
      </trkpt>
      <trkpt lat="42.91958" lon="0.11727">
        <ele>2048</ele>
        <time>2020-02-09T12:45:03.000Z</time>
      </trkpt>
      <trkpt lat="42.91948" lon="0.11732">
        <ele>2046.7</ele>
        <time>2020-02-09T12:45:05.000Z</time>
      </trkpt>
      <trkpt lat="42.91936" lon="0.11728">
        <ele>2045.2</ele>
        <time>2020-02-09T12:45:07.000Z</time>
      </trkpt>
      <trkpt lat="42.91931" lon="0.11727">
        <ele>2044.6</ele>
        <time>2020-02-09T12:45:08.000Z</time>
      </trkpt>
      <trkpt lat="42.91926" lon="0.11729">
        <ele>2044.1</ele>
        <time>2020-02-09T12:45:09.000Z</time>
      </trkpt>
      <trkpt lat="42.91915" lon="0.11733">
        <ele>2043</ele>
        <time>2020-02-09T12:45:11.000Z</time>
      </trkpt>
      <trkpt lat="42.91911" lon="0.11737">
        <ele>2042.4</ele>
        <time>2020-02-09T12:45:13.000Z</time>
      </trkpt>
      <trkpt lat="42.91911" lon="0.11742">
        <ele>2041.9</ele>
        <time>2020-02-09T12:45:14.000Z</time>
      </trkpt>
      <trkpt lat="42.91908" lon="0.11745">
        <ele>2041.5</ele>
        <time>2020-02-09T12:45:16.000Z</time>
      </trkpt>
      <trkpt lat="42.9191" lon="0.11744">
        <ele>2041.2</ele>
        <time>2020-02-09T12:45:22.000Z</time>
      </trkpt>
      <trkpt lat="42.91906" lon="0.11741">
        <ele>2040.8</ele>
        <time>2020-02-09T12:46:04.000Z</time>
      </trkpt>
      <trkpt lat="42.91908" lon="0.11747">
        <ele>2040.1</ele>
        <time>2020-02-09T12:46:07.000Z</time>
      </trkpt>
      <trkpt lat="42.91897" lon="0.11754">
        <ele>2038.6</ele>
        <time>2020-02-09T12:46:09.000Z</time>
      </trkpt>
      <trkpt lat="42.91889" lon="0.11761">
        <ele>2037.3</ele>
        <time>2020-02-09T12:46:11.000Z</time>
      </trkpt>
      <trkpt lat="42.91878" lon="0.11755">
        <ele>2035.5</ele>
        <time>2020-02-09T12:46:13.000Z</time>
      </trkpt>
      <trkpt lat="42.91871" lon="0.11755">
        <ele>2034.4</ele>
        <time>2020-02-09T12:46:14.000Z</time>
      </trkpt>
      <trkpt lat="42.91859" lon="0.11757">
        <ele>2033.2</ele>
        <time>2020-02-09T12:46:16.000Z</time>
      </trkpt>
      <trkpt lat="42.91852" lon="0.11764">
        <ele>2031.6</ele>
        <time>2020-02-09T12:46:18.000Z</time>
      </trkpt>
      <trkpt lat="42.91848" lon="0.11769">
        <ele>2031</ele>
        <time>2020-02-09T12:46:19.000Z</time>
      </trkpt>
      <trkpt lat="42.91841" lon="0.11778">
        <ele>2030</ele>
        <time>2020-02-09T12:46:21.000Z</time>
      </trkpt>
      <trkpt lat="42.91843" lon="0.11787">
        <ele>2029.5</ele>
        <time>2020-02-09T12:46:23.000Z</time>
      </trkpt>
      <trkpt lat="42.91844" lon="0.11794">
        <ele>2028.9</ele>
        <time>2020-02-09T12:46:24.000Z</time>
      </trkpt>
      <trkpt lat="42.91845" lon="0.11807">
        <ele>2028.3</ele>
        <time>2020-02-09T12:46:26.000Z</time>
      </trkpt>
      <trkpt lat="42.91848" lon="0.11797">
        <ele>2030.4</ele>
        <time>2020-02-09T12:46:28.000Z</time>
      </trkpt>
      <trkpt lat="42.9185" lon="0.11792">
        <ele>2031.2</ele>
        <time>2020-02-09T12:46:29.000Z</time>
      </trkpt>
      <trkpt lat="42.91854" lon="0.11793">
        <ele>2031.8</ele>
        <time>2020-02-09T12:46:32.000Z</time>
      </trkpt>
      <trkpt lat="42.91832" lon="0.11845">
        <ele>2032.4</ele>
        <time>2020-02-09T12:46:38.000Z</time>
      </trkpt>
      <trkpt lat="42.9182" lon="0.11863">
        <ele>2032.1</ele>
        <time>2020-02-09T12:46:40.000Z</time>
      </trkpt>
      <trkpt lat="42.91809" lon="0.11875">
        <ele>2030.8</ele>
        <time>2020-02-09T12:46:42.000Z</time>
      </trkpt>
      <trkpt lat="42.91804" lon="0.1188">
        <ele>2031.3</ele>
        <time>2020-02-09T12:46:43.000Z</time>
      </trkpt>
      <trkpt lat="42.918" lon="0.11883">
        <ele>2031.3</ele>
        <time>2020-02-09T12:46:44.000Z</time>
      </trkpt>
      <trkpt lat="42.91792" lon="0.11889">
        <ele>2031.2</ele>
        <time>2020-02-09T12:46:46.000Z</time>
      </trkpt>
      <trkpt lat="42.91796" lon="0.11887">
        <ele>2030.8</ele>
        <time>2020-02-09T12:46:49.000Z</time>
      </trkpt>
      <trkpt lat="42.918" lon="0.11888">
        <ele>2030.2</ele>
        <time>2020-02-09T12:46:51.000Z</time>
      </trkpt>
      <trkpt lat="42.91799" lon="0.11895">
        <ele>2029.4</ele>
        <time>2020-02-09T12:46:52.000Z</time>
      </trkpt>
      <trkpt lat="42.91792" lon="0.11902">
        <ele>2027.2</ele>
        <time>2020-02-09T12:46:55.000Z</time>
      </trkpt>
      <trkpt lat="42.91787" lon="0.11904">
        <ele>2027.3</ele>
        <time>2020-02-09T12:46:56.000Z</time>
      </trkpt>
      <trkpt lat="42.91783" lon="0.11906">
        <ele>2027.9</ele>
        <time>2020-02-09T12:46:57.000Z</time>
      </trkpt>
      <trkpt lat="42.9178" lon="0.11906">
        <ele>2028.2</ele>
        <time>2020-02-09T12:46:58.000Z</time>
      </trkpt>
      <trkpt lat="42.91776" lon="0.11907">
        <ele>2027.7</ele>
        <time>2020-02-09T12:47:00.000Z</time>
      </trkpt>
      <trkpt lat="42.91772" lon="0.11905">
        <ele>2027.1</ele>
        <time>2020-02-09T12:47:02.000Z</time>
      </trkpt>
      <trkpt lat="42.91769" lon="0.11904">
        <ele>2027</ele>
        <time>2020-02-09T12:47:03.000Z</time>
      </trkpt>
      <trkpt lat="42.91766" lon="0.11908">
        <ele>2027</ele>
        <time>2020-02-09T12:47:05.000Z</time>
      </trkpt>
      <trkpt lat="42.91763" lon="0.11912">
        <ele>2027</ele>
        <time>2020-02-09T12:47:07.000Z</time>
      </trkpt>
      <trkpt lat="42.91759" lon="0.11914">
        <ele>2027</ele>
        <time>2020-02-09T12:47:09.000Z</time>
      </trkpt>
      <trkpt lat="42.91758" lon="0.1192">
        <ele>2027.1</ele>
        <time>2020-02-09T12:47:11.000Z</time>
      </trkpt>
      <trkpt lat="42.91756" lon="0.11923">
        <ele>2027.5</ele>
        <time>2020-02-09T12:47:15.000Z</time>
      </trkpt>
      <trkpt lat="42.91753" lon="0.11922">
        <ele>2027.4</ele>
        <time>2020-02-09T12:47:16.000Z</time>
      </trkpt>
      <trkpt lat="42.91733" lon="0.11907">
        <ele>2013.1</ele>
        <time>2020-02-09T12:47:21.000Z</time>
      </trkpt>
      <trkpt lat="42.91725" lon="0.11896">
        <ele>2007.3</ele>
        <time>2020-02-09T12:47:22.000Z</time>
      </trkpt>
      <trkpt lat="42.91718" lon="0.11883">
        <ele>2002.7</ele>
        <time>2020-02-09T12:47:23.000Z</time>
      </trkpt>
      <trkpt lat="42.91709" lon="0.11863">
        <ele>1995.3</ele>
        <time>2020-02-09T12:47:25.000Z</time>
      </trkpt>
      <trkpt lat="42.91706" lon="0.11854">
        <ele>1992.9</ele>
        <time>2020-02-09T12:47:26.000Z</time>
      </trkpt>
      <trkpt lat="42.91703" lon="0.11836">
        <ele>1989.5</ele>
        <time>2020-02-09T12:47:28.000Z</time>
      </trkpt>
      <trkpt lat="42.917" lon="0.11822">
        <ele>1986.8</ele>
        <time>2020-02-09T12:47:30.000Z</time>
      </trkpt>
      <trkpt lat="42.91698" lon="0.11816">
        <ele>1984.6</ele>
        <time>2020-02-09T12:47:31.000Z</time>
      </trkpt>
      <trkpt lat="42.91697" lon="0.11811">
        <ele>1984.1</ele>
        <time>2020-02-09T12:47:32.000Z</time>
      </trkpt>
      <trkpt lat="42.91694" lon="0.11807">
        <ele>1981.9</ele>
        <time>2020-02-09T12:47:33.000Z</time>
      </trkpt>
      <trkpt lat="42.91692" lon="0.11803">
        <ele>1979.6</ele>
        <time>2020-02-09T12:47:34.000Z</time>
      </trkpt>
      <trkpt lat="42.91688" lon="0.11799">
        <ele>1977.5</ele>
        <time>2020-02-09T12:47:36.000Z</time>
      </trkpt>
      <trkpt lat="42.9169" lon="0.11794">
        <ele>1978.7</ele>
        <time>2020-02-09T12:47:38.000Z</time>
      </trkpt>
      <trkpt lat="42.91675" lon="0.11802">
        <ele>1972</ele>
        <time>2020-02-09T12:47:40.000Z</time>
      </trkpt>
      <trkpt lat="42.91657" lon="0.11813">
        <ele>1963.5</ele>
        <time>2020-02-09T12:47:42.000Z</time>
      </trkpt>
      <trkpt lat="42.91648" lon="0.11819">
        <ele>1959.5</ele>
        <time>2020-02-09T12:47:43.000Z</time>
      </trkpt>
      <trkpt lat="42.91642" lon="0.11823">
        <ele>1957.6</ele>
        <time>2020-02-09T12:47:44.000Z</time>
      </trkpt>
      <trkpt lat="42.91639" lon="0.11829">
        <ele>1956.6</ele>
        <time>2020-02-09T12:47:45.000Z</time>
      </trkpt>
      <trkpt lat="42.91646" lon="0.11831">
        <ele>1961.1</ele>
        <time>2020-02-09T12:47:47.000Z</time>
      </trkpt>
      <trkpt lat="42.91655" lon="0.1183">
        <ele>1963.9</ele>
        <time>2020-02-09T12:47:50.000Z</time>
      </trkpt>
      <trkpt lat="42.91659" lon="0.11831">
        <ele>1966.7</ele>
        <time>2020-02-09T12:47:52.000Z</time>
      </trkpt>
      <trkpt lat="42.91655" lon="0.1183">
        <ele>1963.8</ele>
        <time>2020-02-09T12:47:54.000Z</time>
      </trkpt>
      <trkpt lat="42.91648" lon="0.11831">
        <ele>1960.8</ele>
        <time>2020-02-09T12:47:57.000Z</time>
      </trkpt>
      <trkpt lat="42.91645" lon="0.11833">
        <ele>1959.8</ele>
        <time>2020-02-09T12:48:00.000Z</time>
      </trkpt>
      <trkpt lat="42.91641" lon="0.11834">
        <ele>1958.3</ele>
        <time>2020-02-09T12:48:03.000Z</time>
      </trkpt>
      <trkpt lat="42.91638" lon="0.11835">
        <ele>1956.7</ele>
        <time>2020-02-09T12:48:07.000Z</time>
      </trkpt>
      <trkpt lat="42.91635" lon="0.11837">
        <ele>1955.7</ele>
        <time>2020-02-09T12:48:08.000Z</time>
      </trkpt>
      <trkpt lat="42.9163" lon="0.1184">
        <ele>1952.7</ele>
        <time>2020-02-09T12:48:09.000Z</time>
      </trkpt>
      <trkpt lat="42.91624" lon="0.11844">
        <ele>1950.6</ele>
        <time>2020-02-09T12:48:11.000Z</time>
      </trkpt>
      <trkpt lat="42.91621" lon="0.11842">
        <ele>1950.5</ele>
        <time>2020-02-09T12:48:39.000Z</time>
      </trkpt>
      <trkpt lat="42.91612" lon="0.11843">
        <ele>1945.6</ele>
        <time>2020-02-09T12:48:43.000Z</time>
      </trkpt>
      <trkpt lat="42.91609" lon="0.11845">
        <ele>1944.7</ele>
        <time>2020-02-09T12:48:44.000Z</time>
      </trkpt>
      <trkpt lat="42.91606" lon="0.1185">
        <ele>1943.9</ele>
        <time>2020-02-09T12:48:45.000Z</time>
      </trkpt>
      <trkpt lat="42.91606" lon="0.11855">
        <ele>1944.6</ele>
        <time>2020-02-09T12:48:46.000Z</time>
      </trkpt>
      <trkpt lat="42.91606" lon="0.11864">
        <ele>1946.3</ele>
        <time>2020-02-09T12:48:48.000Z</time>
      </trkpt>
      <trkpt lat="42.91605" lon="0.11869">
        <ele>1945.8</ele>
        <time>2020-02-09T12:48:50.000Z</time>
      </trkpt>
      <trkpt lat="42.91604" lon="0.11877">
        <ele>1947.5</ele>
        <time>2020-02-09T12:48:51.000Z</time>
      </trkpt>
      <trkpt lat="42.91601" lon="0.11874">
        <ele>1945.3</ele>
        <time>2020-02-09T12:48:53.000Z</time>
      </trkpt>
      <trkpt lat="42.91606" lon="0.11874">
        <ele>1947.9</ele>
        <time>2020-02-09T12:48:55.000Z</time>
      </trkpt>
      <trkpt lat="42.91595" lon="0.11895">
        <ele>1947.5</ele>
        <time>2020-02-09T12:48:57.000Z</time>
      </trkpt>
      <trkpt lat="42.91588" lon="0.11904">
        <ele>1946.8</ele>
        <time>2020-02-09T12:48:58.000Z</time>
      </trkpt>
      <trkpt lat="42.91576" lon="0.11915">
        <ele>1944.1</ele>
        <time>2020-02-09T12:49:00.000Z</time>
      </trkpt>
      <trkpt lat="42.91566" lon="0.11927">
        <ele>1943.4</ele>
        <time>2020-02-09T12:49:02.000Z</time>
      </trkpt>
      <trkpt lat="42.91556" lon="0.11938">
        <ele>1941</ele>
        <time>2020-02-09T12:49:04.000Z</time>
      </trkpt>
      <trkpt lat="42.9155" lon="0.11944">
        <ele>1940.3</ele>
        <time>2020-02-09T12:49:05.000Z</time>
      </trkpt>
      <trkpt lat="42.91545" lon="0.11949">
        <ele>1940.2</ele>
        <time>2020-02-09T12:49:06.000Z</time>
      </trkpt>
      <trkpt lat="42.9154" lon="0.11948">
        <ele>1936.6</ele>
        <time>2020-02-09T12:49:09.000Z</time>
      </trkpt>
      <trkpt lat="42.91542" lon="0.11949">
        <ele>1938.8</ele>
        <time>2020-02-09T12:49:22.000Z</time>
      </trkpt>
      <trkpt lat="42.91539" lon="0.11953">
        <ele>1937.4</ele>
        <time>2020-02-09T12:49:28.000Z</time>
      </trkpt>
      <trkpt lat="42.91536" lon="0.11957">
        <ele>1938.5</ele>
        <time>2020-02-09T12:49:41.000Z</time>
      </trkpt>
      <trkpt lat="42.91533" lon="0.11961">
        <ele>1937</ele>
        <time>2020-02-09T12:49:44.000Z</time>
      </trkpt>
      <trkpt lat="42.91525" lon="0.11955">
        <ele>1931.5</ele>
        <time>2020-02-09T12:49:46.000Z</time>
      </trkpt>
      <trkpt lat="42.91516" lon="0.11936">
        <ele>1923.9</ele>
        <time>2020-02-09T12:49:48.000Z</time>
      </trkpt>
      <trkpt lat="42.91514" lon="0.11927">
        <ele>1921.1</ele>
        <time>2020-02-09T12:49:49.000Z</time>
      </trkpt>
      <trkpt lat="42.9151" lon="0.1192">
        <ele>1918.2</ele>
        <time>2020-02-09T12:49:50.000Z</time>
      </trkpt>
      <trkpt lat="42.91504" lon="0.11911">
        <ele>1915</ele>
        <time>2020-02-09T12:49:52.000Z</time>
      </trkpt>
      <trkpt lat="42.91502" lon="0.11905">
        <ele>1912</ele>
        <time>2020-02-09T12:49:53.000Z</time>
      </trkpt>
      <trkpt lat="42.91504" lon="0.119">
        <ele>1911.2</ele>
        <time>2020-02-09T12:49:55.000Z</time>
      </trkpt>
      <trkpt lat="42.91508" lon="0.1191">
        <ele>1916.2</ele>
        <time>2020-02-09T12:49:56.000Z</time>
      </trkpt>
      <trkpt lat="42.91513" lon="0.11923">
        <ele>1920</ele>
        <time>2020-02-09T12:49:57.000Z</time>
      </trkpt>
      <trkpt lat="42.91519" lon="0.11934">
        <ele>1924</ele>
        <time>2020-02-09T12:49:58.000Z</time>
      </trkpt>
      <trkpt lat="42.915" lon="0.11912">
        <ele>1911.9</ele>
        <time>2020-02-09T12:50:00.000Z</time>
      </trkpt>
      <trkpt lat="42.91491" lon="0.11903">
        <ele>1906.1</ele>
        <time>2020-02-09T12:50:01.000Z</time>
      </trkpt>
      <trkpt lat="42.91486" lon="0.119">
        <ele>1904.2</ele>
        <time>2020-02-09T12:50:03.000Z</time>
      </trkpt>
      <trkpt lat="42.91482" lon="0.11897">
        <ele>1901.7</ele>
        <time>2020-02-09T12:50:04.000Z</time>
      </trkpt>
      <trkpt lat="42.91479" lon="0.11895">
        <ele>1899.8</ele>
        <time>2020-02-09T12:50:05.000Z</time>
      </trkpt>
      <trkpt lat="42.91475" lon="0.11891">
        <ele>1897.9</ele>
        <time>2020-02-09T12:50:07.000Z</time>
      </trkpt>
      <trkpt lat="42.91464" lon="0.11887">
        <ele>1892.9</ele>
        <time>2020-02-09T12:50:09.000Z</time>
      </trkpt>
      <trkpt lat="42.91457" lon="0.11885">
        <ele>1890.4</ele>
        <time>2020-02-09T12:50:11.000Z</time>
      </trkpt>
      <trkpt lat="42.91447" lon="0.11882">
        <ele>1884.5</ele>
        <time>2020-02-09T12:50:13.000Z</time>
      </trkpt>
      <trkpt lat="42.91439" lon="0.1187">
        <ele>1880.1</ele>
        <time>2020-02-09T12:50:14.000Z</time>
      </trkpt>
      <trkpt lat="42.91438" lon="0.11866">
        <ele>1878.7</ele>
        <time>2020-02-09T12:50:15.000Z</time>
      </trkpt>
      <trkpt lat="42.91437" lon="0.11863">
        <ele>1878.2</ele>
        <time>2020-02-09T12:50:16.000Z</time>
      </trkpt>
      <trkpt lat="42.91427" lon="0.11865">
        <ele>1874.5</ele>
        <time>2020-02-09T12:50:18.000Z</time>
      </trkpt>
      <trkpt lat="42.91424" lon="0.11867">
        <ele>1873.5</ele>
        <time>2020-02-09T12:50:20.000Z</time>
      </trkpt>
      <trkpt lat="42.91422" lon="0.11862">
        <ele>1871.4</ele>
        <time>2020-02-09T12:50:21.000Z</time>
      </trkpt>
      <trkpt lat="42.91419" lon="0.11862">
        <ele>1870.1</ele>
        <time>2020-02-09T12:50:22.000Z</time>
      </trkpt>
      <trkpt lat="42.91412" lon="0.11851">
        <ele>1866.7</ele>
        <time>2020-02-09T12:50:24.000Z</time>
      </trkpt>
      <trkpt lat="42.91409" lon="0.11843">
        <ele>1865.2</ele>
        <time>2020-02-09T12:50:25.000Z</time>
      </trkpt>
      <trkpt lat="42.91406" lon="0.11835">
        <ele>1863.7</ele>
        <time>2020-02-09T12:50:26.000Z</time>
      </trkpt>
      <trkpt lat="42.91402" lon="0.1183">
        <ele>1862.4</ele>
        <time>2020-02-09T12:50:27.000Z</time>
      </trkpt>
      <trkpt lat="42.91397" lon="0.11827">
        <ele>1859.9</ele>
        <time>2020-02-09T12:50:29.000Z</time>
      </trkpt>
      <trkpt lat="42.9139" lon="0.1184">
        <ele>1857.6</ele>
        <time>2020-02-09T12:50:31.000Z</time>
      </trkpt>
      <trkpt lat="42.91394" lon="0.11838">
        <ele>1858.8</ele>
        <time>2020-02-09T12:50:33.000Z</time>
      </trkpt>
      <trkpt lat="42.91376" lon="0.11827">
        <ele>1852.8</ele>
        <time>2020-02-09T12:50:35.000Z</time>
      </trkpt>
      <trkpt lat="42.9137" lon="0.11821">
        <ele>1850.6</ele>
        <time>2020-02-09T12:50:36.000Z</time>
      </trkpt>
      <trkpt lat="42.91364" lon="0.11815">
        <ele>1848.4</ele>
        <time>2020-02-09T12:50:37.000Z</time>
      </trkpt>
      <trkpt lat="42.91352" lon="0.11807">
        <ele>1844.4</ele>
        <time>2020-02-09T12:50:39.000Z</time>
      </trkpt>
      <trkpt lat="42.91349" lon="0.11801">
        <ele>1843.9</ele>
        <time>2020-02-09T12:50:40.000Z</time>
      </trkpt>
      <trkpt lat="42.91343" lon="0.11805">
        <ele>1841.9</ele>
        <time>2020-02-09T12:50:45.000Z</time>
      </trkpt>
      <trkpt lat="42.91337" lon="0.11809">
        <ele>1839.9</ele>
        <time>2020-02-09T12:50:47.000Z</time>
      </trkpt>
      <trkpt lat="42.91334" lon="0.11813">
        <ele>1838.6</ele>
        <time>2020-02-09T12:50:49.000Z</time>
      </trkpt>
      <trkpt lat="42.91333" lon="0.11817">
        <ele>1838.3</ele>
        <time>2020-02-09T12:50:54.000Z</time>
      </trkpt>
      <trkpt lat="42.91336" lon="0.11818">
        <ele>1839.2</ele>
        <time>2020-02-09T12:51:04.000Z</time>
      </trkpt>
      <trkpt lat="42.91331" lon="0.11819">
        <ele>1837.2</ele>
        <time>2020-02-09T12:52:08.000Z</time>
      </trkpt>
      <trkpt lat="42.91326" lon="0.11818">
        <ele>1836.2</ele>
        <time>2020-02-09T12:52:10.000Z</time>
      </trkpt>
      <trkpt lat="42.91323" lon="0.11819">
        <ele>1835</ele>
        <time>2020-02-09T12:52:12.000Z</time>
      </trkpt>
      <trkpt lat="42.91322" lon="0.11825">
        <ele>1833.8</ele>
        <time>2020-02-09T12:52:14.000Z</time>
      </trkpt>
      <trkpt lat="42.91319" lon="0.11832">
        <ele>1833.1</ele>
        <time>2020-02-09T12:52:15.000Z</time>
      </trkpt>
      <trkpt lat="42.91318" lon="0.11835">
        <ele>1832.2</ele>
        <time>2020-02-09T12:52:17.000Z</time>
      </trkpt>
      <trkpt lat="42.91316" lon="0.11842">
        <ele>1831.4</ele>
        <time>2020-02-09T12:52:19.000Z</time>
      </trkpt>
      <trkpt lat="42.91311" lon="0.11845">
        <ele>1829.1</ele>
        <time>2020-02-09T12:52:20.000Z</time>
      </trkpt>
      <trkpt lat="42.91307" lon="0.11848">
        <ele>1827.9</ele>
        <time>2020-02-09T12:52:23.000Z</time>
      </trkpt>
      <trkpt lat="42.91305" lon="0.11852">
        <ele>1826.3</ele>
        <time>2020-02-09T12:52:26.000Z</time>
      </trkpt>
      <trkpt lat="42.91302" lon="0.11852">
        <ele>1825.1</ele>
        <time>2020-02-09T12:52:27.000Z</time>
      </trkpt>
      <trkpt lat="42.91294" lon="0.11855">
        <ele>1822.3</ele>
        <time>2020-02-09T12:52:31.000Z</time>
      </trkpt>
      <trkpt lat="42.91289" lon="0.11858">
        <ele>1819.5</ele>
        <time>2020-02-09T12:52:32.000Z</time>
      </trkpt>
      <trkpt lat="42.91288" lon="0.11862">
        <ele>1818.8</ele>
        <time>2020-02-09T12:52:34.000Z</time>
      </trkpt>
      <trkpt lat="42.91288" lon="0.11866">
        <ele>1818.7</ele>
        <time>2020-02-09T12:52:35.000Z</time>
      </trkpt>
      <trkpt lat="42.91286" lon="0.11873">
        <ele>1815.9</ele>
        <time>2020-02-09T12:52:36.000Z</time>
      </trkpt>
      <trkpt lat="42.91279" lon="0.11874">
        <ele>1812.8</ele>
        <time>2020-02-09T12:52:39.000Z</time>
      </trkpt>
      <trkpt lat="42.91275" lon="0.11876">
        <ele>1810.5</ele>
        <time>2020-02-09T12:52:41.000Z</time>
      </trkpt>
      <trkpt lat="42.91275" lon="0.11886">
        <ele>1807.6</ele>
        <time>2020-02-09T12:52:44.000Z</time>
      </trkpt>
      <trkpt lat="42.91282" lon="0.11894">
        <ele>1811</ele>
        <time>2020-02-09T12:52:47.000Z</time>
      </trkpt>
      <trkpt lat="42.91286" lon="0.11897">
        <ele>1811.9</ele>
        <time>2020-02-09T12:52:52.000Z</time>
      </trkpt>
      <trkpt lat="42.9129" lon="0.11899">
        <ele>1813.3</ele>
        <time>2020-02-09T12:52:53.000Z</time>
      </trkpt>
      <trkpt lat="42.91297" lon="0.11909">
        <ele>1814.8</ele>
        <time>2020-02-09T12:52:55.000Z</time>
      </trkpt>
      <trkpt lat="42.91293" lon="0.11915">
        <ele>1812.7</ele>
        <time>2020-02-09T12:52:57.000Z</time>
      </trkpt>
      <trkpt lat="42.91285" lon="0.11921">
        <ele>1809.8</ele>
        <time>2020-02-09T12:52:58.000Z</time>
      </trkpt>
      <trkpt lat="42.91282" lon="0.11924">
        <ele>1808.1</ele>
        <time>2020-02-09T12:53:00.000Z</time>
      </trkpt>
      <trkpt lat="42.91276" lon="0.11928">
        <ele>1805.1</ele>
        <time>2020-02-09T12:53:01.000Z</time>
      </trkpt>
      <trkpt lat="42.91269" lon="0.11929">
        <ele>1802.4</ele>
        <time>2020-02-09T12:53:03.000Z</time>
      </trkpt>
      <trkpt lat="42.91265" lon="0.11929">
        <ele>1799.9</ele>
        <time>2020-02-09T12:53:04.000Z</time>
      </trkpt>
      <trkpt lat="42.91262" lon="0.11929">
        <ele>1798.5</ele>
        <time>2020-02-09T12:53:05.000Z</time>
      </trkpt>
      <trkpt lat="42.91258" lon="0.11929">
        <ele>1797.1</ele>
        <time>2020-02-09T12:53:07.000Z</time>
      </trkpt>
      <trkpt lat="42.91254" lon="0.1193">
        <ele>1795.7</ele>
        <time>2020-02-09T12:53:10.000Z</time>
      </trkpt>
      <trkpt lat="42.9125" lon="0.11932">
        <ele>1794.2</ele>
        <time>2020-02-09T12:53:12.000Z</time>
      </trkpt>
      <trkpt lat="42.91247" lon="0.11934">
        <ele>1792.8</ele>
        <time>2020-02-09T12:53:14.000Z</time>
      </trkpt>
      <trkpt lat="42.91245" lon="0.11935">
        <ele>1791.4</ele>
        <time>2020-02-09T12:53:18.000Z</time>
      </trkpt>
      <trkpt lat="42.91241" lon="0.11936">
        <ele>1790.1</ele>
        <time>2020-02-09T12:53:32.000Z</time>
      </trkpt>
      <trkpt lat="42.9124" lon="0.11941">
        <ele>1788.8</ele>
        <time>2020-02-09T12:53:42.000Z</time>
      </trkpt>
      <trkpt lat="42.91242" lon="0.11944">
        <ele>1790.1</ele>
        <time>2020-02-09T12:53:45.000Z</time>
      </trkpt>
      <trkpt lat="42.91241" lon="0.11948">
        <ele>1790.1</ele>
        <time>2020-02-09T12:53:47.000Z</time>
      </trkpt>
      <trkpt lat="42.91238" lon="0.11951">
        <ele>1789</ele>
        <time>2020-02-09T12:53:50.000Z</time>
      </trkpt>
      <trkpt lat="42.91234" lon="0.11954">
        <ele>1786.9</ele>
        <time>2020-02-09T12:53:51.000Z</time>
      </trkpt>
      <trkpt lat="42.91229" lon="0.11958">
        <ele>1786</ele>
        <time>2020-02-09T12:53:54.000Z</time>
      </trkpt>
      <trkpt lat="42.91226" lon="0.11959">
        <ele>1784.8</ele>
        <time>2020-02-09T12:53:55.000Z</time>
      </trkpt>
      <trkpt lat="42.91223" lon="0.11963">
        <ele>1783.9</ele>
        <time>2020-02-09T12:53:57.000Z</time>
      </trkpt>
      <trkpt lat="42.9122" lon="0.11965">
        <ele>1783</ele>
        <time>2020-02-09T12:53:59.000Z</time>
      </trkpt>
      <trkpt lat="42.91215" lon="0.11967">
        <ele>1780.8</ele>
        <time>2020-02-09T12:54:02.000Z</time>
      </trkpt>
      <trkpt lat="42.91212" lon="0.11968">
        <ele>1780.7</ele>
        <time>2020-02-09T12:54:03.000Z</time>
      </trkpt>
      <trkpt lat="42.91208" lon="0.11967">
        <ele>1778.8</ele>
        <time>2020-02-09T12:54:05.000Z</time>
      </trkpt>
      <trkpt lat="42.91203" lon="0.11969">
        <ele>1777.1</ele>
        <time>2020-02-09T12:54:08.000Z</time>
      </trkpt>
      <trkpt lat="42.91199" lon="0.11967">
        <ele>1776.1</ele>
        <time>2020-02-09T12:54:30.000Z</time>
      </trkpt>
      <trkpt lat="42.91196" lon="0.11968">
        <ele>1775.2</ele>
        <time>2020-02-09T12:54:31.000Z</time>
      </trkpt>
      <trkpt lat="42.91192" lon="0.11968">
        <ele>1774.2</ele>
        <time>2020-02-09T12:54:32.000Z</time>
      </trkpt>
      <trkpt lat="42.91181" lon="0.11974">
        <ele>1772.8</ele>
        <time>2020-02-09T12:54:34.000Z</time>
      </trkpt>
      <trkpt lat="42.91177" lon="0.11977">
        <ele>1771.5</ele>
        <time>2020-02-09T12:54:35.000Z</time>
      </trkpt>
      <trkpt lat="42.91176" lon="0.11973">
        <ele>1771</ele>
        <time>2020-02-09T12:54:37.000Z</time>
      </trkpt>
      <trkpt lat="42.91173" lon="0.11975">
        <ele>1770.7</ele>
        <time>2020-02-09T12:54:42.000Z</time>
      </trkpt>
      <trkpt lat="42.9117" lon="0.11977">
        <ele>1769.9</ele>
        <time>2020-02-09T12:54:46.000Z</time>
      </trkpt>
      <trkpt lat="42.91167" lon="0.1198">
        <ele>1769.6</ele>
        <time>2020-02-09T12:54:51.000Z</time>
      </trkpt>
      <trkpt lat="42.91164" lon="0.11982">
        <ele>1769.3</ele>
        <time>2020-02-09T12:54:56.000Z</time>
      </trkpt>
      <trkpt lat="42.91162" lon="0.11985">
        <ele>1769.3</ele>
        <time>2020-02-09T12:55:02.000Z</time>
      </trkpt>
      <trkpt lat="42.91161" lon="0.11989">
        <ele>1769.1</ele>
        <time>2020-02-09T12:55:18.000Z</time>
      </trkpt>
      <trkpt lat="42.9116" lon="0.11993">
        <ele>1769.7</ele>
        <time>2020-02-09T12:55:23.000Z</time>
      </trkpt>
      <trkpt lat="42.9116" lon="0.11997">
        <ele>1770.4</ele>
        <time>2020-02-09T12:55:28.000Z</time>
      </trkpt>
      <trkpt lat="42.91161" lon="0.12002">
        <ele>1771.1</ele>
        <time>2020-02-09T12:55:36.000Z</time>
      </trkpt>
      <trkpt lat="42.9116" lon="0.12005">
        <ele>1771.9</ele>
        <time>2020-02-09T12:55:41.000Z</time>
      </trkpt>
      <trkpt lat="42.9116" lon="0.12009">
        <ele>1772.7</ele>
        <time>2020-02-09T12:55:47.000Z</time>
      </trkpt>
      <trkpt lat="42.91158" lon="0.12006">
        <ele>1771.2</ele>
        <time>2020-02-09T12:55:58.000Z</time>
      </trkpt>
      <trkpt lat="42.91155" lon="0.12008">
        <ele>1771.5</ele>
        <time>2020-02-09T12:56:16.000Z</time>
      </trkpt>
      <trkpt lat="42.91154" lon="0.12005">
        <ele>1770.5</ele>
        <time>2020-02-09T12:56:22.000Z</time>
      </trkpt>
      <trkpt lat="42.91151" lon="0.12003">
        <ele>1769.1</ele>
        <time>2020-02-09T12:56:27.000Z</time>
      </trkpt>
      <trkpt lat="42.91149" lon="0.12001">
        <ele>1768.5</ele>
        <time>2020-02-09T12:56:33.000Z</time>
      </trkpt>
      <trkpt lat="42.9115" lon="0.11997">
        <ele>1768.1</ele>
        <time>2020-02-09T12:56:39.000Z</time>
      </trkpt>
      <trkpt lat="42.91153" lon="0.11996">
        <ele>1768.6</ele>
        <time>2020-02-09T12:56:43.000Z</time>
      </trkpt>
      <trkpt lat="42.91155" lon="0.11994">
        <ele>1767.8</ele>
        <time>2020-02-09T12:57:07.000Z</time>
      </trkpt>
      <trkpt lat="42.91154" lon="0.11998">
        <ele>1768.5</ele>
        <time>2020-02-09T12:57:15.000Z</time>
      </trkpt>
      <trkpt lat="42.91151" lon="0.12">
        <ele>1768.7</ele>
        <time>2020-02-09T12:57:19.000Z</time>
      </trkpt>
      <trkpt lat="42.91149" lon="0.12002">
        <ele>1768.1</ele>
        <time>2020-02-09T12:57:28.000Z</time>
      </trkpt>
      <trkpt lat="42.91146" lon="0.12004">
        <ele>1768.9</ele>
        <time>2020-02-09T12:57:33.000Z</time>
      </trkpt>
      <trkpt lat="42.91145" lon="0.12008">
        <ele>1769.2</ele>
        <time>2020-02-09T12:57:40.000Z</time>
      </trkpt>
      <trkpt lat="42.91141" lon="0.1201">
        <ele>1768.7</ele>
        <time>2020-02-09T12:57:44.000Z</time>
      </trkpt>
      <trkpt lat="42.91137" lon="0.12008">
        <ele>1768.1</ele>
        <time>2020-02-09T12:57:47.000Z</time>
      </trkpt>
      <trkpt lat="42.91126" lon="0.12003">
        <ele>1764.8</ele>
        <time>2020-02-09T12:57:49.000Z</time>
      </trkpt>
      <trkpt lat="42.91132" lon="0.12005">
        <ele>1766.3</ele>
        <time>2020-02-09T12:57:51.000Z</time>
      </trkpt>
      <trkpt lat="42.91136" lon="0.12008">
        <ele>1766.6</ele>
        <time>2020-02-09T12:57:53.000Z</time>
      </trkpt>
      <trkpt lat="42.91128" lon="0.12003">
        <ele>1764.9</ele>
        <time>2020-02-09T12:57:54.000Z</time>
      </trkpt>
      <trkpt lat="42.91114" lon="0.11996">
        <ele>1762.9</ele>
        <time>2020-02-09T12:57:56.000Z</time>
      </trkpt>
      <trkpt lat="42.91106" lon="0.11992">
        <ele>1761.7</ele>
        <time>2020-02-09T12:57:57.000Z</time>
      </trkpt>
      <trkpt lat="42.91101" lon="0.1199">
        <ele>1760.5</ele>
        <time>2020-02-09T12:57:59.000Z</time>
      </trkpt>
      <trkpt lat="42.91093" lon="0.11984">
        <ele>1759.4</ele>
        <time>2020-02-09T12:58:01.000Z</time>
      </trkpt>
      <trkpt lat="42.91091" lon="0.11981">
        <ele>1758.3</ele>
        <time>2020-02-09T12:58:03.000Z</time>
      </trkpt>
      <trkpt lat="42.91088" lon="0.11978">
        <ele>1758.2</ele>
        <time>2020-02-09T12:58:04.000Z</time>
      </trkpt>
      <trkpt lat="42.91084" lon="0.11974">
        <ele>1757.2</ele>
        <time>2020-02-09T12:58:08.000Z</time>
      </trkpt>
      <trkpt lat="42.91081" lon="0.11973">
        <ele>1757</ele>
        <time>2020-02-09T12:58:10.000Z</time>
      </trkpt>
      <trkpt lat="42.91078" lon="0.1197">
        <ele>1756</ele>
        <time>2020-02-09T12:58:13.000Z</time>
      </trkpt>
      <trkpt lat="42.91075" lon="0.1197">
        <ele>1755.8</ele>
        <time>2020-02-09T12:58:14.000Z</time>
      </trkpt>
      <trkpt lat="42.91072" lon="0.1197">
        <ele>1755.7</ele>
        <time>2020-02-09T12:58:16.000Z</time>
      </trkpt>
      <trkpt lat="42.91068" lon="0.11969">
        <ele>1755.6</ele>
        <time>2020-02-09T12:58:17.000Z</time>
      </trkpt>
      <trkpt lat="42.91065" lon="0.11968">
        <ele>1754.6</ele>
        <time>2020-02-09T12:58:18.000Z</time>
      </trkpt>
      <trkpt lat="42.91057" lon="0.1196">
        <ele>1752.6</ele>
        <time>2020-02-09T12:58:20.000Z</time>
      </trkpt>
      <trkpt lat="42.91048" lon="0.11951">
        <ele>1750.4</ele>
        <time>2020-02-09T12:58:22.000Z</time>
      </trkpt>
      <trkpt lat="42.91044" lon="0.11949">
        <ele>1750.4</ele>
        <time>2020-02-09T12:58:23.000Z</time>
      </trkpt>
      <trkpt lat="42.91041" lon="0.11946">
        <ele>1749.3</ele>
        <time>2020-02-09T12:58:24.000Z</time>
      </trkpt>
      <trkpt lat="42.91036" lon="0.1194">
        <ele>1748.3</ele>
        <time>2020-02-09T12:58:25.000Z</time>
      </trkpt>
      <trkpt lat="42.91032" lon="0.11936">
        <ele>1747.3</ele>
        <time>2020-02-09T12:58:27.000Z</time>
      </trkpt>
      <trkpt lat="42.91028" lon="0.1193">
        <ele>1745.6</ele>
        <time>2020-02-09T12:58:28.000Z</time>
      </trkpt>
      <trkpt lat="42.91024" lon="0.11927">
        <ele>1745.6</ele>
        <time>2020-02-09T12:58:30.000Z</time>
      </trkpt>
      <trkpt lat="42.91022" lon="0.11924">
        <ele>1744.8</ele>
        <time>2020-02-09T12:58:31.000Z</time>
      </trkpt>
      <trkpt lat="42.91015" lon="0.1192">
        <ele>1744</ele>
        <time>2020-02-09T12:58:34.000Z</time>
      </trkpt>
      <trkpt lat="42.91012" lon="0.11919">
        <ele>1744</ele>
        <time>2020-02-09T12:58:37.000Z</time>
      </trkpt>
      <trkpt lat="42.91009" lon="0.11919">
        <ele>1744</ele>
        <time>2020-02-09T12:59:05.000Z</time>
      </trkpt>
      <trkpt lat="42.91007" lon="0.11918">
        <ele>1743.9</ele>
        <time>2020-02-09T12:59:06.000Z</time>
      </trkpt>
      <trkpt lat="42.90995" lon="0.1191">
        <ele>1741.9</ele>
        <time>2020-02-09T12:59:08.000Z</time>
      </trkpt>
      <trkpt lat="42.9099" lon="0.11906">
        <ele>1740.8</ele>
        <time>2020-02-09T12:59:10.000Z</time>
      </trkpt>
      <trkpt lat="42.90985" lon="0.119">
        <ele>1738.9</ele>
        <time>2020-02-09T12:59:11.000Z</time>
      </trkpt>
      <trkpt lat="42.90982" lon="0.11896">
        <ele>1738</ele>
        <time>2020-02-09T12:59:13.000Z</time>
      </trkpt>
      <trkpt lat="42.90979" lon="0.11888">
        <ele>1737.1</ele>
        <time>2020-02-09T12:59:15.000Z</time>
      </trkpt>
      <trkpt lat="42.90971" lon="0.11878">
        <ele>1734.3</ele>
        <time>2020-02-09T12:59:17.000Z</time>
      </trkpt>
      <trkpt lat="42.90967" lon="0.11874">
        <ele>1733.1</ele>
        <time>2020-02-09T12:59:19.000Z</time>
      </trkpt>
      <trkpt lat="42.90957" lon="0.11861">
        <ele>1729.4</ele>
        <time>2020-02-09T12:59:21.000Z</time>
      </trkpt>
      <trkpt lat="42.90946" lon="0.11856">
        <ele>1727.7</ele>
        <time>2020-02-09T12:59:23.000Z</time>
      </trkpt>
      <trkpt lat="42.90942" lon="0.11855">
        <ele>1727.4</ele>
        <time>2020-02-09T12:59:24.000Z</time>
      </trkpt>
      <trkpt lat="42.90938" lon="0.11853">
        <ele>1726.6</ele>
        <time>2020-02-09T12:59:25.000Z</time>
      </trkpt>
      <trkpt lat="42.90935" lon="0.11851">
        <ele>1725.1</ele>
        <time>2020-02-09T12:59:27.000Z</time>
      </trkpt>
      <trkpt lat="42.90933" lon="0.11845">
        <ele>1724</ele>
        <time>2020-02-09T12:59:29.000Z</time>
      </trkpt>
      <trkpt lat="42.90931" lon="0.11841">
        <ele>1722.6</ele>
        <time>2020-02-09T12:59:31.000Z</time>
      </trkpt>
      <trkpt lat="42.90931" lon="0.11846">
        <ele>1723.6</ele>
        <time>2020-02-09T12:59:32.000Z</time>
      </trkpt>
      <trkpt lat="42.90928" lon="0.11846">
        <ele>1723.2</ele>
        <time>2020-02-09T12:59:35.000Z</time>
      </trkpt>
      <trkpt lat="42.90925" lon="0.11844">
        <ele>1721.7</ele>
        <time>2020-02-09T12:59:39.000Z</time>
      </trkpt>
      <trkpt lat="42.90924" lon="0.11839">
        <ele>1720.6</ele>
        <time>2020-02-09T12:59:40.000Z</time>
      </trkpt>
      <trkpt lat="42.9092" lon="0.11822">
        <ele>1715.9</ele>
        <time>2020-02-09T12:59:44.000Z</time>
      </trkpt>
      <trkpt lat="42.90919" lon="0.11809">
        <ele>1712.1</ele>
        <time>2020-02-09T12:59:45.000Z</time>
      </trkpt>
      <trkpt lat="42.90918" lon="0.11792">
        <ele>1708.2</ele>
        <time>2020-02-09T12:59:46.000Z</time>
      </trkpt>
      <trkpt lat="42.90917" lon="0.11788">
        <ele>1707.2</ele>
        <time>2020-02-09T12:59:48.000Z</time>
      </trkpt>
      <trkpt lat="42.90916" lon="0.11784">
        <ele>1705.4</ele>
        <time>2020-02-09T12:59:50.000Z</time>
      </trkpt>
      <trkpt lat="42.90913" lon="0.11783">
        <ele>1704.7</ele>
        <time>2020-02-09T12:59:52.000Z</time>
      </trkpt>
      <trkpt lat="42.90908" lon="0.11782">
        <ele>1704</ele>
        <time>2020-02-09T12:59:55.000Z</time>
      </trkpt>
      <trkpt lat="42.90904" lon="0.11776">
        <ele>1701.5</ele>
        <time>2020-02-09T12:59:58.000Z</time>
      </trkpt>
      <trkpt lat="42.90907" lon="0.11772">
        <ele>1701</ele>
        <time>2020-02-09T13:00:01.000Z</time>
      </trkpt>
      <trkpt lat="42.90902" lon="0.11772">
        <ele>1699.1</ele>
        <time>2020-02-09T13:00:04.000Z</time>
      </trkpt>
      <trkpt lat="42.909" lon="0.11768">
        <ele>1698.3</ele>
        <time>2020-02-09T13:00:05.000Z</time>
      </trkpt>
      <trkpt lat="42.90898" lon="0.11767">
        <ele>1696.4</ele>
        <time>2020-02-09T13:00:07.000Z</time>
      </trkpt>
      <trkpt lat="42.909" lon="0.11765">
        <ele>1697.1</ele>
        <time>2020-02-09T13:00:09.000Z</time>
      </trkpt>
      <trkpt lat="42.90903" lon="0.11763">
        <ele>1697.8</ele>
        <time>2020-02-09T13:00:14.000Z</time>
      </trkpt>
      <trkpt lat="42.90901" lon="0.11759">
        <ele>1695</ele>
        <time>2020-02-09T13:00:19.000Z</time>
      </trkpt>
      <trkpt lat="42.909" lon="0.11755">
        <ele>1694.9</ele>
        <time>2020-02-09T13:00:22.000Z</time>
      </trkpt>
      <trkpt lat="42.90901" lon="0.1175">
        <ele>1693.7</ele>
        <time>2020-02-09T13:00:26.000Z</time>
      </trkpt>
      <trkpt lat="42.90904" lon="0.11748">
        <ele>1693.7</ele>
        <time>2020-02-09T13:00:30.000Z</time>
      </trkpt>
      <trkpt lat="42.90904" lon="0.11743">
        <ele>1692.7</ele>
        <time>2020-02-09T13:00:34.000Z</time>
      </trkpt>
      <trkpt lat="42.90904" lon="0.11738">
        <ele>1692.5</ele>
        <time>2020-02-09T13:00:35.000Z</time>
      </trkpt>
      <trkpt lat="42.90904" lon="0.11727">
        <ele>1688.8</ele>
        <time>2020-02-09T13:00:36.000Z</time>
      </trkpt>
      <trkpt lat="42.90904" lon="0.11722">
        <ele>1687.8</ele>
        <time>2020-02-09T13:00:38.000Z</time>
      </trkpt>
      <trkpt lat="42.90904" lon="0.11716">
        <ele>1686.6</ele>
        <time>2020-02-09T13:00:40.000Z</time>
      </trkpt>
      <trkpt lat="42.90903" lon="0.11711">
        <ele>1685</ele>
        <time>2020-02-09T13:00:47.000Z</time>
      </trkpt>
      <trkpt lat="42.90902" lon="0.11707">
        <ele>1684.2</ele>
        <time>2020-02-09T13:00:56.000Z</time>
      </trkpt>
      <trkpt lat="42.90901" lon="0.11699">
        <ele>1683.3</ele>
        <time>2020-02-09T13:01:12.000Z</time>
      </trkpt>
      <trkpt lat="42.90903" lon="0.11696">
        <ele>1682.3</ele>
        <time>2020-02-09T13:01:13.000Z</time>
      </trkpt>
      <trkpt lat="42.90905" lon="0.11693">
        <ele>1682.1</ele>
        <time>2020-02-09T13:01:14.000Z</time>
      </trkpt>
      <trkpt lat="42.90903" lon="0.11685">
        <ele>1679.4</ele>
        <time>2020-02-09T13:01:16.000Z</time>
      </trkpt>
      <trkpt lat="42.90901" lon="0.11681">
        <ele>1678.4</ele>
        <time>2020-02-09T13:01:21.000Z</time>
      </trkpt>
      <trkpt lat="42.90908" lon="0.11681">
        <ele>1679.8</ele>
        <time>2020-02-09T13:01:39.000Z</time>
      </trkpt>
      <trkpt lat="42.90911" lon="0.11677">
        <ele>1679.7</ele>
        <time>2020-02-09T13:01:52.000Z</time>
      </trkpt>
      <trkpt lat="42.90908" lon="0.11672">
        <ele>1677.9</ele>
        <time>2020-02-09T13:01:57.000Z</time>
      </trkpt>
      <trkpt lat="42.90908" lon="0.11668">
        <ele>1677</ele>
        <time>2020-02-09T13:02:00.000Z</time>
      </trkpt>
      <trkpt lat="42.90906" lon="0.11664">
        <ele>1675.3</ele>
        <time>2020-02-09T13:02:03.000Z</time>
      </trkpt>
      <trkpt lat="42.90909" lon="0.11663">
        <ele>1676.1</ele>
        <time>2020-02-09T13:02:06.000Z</time>
      </trkpt>
      <trkpt lat="42.90913" lon="0.11662">
        <ele>1677</ele>
        <time>2020-02-09T13:02:13.000Z</time>
      </trkpt>
      <trkpt lat="42.90911" lon="0.11659">
        <ele>1676.2</ele>
        <time>2020-02-09T13:02:21.000Z</time>
      </trkpt>
      <trkpt lat="42.90913" lon="0.11654">
        <ele>1675.3</ele>
        <time>2020-02-09T13:02:27.000Z</time>
      </trkpt>
      <trkpt lat="42.90914" lon="0.11651">
        <ele>1675.6</ele>
        <time>2020-02-09T13:02:40.000Z</time>
      </trkpt>
      <trkpt lat="42.90915" lon="0.11647">
        <ele>1674.7</ele>
        <time>2020-02-09T13:02:49.000Z</time>
      </trkpt>
      <trkpt lat="42.90915" lon="0.11643">
        <ele>1674.7</ele>
        <time>2020-02-09T13:02:54.000Z</time>
      </trkpt>
      <trkpt lat="42.90916" lon="0.11639">
        <ele>1673.8</ele>
        <time>2020-02-09T13:03:00.000Z</time>
      </trkpt>
      <trkpt lat="42.90916" lon="0.11633">
        <ele>1672.3</ele>
        <time>2020-02-09T13:03:14.000Z</time>
      </trkpt>
      <trkpt lat="42.90915" lon="0.1163">
        <ele>1671.5</ele>
        <time>2020-02-09T13:03:50.000Z</time>
      </trkpt>
      <trkpt lat="42.90912" lon="0.1163">
        <ele>1670.4</ele>
        <time>2020-02-09T13:04:59.000Z</time>
      </trkpt>
      <trkpt lat="42.90908" lon="0.11627">
        <ele>1669.3</ele>
        <time>2020-02-09T13:05:45.000Z</time>
      </trkpt>
      <trkpt lat="42.90905" lon="0.11628">
        <ele>1668.3</ele>
        <time>2020-02-09T13:05:49.000Z</time>
      </trkpt>
      <trkpt lat="42.90901" lon="0.11624">
        <ele>1666.7</ele>
        <time>2020-02-09T13:05:54.000Z</time>
      </trkpt>
      <trkpt lat="42.90899" lon="0.11621">
        <ele>1665.1</ele>
        <time>2020-02-09T13:05:57.000Z</time>
      </trkpt>
      <trkpt lat="42.90897" lon="0.11618">
        <ele>1664</ele>
        <time>2020-02-09T13:05:59.000Z</time>
      </trkpt>
      <trkpt lat="42.90891" lon="0.11615">
        <ele>1661.1</ele>
        <time>2020-02-09T13:06:03.000Z</time>
      </trkpt>
      <trkpt lat="42.90889" lon="0.11614">
        <ele>1661</ele>
        <time>2020-02-09T13:06:05.000Z</time>
      </trkpt>
      <trkpt lat="42.90885" lon="0.11611">
        <ele>1658.1</ele>
        <time>2020-02-09T13:06:07.000Z</time>
      </trkpt>
      <trkpt lat="42.90882" lon="0.11609">
        <ele>1657</ele>
        <time>2020-02-09T13:06:10.000Z</time>
      </trkpt>
      <trkpt lat="42.90878" lon="0.11608">
        <ele>1655.3</ele>
        <time>2020-02-09T13:06:14.000Z</time>
      </trkpt>
      <trkpt lat="42.90875" lon="0.11608">
        <ele>1654.2</ele>
        <time>2020-02-09T13:06:16.000Z</time>
      </trkpt>
      <trkpt lat="42.90873" lon="0.11607">
        <ele>1654.2</ele>
        <time>2020-02-09T13:06:18.000Z</time>
      </trkpt>
      <trkpt lat="42.90871" lon="0.11602">
        <ele>1652.5</ele>
        <time>2020-02-09T13:06:23.000Z</time>
      </trkpt>
      <trkpt lat="42.90867" lon="0.11601">
        <ele>1651.2</ele>
        <time>2020-02-09T13:06:27.000Z</time>
      </trkpt>
      <trkpt lat="42.90865" lon="0.11599">
        <ele>1649.4</ele>
        <time>2020-02-09T13:06:29.000Z</time>
      </trkpt>
      <trkpt lat="42.90863" lon="0.11595">
        <ele>1647.6</ele>
        <time>2020-02-09T13:06:33.000Z</time>
      </trkpt>
      <trkpt lat="42.90862" lon="0.1159">
        <ele>1647.1</ele>
        <time>2020-02-09T13:06:35.000Z</time>
      </trkpt>
      <trkpt lat="42.9086" lon="0.11586">
        <ele>1646.6</ele>
        <time>2020-02-09T13:06:38.000Z</time>
      </trkpt>
      <trkpt lat="42.90857" lon="0.11584">
        <ele>1645.3</ele>
        <time>2020-02-09T13:06:42.000Z</time>
      </trkpt>
      <trkpt lat="42.90854" lon="0.11583">
        <ele>1644</ele>
        <time>2020-02-09T13:06:46.000Z</time>
      </trkpt>
      <trkpt lat="42.90851" lon="0.11582">
        <ele>1642.5</ele>
        <time>2020-02-09T13:06:52.000Z</time>
      </trkpt>
      <trkpt lat="42.9085" lon="0.11578">
        <ele>1641</ele>
        <time>2020-02-09T13:06:56.000Z</time>
      </trkpt>
      <trkpt lat="42.9085" lon="0.11574">
        <ele>1640.9</ele>
        <time>2020-02-09T13:06:59.000Z</time>
      </trkpt>
      <trkpt lat="42.90849" lon="0.11571">
        <ele>1640.6</ele>
        <time>2020-02-09T13:07:03.000Z</time>
      </trkpt>
      <trkpt lat="42.90846" lon="0.11568">
        <ele>1639.2</ele>
        <time>2020-02-09T13:07:06.000Z</time>
      </trkpt>
      <trkpt lat="42.90843" lon="0.11565">
        <ele>1637.7</ele>
        <time>2020-02-09T13:07:09.000Z</time>
      </trkpt>
      <trkpt lat="42.90842" lon="0.11562">
        <ele>1637.7</ele>
        <time>2020-02-09T13:07:12.000Z</time>
      </trkpt>
      <trkpt lat="42.90837" lon="0.11561">
        <ele>1635</ele>
        <time>2020-02-09T13:07:16.000Z</time>
      </trkpt>
      <trkpt lat="42.90834" lon="0.1156">
        <ele>1633.7</ele>
        <time>2020-02-09T13:07:17.000Z</time>
      </trkpt>
      <trkpt lat="42.90831" lon="0.11558">
        <ele>1632.3</ele>
        <time>2020-02-09T13:07:21.000Z</time>
      </trkpt>
      <trkpt lat="42.90828" lon="0.11555">
        <ele>1630.7</ele>
        <time>2020-02-09T13:07:23.000Z</time>
      </trkpt>
      <trkpt lat="42.90825" lon="0.11553">
        <ele>1629.4</ele>
        <time>2020-02-09T13:07:26.000Z</time>
      </trkpt>
      <trkpt lat="42.90823" lon="0.11551">
        <ele>1629.1</ele>
        <time>2020-02-09T13:07:28.000Z</time>
      </trkpt>
      <trkpt lat="42.90819" lon="0.11549">
        <ele>1626.8</ele>
        <time>2020-02-09T13:07:31.000Z</time>
      </trkpt>
      <trkpt lat="42.90816" lon="0.11551">
        <ele>1625.1</ele>
        <time>2020-02-09T13:07:55.000Z</time>
      </trkpt>
      <trkpt lat="42.90813" lon="0.1155">
        <ele>1624</ele>
        <time>2020-02-09T13:08:02.000Z</time>
      </trkpt>
      <trkpt lat="42.90809" lon="0.1155">
        <ele>1623.8</ele>
        <time>2020-02-09T13:08:05.000Z</time>
      </trkpt>
      <trkpt lat="42.90805" lon="0.11552">
        <ele>1623.5</ele>
        <time>2020-02-09T13:08:09.000Z</time>
      </trkpt>
      <trkpt lat="42.90802" lon="0.11553">
        <ele>1623.3</ele>
        <time>2020-02-09T13:08:15.000Z</time>
      </trkpt>
      <trkpt lat="42.90798" lon="0.11555">
        <ele>1623.1</ele>
        <time>2020-02-09T13:08:18.000Z</time>
      </trkpt>
      <trkpt lat="42.90795" lon="0.11557">
        <ele>1622.9</ele>
        <time>2020-02-09T13:08:20.000Z</time>
      </trkpt>
      <trkpt lat="42.90792" lon="0.1156">
        <ele>1622.6</ele>
        <time>2020-02-09T13:08:24.000Z</time>
      </trkpt>
      <trkpt lat="42.90789" lon="0.11562">
        <ele>1622.4</ele>
        <time>2020-02-09T13:08:26.000Z</time>
      </trkpt>
      <trkpt lat="42.90786" lon="0.11564">
        <ele>1622.2</ele>
        <time>2020-02-09T13:08:28.000Z</time>
      </trkpt>
      <trkpt lat="42.90783" lon="0.11568">
        <ele>1622</ele>
        <time>2020-02-09T13:08:31.000Z</time>
      </trkpt>
      <trkpt lat="42.9078" lon="0.11573">
        <ele>1621.6</ele>
        <time>2020-02-09T13:08:35.000Z</time>
      </trkpt>
      <trkpt lat="42.90779" lon="0.11574">
        <ele>1621.5</ele>
        <time>2020-02-09T13:08:37.000Z</time>
      </trkpt>
      <trkpt lat="42.90777" lon="0.11578">
        <ele>1621.3</ele>
        <time>2020-02-09T13:08:39.000Z</time>
      </trkpt>
      <trkpt lat="42.90775" lon="0.11581">
        <ele>1621.1</ele>
        <time>2020-02-09T13:08:43.000Z</time>
      </trkpt>
      <trkpt lat="42.90773" lon="0.11583">
        <ele>1620.9</ele>
        <time>2020-02-09T13:08:45.000Z</time>
      </trkpt>
      <trkpt lat="42.9077" lon="0.11588">
        <ele>1620.6</ele>
        <time>2020-02-09T13:08:49.000Z</time>
      </trkpt>
      <trkpt lat="42.90768" lon="0.11591">
        <ele>1620.4</ele>
        <time>2020-02-09T13:08:51.000Z</time>
      </trkpt>
      <trkpt lat="42.90766" lon="0.11593">
        <ele>1620.2</ele>
        <time>2020-02-09T13:08:59.000Z</time>
      </trkpt>
      <trkpt lat="42.90764" lon="0.11597">
        <ele>1620</ele>
        <time>2020-02-09T13:09:01.000Z</time>
      </trkpt>
      <trkpt lat="42.90761" lon="0.116">
        <ele>1619.7</ele>
        <time>2020-02-09T13:09:03.000Z</time>
      </trkpt>
      <trkpt lat="42.90759" lon="0.11603">
        <ele>1619.4</ele>
        <time>2020-02-09T13:09:06.000Z</time>
      </trkpt>
      <trkpt lat="42.90756" lon="0.11609">
        <ele>1619</ele>
        <time>2020-02-09T13:09:09.000Z</time>
      </trkpt>
      <trkpt lat="42.90753" lon="0.11613">
        <ele>1618.7</ele>
        <time>2020-02-09T13:09:11.000Z</time>
      </trkpt>
      <trkpt lat="42.90751" lon="0.11617">
        <ele>1618.4</ele>
        <time>2020-02-09T13:09:15.000Z</time>
      </trkpt>
      <trkpt lat="42.90748" lon="0.1162">
        <ele>1618.2</ele>
        <time>2020-02-09T13:09:17.000Z</time>
      </trkpt>
      <trkpt lat="42.90744" lon="0.11624">
        <ele>1617.8</ele>
        <time>2020-02-09T13:09:19.000Z</time>
      </trkpt>
      <trkpt lat="42.90742" lon="0.11626">
        <ele>1617.5</ele>
        <time>2020-02-09T13:09:21.000Z</time>
      </trkpt>
      <trkpt lat="42.90739" lon="0.11628">
        <ele>1617.3</ele>
        <time>2020-02-09T13:09:24.000Z</time>
      </trkpt>
      <trkpt lat="42.90735" lon="0.1163">
        <ele>1617</ele>
        <time>2020-02-09T13:09:27.000Z</time>
      </trkpt>
      <trkpt lat="42.90733" lon="0.11632">
        <ele>1616.8</ele>
        <time>2020-02-09T13:09:29.000Z</time>
      </trkpt>
      <trkpt lat="42.9073" lon="0.11632">
        <ele>1616.6</ele>
        <time>2020-02-09T13:09:39.000Z</time>
      </trkpt>
      <trkpt lat="42.90727" lon="0.11633">
        <ele>1616.4</ele>
        <time>2020-02-09T13:09:55.000Z</time>
      </trkpt>
      <trkpt lat="42.90725" lon="0.11634">
        <ele>1616.2</ele>
        <time>2020-02-09T13:10:10.000Z</time>
      </trkpt>
      <trkpt lat="42.90728" lon="0.11633">
        <ele>1616</ele>
        <time>2020-02-09T13:10:20.000Z</time>
      </trkpt>
      <trkpt lat="42.90727" lon="0.1163">
        <ele>1615.7</ele>
        <time>2020-02-09T13:11:13.000Z</time>
      </trkpt>
      <trkpt lat="42.90725" lon="0.11628">
        <ele>1615.5</ele>
        <time>2020-02-09T13:11:31.000Z</time>
      </trkpt>
      <trkpt lat="42.90723" lon="0.11625">
        <ele>1615.3</ele>
        <time>2020-02-09T13:11:33.000Z</time>
      </trkpt>
      <trkpt lat="42.90723" lon="0.11621">
        <ele>1615.1</ele>
        <time>2020-02-09T13:11:36.000Z</time>
      </trkpt>
      <trkpt lat="42.90723" lon="0.11617">
        <ele>1614.9</ele>
        <time>2020-02-09T13:11:38.000Z</time>
      </trkpt>
      <trkpt lat="42.90724" lon="0.11609">
        <ele>1614.3</ele>
        <time>2020-02-09T13:11:43.000Z</time>
      </trkpt>
      <trkpt lat="42.90725" lon="0.11604">
        <ele>1614</ele>
        <time>2020-02-09T13:11:47.000Z</time>
      </trkpt>
      <trkpt lat="42.90724" lon="0.11572">
        <ele>1612.1</ele>
        <time>2020-02-09T13:11:51.000Z</time>
      </trkpt>
      <trkpt lat="42.90724" lon="0.11561">
        <ele>1611.4</ele>
        <time>2020-02-09T13:11:52.000Z</time>
      </trkpt>
      <trkpt lat="42.90723" lon="0.11536">
        <ele>1610</ele>
        <time>2020-02-09T13:11:54.000Z</time>
      </trkpt>
      <trkpt lat="42.90724" lon="0.11514">
        <ele>1608.8</ele>
        <time>2020-02-09T13:11:56.000Z</time>
      </trkpt>
      <trkpt lat="42.90723" lon="0.11493">
        <ele>1607.6</ele>
        <time>2020-02-09T13:11:58.000Z</time>
      </trkpt>
      <trkpt lat="42.90725" lon="0.11474">
        <ele>1606.5</ele>
        <time>2020-02-09T13:12:00.000Z</time>
      </trkpt>
      <trkpt lat="42.90724" lon="0.11465">
        <ele>1606</ele>
        <time>2020-02-09T13:12:01.000Z</time>
      </trkpt>
      <trkpt lat="42.90719" lon="0.11448">
        <ele>1604.9</ele>
        <time>2020-02-09T13:12:03.000Z</time>
      </trkpt>
      <trkpt lat="42.90717" lon="0.11439">
        <ele>1604.5</ele>
        <time>2020-02-09T13:12:04.000Z</time>
      </trkpt>
      <trkpt lat="42.90717" lon="0.11429">
        <ele>1603.9</ele>
        <time>2020-02-09T13:12:05.000Z</time>
      </trkpt>
      <trkpt lat="42.90712" lon="0.11408">
        <ele>1602.6</ele>
        <time>2020-02-09T13:12:07.000Z</time>
      </trkpt>
      <trkpt lat="42.9071" lon="0.11397">
        <ele>1601.9</ele>
        <time>2020-02-09T13:12:08.000Z</time>
      </trkpt>
      <trkpt lat="42.90708" lon="0.11388">
        <ele>1601.3</ele>
        <time>2020-02-09T13:12:09.000Z</time>
      </trkpt>
      <trkpt lat="42.90705" lon="0.11378">
        <ele>1600.7</ele>
        <time>2020-02-09T13:12:10.000Z</time>
      </trkpt>
      <trkpt lat="42.90699" lon="0.11358">
        <ele>1599.5</ele>
        <time>2020-02-09T13:12:12.000Z</time>
      </trkpt>
      <trkpt lat="42.90696" lon="0.11347">
        <ele>1598.8</ele>
        <time>2020-02-09T13:12:13.000Z</time>
      </trkpt>
      <trkpt lat="42.90688" lon="0.11324">
        <ele>1597.3</ele>
        <time>2020-02-09T13:12:15.000Z</time>
      </trkpt>
      <trkpt lat="42.90684" lon="0.11312">
        <ele>1596.4</ele>
        <time>2020-02-09T13:12:16.000Z</time>
      </trkpt>
      <trkpt lat="42.90677" lon="0.11288">
        <ele>1595</ele>
        <time>2020-02-09T13:12:18.000Z</time>
      </trkpt>
      <trkpt lat="42.90676" lon="0.11277">
        <ele>1594.4</ele>
        <time>2020-02-09T13:12:19.000Z</time>
      </trkpt>
      <trkpt lat="42.90676" lon="0.11267">
        <ele>1593.8</ele>
        <time>2020-02-09T13:12:20.000Z</time>
      </trkpt>
      <trkpt lat="42.90676" lon="0.11258">
        <ele>1593.1</ele>
        <time>2020-02-09T13:12:21.000Z</time>
      </trkpt>
      <trkpt lat="42.90675" lon="0.11249">
        <ele>1592.6</ele>
        <time>2020-02-09T13:12:22.000Z</time>
      </trkpt>
      <trkpt lat="42.90672" lon="0.11232">
        <ele>1591.6</ele>
        <time>2020-02-09T13:12:24.000Z</time>
      </trkpt>
      <trkpt lat="42.9067" lon="0.11223">
        <ele>1591.2</ele>
        <time>2020-02-09T13:12:25.000Z</time>
      </trkpt>
      <trkpt lat="42.90669" lon="0.11204">
        <ele>1590.2</ele>
        <time>2020-02-09T13:12:27.000Z</time>
      </trkpt>
      <trkpt lat="42.90668" lon="0.11195">
        <ele>1589.7</ele>
        <time>2020-02-09T13:12:28.000Z</time>
      </trkpt>
      <trkpt lat="42.90665" lon="0.11179">
        <ele>1588.7</ele>
        <time>2020-02-09T13:12:30.000Z</time>
      </trkpt>
      <trkpt lat="42.90663" lon="0.11163">
        <ele>1587.7</ele>
        <time>2020-02-09T13:12:32.000Z</time>
      </trkpt>
      <trkpt lat="42.90664" lon="0.11154">
        <ele>1587.2</ele>
        <time>2020-02-09T13:12:33.000Z</time>
      </trkpt>
      <trkpt lat="42.90664" lon="0.11145">
        <ele>1586.6</ele>
        <time>2020-02-09T13:12:34.000Z</time>
      </trkpt>
      <trkpt lat="42.90666" lon="0.11124">
        <ele>1585.3</ele>
        <time>2020-02-09T13:12:36.000Z</time>
      </trkpt>
      <trkpt lat="42.90667" lon="0.11106">
        <ele>1584.3</ele>
        <time>2020-02-09T13:12:38.000Z</time>
      </trkpt>
      <trkpt lat="42.90666" lon="0.11098">
        <ele>1583.8</ele>
        <time>2020-02-09T13:12:39.000Z</time>
      </trkpt>
      <trkpt lat="42.90664" lon="0.11084">
        <ele>1582.9</ele>
        <time>2020-02-09T13:12:41.000Z</time>
      </trkpt>
      <trkpt lat="42.90661" lon="0.11074">
        <ele>1582.3</ele>
        <time>2020-02-09T13:12:43.000Z</time>
      </trkpt>
      <trkpt lat="42.90659" lon="0.11069">
        <ele>1582</ele>
        <time>2020-02-09T13:12:44.000Z</time>
      </trkpt>
      <trkpt lat="42.90657" lon="0.1106">
        <ele>1581.3</ele>
        <time>2020-02-09T13:12:46.000Z</time>
      </trkpt>
      <trkpt lat="42.90653" lon="0.11052">
        <ele>1580.7</ele>
        <time>2020-02-09T13:12:48.000Z</time>
      </trkpt>
      <trkpt lat="42.90652" lon="0.11047">
        <ele>1580.4</ele>
        <time>2020-02-09T13:12:49.000Z</time>
      </trkpt>
      <trkpt lat="42.9065" lon="0.11042">
        <ele>1580</ele>
        <time>2020-02-09T13:12:50.000Z</time>
      </trkpt>
      <trkpt lat="42.90644" lon="0.11034">
        <ele>1579.2</ele>
        <time>2020-02-09T13:12:52.000Z</time>
      </trkpt>
      <trkpt lat="42.9064" lon="0.11021">
        <ele>1578.3</ele>
        <time>2020-02-09T13:12:54.000Z</time>
      </trkpt>
      <trkpt lat="42.90638" lon="0.11014">
        <ele>1577.8</ele>
        <time>2020-02-09T13:12:55.000Z</time>
      </trkpt>
      <trkpt lat="42.90635" lon="0.11001">
        <ele>1576.8</ele>
        <time>2020-02-09T13:12:57.000Z</time>
      </trkpt>
      <trkpt lat="42.90631" lon="0.10985">
        <ele>1575.7</ele>
        <time>2020-02-09T13:12:59.000Z</time>
      </trkpt>
      <trkpt lat="42.90627" lon="0.10977">
        <ele>1575.1</ele>
        <time>2020-02-09T13:13:00.000Z</time>
      </trkpt>
      <trkpt lat="42.90623" lon="0.1097">
        <ele>1574.5</ele>
        <time>2020-02-09T13:13:01.000Z</time>
      </trkpt>
      <trkpt lat="42.9062" lon="0.10962">
        <ele>1573.9</ele>
        <time>2020-02-09T13:13:02.000Z</time>
      </trkpt>
      <trkpt lat="42.90613" lon="0.10945">
        <ele>1572.5</ele>
        <time>2020-02-09T13:13:04.000Z</time>
      </trkpt>
      <trkpt lat="42.90608" lon="0.10934">
        <ele>1571.7</ele>
        <time>2020-02-09T13:13:05.000Z</time>
      </trkpt>
      <trkpt lat="42.90602" lon="0.10923">
        <ele>1570.8</ele>
        <time>2020-02-09T13:13:06.000Z</time>
      </trkpt>
      <trkpt lat="42.90593" lon="0.10902">
        <ele>1569.1</ele>
        <time>2020-02-09T13:13:08.000Z</time>
      </trkpt>
      <trkpt lat="42.9059" lon="0.10881">
        <ele>1567.8</ele>
        <time>2020-02-09T13:13:10.000Z</time>
      </trkpt>
      <trkpt lat="42.90589" lon="0.10872">
        <ele>1567.2</ele>
        <time>2020-02-09T13:13:11.000Z</time>
      </trkpt>
      <trkpt lat="42.90587" lon="0.10865">
        <ele>1566.8</ele>
        <time>2020-02-09T13:13:12.000Z</time>
      </trkpt>
      <trkpt lat="42.90585" lon="0.10855">
        <ele>1565.6</ele>
        <time>2020-02-09T13:13:14.000Z</time>
      </trkpt>
      <trkpt lat="42.90584" lon="0.10851">
        <ele>1565.1</ele>
        <time>2020-02-09T13:13:15.000Z</time>
      </trkpt>
      <trkpt lat="42.90583" lon="0.10847">
        <ele>1564.3</ele>
        <time>2020-02-09T13:13:16.000Z</time>
      </trkpt>
      <trkpt lat="42.90581" lon="0.10844">
        <ele>1563.8</ele>
        <time>2020-02-09T13:13:17.000Z</time>
      </trkpt>
      <trkpt lat="42.9058" lon="0.1084">
        <ele>1562.9</ele>
        <time>2020-02-09T13:13:18.000Z</time>
      </trkpt>
      <trkpt lat="42.90578" lon="0.10833">
        <ele>1562.4</ele>
        <time>2020-02-09T13:13:20.000Z</time>
      </trkpt>
      <trkpt lat="42.90574" lon="0.10829">
        <ele>1561.6</ele>
        <time>2020-02-09T13:13:21.000Z</time>
      </trkpt>
      <trkpt lat="42.9057" lon="0.10822">
        <ele>1560.2</ele>
        <time>2020-02-09T13:13:23.000Z</time>
      </trkpt>
      <trkpt lat="42.9057" lon="0.10818">
        <ele>1559.7</ele>
        <time>2020-02-09T13:13:24.000Z</time>
      </trkpt>
      <trkpt lat="42.90569" lon="0.1081">
        <ele>1558.9</ele>
        <time>2020-02-09T13:13:26.000Z</time>
      </trkpt>
      <trkpt lat="42.9057" lon="0.10817">
        <ele>1559.3</ele>
        <time>2020-02-09T13:13:29.000Z</time>
      </trkpt>
      <trkpt lat="42.90575" lon="0.10811">
        <ele>1559.5</ele>
        <time>2020-02-09T13:13:34.000Z</time>
      </trkpt>
      <trkpt lat="42.90575" lon="0.10799">
        <ele>1558.5</ele>
        <time>2020-02-09T13:13:38.000Z</time>
      </trkpt>
      <trkpt lat="42.90572" lon="0.10792">
        <ele>1557.4</ele>
        <time>2020-02-09T13:13:40.000Z</time>
      </trkpt>
      <trkpt lat="42.90569" lon="0.10788">
        <ele>1556.5</ele>
        <time>2020-02-09T13:13:41.000Z</time>
      </trkpt>
      <trkpt lat="42.90567" lon="0.10783">
        <ele>1555.7</ele>
        <time>2020-02-09T13:13:42.000Z</time>
      </trkpt>
      <trkpt lat="42.90549" lon="0.10756">
        <ele>1552.3</ele>
        <time>2020-02-09T13:13:44.000Z</time>
      </trkpt>
      <trkpt lat="42.90543" lon="0.10745">
        <ele>1550.7</ele>
        <time>2020-02-09T13:13:45.000Z</time>
      </trkpt>
      <trkpt lat="42.90532" lon="0.10723">
        <ele>1547.9</ele>
        <time>2020-02-09T13:13:47.000Z</time>
      </trkpt>
      <trkpt lat="42.90531" lon="0.107">
        <ele>1545.9</ele>
        <time>2020-02-09T13:13:49.000Z</time>
      </trkpt>
      <trkpt lat="42.9053" lon="0.10689">
        <ele>1544.2</ele>
        <time>2020-02-09T13:13:50.000Z</time>
      </trkpt>
      <trkpt lat="42.90521" lon="0.10676">
        <ele>1542.3</ele>
        <time>2020-02-09T13:13:52.000Z</time>
      </trkpt>
      <trkpt lat="42.90517" lon="0.1067">
        <ele>1541.3</ele>
        <time>2020-02-09T13:13:53.000Z</time>
      </trkpt>
      <trkpt lat="42.90515" lon="0.10661">
        <ele>1540.2</ele>
        <time>2020-02-09T13:13:54.000Z</time>
      </trkpt>
      <trkpt lat="42.90507" lon="0.10648">
        <ele>1538</ele>
        <time>2020-02-09T13:13:56.000Z</time>
      </trkpt>
      <trkpt lat="42.90499" lon="0.10643">
        <ele>1536.2</ele>
        <time>2020-02-09T13:13:57.000Z</time>
      </trkpt>
      <trkpt lat="42.90484" lon="0.10627">
        <ele>1533.2</ele>
        <time>2020-02-09T13:13:59.000Z</time>
      </trkpt>
      <trkpt lat="42.90466" lon="0.1061">
        <ele>1529.4</ele>
        <time>2020-02-09T13:14:01.000Z</time>
      </trkpt>
      <trkpt lat="42.90447" lon="0.10594">
        <ele>1525.3</ele>
        <time>2020-02-09T13:14:03.000Z</time>
      </trkpt>
      <trkpt lat="42.90438" lon="0.10586">
        <ele>1523.2</ele>
        <time>2020-02-09T13:14:04.000Z</time>
      </trkpt>
      <trkpt lat="42.90423" lon="0.10572">
        <ele>1519.6</ele>
        <time>2020-02-09T13:14:06.000Z</time>
      </trkpt>
      <trkpt lat="42.90417" lon="0.10565">
        <ele>1517.2</ele>
        <time>2020-02-09T13:14:07.000Z</time>
      </trkpt>
      <trkpt lat="42.90405" lon="0.10558">
        <ele>1515.1</ele>
        <time>2020-02-09T13:14:09.000Z</time>
      </trkpt>
      <trkpt lat="42.90394" lon="0.10556">
        <ele>1513</ele>
        <time>2020-02-09T13:14:11.000Z</time>
      </trkpt>
      <trkpt lat="42.90389" lon="0.10555">
        <ele>1512.6</ele>
        <time>2020-02-09T13:14:12.000Z</time>
      </trkpt>
      <trkpt lat="42.90377" lon="0.10554">
        <ele>1511.8</ele>
        <time>2020-02-09T13:14:14.000Z</time>
      </trkpt>
      <trkpt lat="42.90363" lon="0.10552">
        <ele>1510.4</ele>
        <time>2020-02-09T13:14:16.000Z</time>
      </trkpt>
      <trkpt lat="42.90356" lon="0.1055">
        <ele>1510.4</ele>
        <time>2020-02-09T13:14:17.000Z</time>
      </trkpt>
      <trkpt lat="42.90341" lon="0.10549">
        <ele>1509.5</ele>
        <time>2020-02-09T13:14:19.000Z</time>
      </trkpt>
      <trkpt lat="42.90328" lon="0.10544">
        <ele>1509.9</ele>
        <time>2020-02-09T13:14:21.000Z</time>
      </trkpt>
      <trkpt lat="42.90317" lon="0.10538">
        <ele>1508</ele>
        <time>2020-02-09T13:14:23.000Z</time>
      </trkpt>
      <trkpt lat="42.90307" lon="0.10532">
        <ele>1507.9</ele>
        <time>2020-02-09T13:14:25.000Z</time>
      </trkpt>
      <trkpt lat="42.90302" lon="0.10529">
        <ele>1506.7</ele>
        <time>2020-02-09T13:14:26.000Z</time>
      </trkpt>
      <trkpt lat="42.90298" lon="0.10526">
        <ele>1505.6</ele>
        <time>2020-02-09T13:14:27.000Z</time>
      </trkpt>
      <trkpt lat="42.90292" lon="0.10519">
        <ele>1504.7</ele>
        <time>2020-02-09T13:14:29.000Z</time>
      </trkpt>
      <trkpt lat="42.90289" lon="0.10517">
        <ele>1503.5</ele>
        <time>2020-02-09T13:14:30.000Z</time>
      </trkpt>
      <trkpt lat="42.90283" lon="0.10511">
        <ele>1502.7</ele>
        <time>2020-02-09T13:14:32.000Z</time>
      </trkpt>
      <trkpt lat="42.9028" lon="0.10508">
        <ele>1501.6</ele>
        <time>2020-02-09T13:14:33.000Z</time>
      </trkpt>
      <trkpt lat="42.90273" lon="0.10502">
        <ele>1500.9</ele>
        <time>2020-02-09T13:14:35.000Z</time>
      </trkpt>
      <trkpt lat="42.90269" lon="0.10498">
        <ele>1500.2</ele>
        <time>2020-02-09T13:14:36.000Z</time>
      </trkpt>
      <trkpt lat="42.90259" lon="0.10488">
        <ele>1497.3</ele>
        <time>2020-02-09T13:14:38.000Z</time>
      </trkpt>
      <trkpt lat="42.90247" lon="0.10477">
        <ele>1495.5</ele>
        <time>2020-02-09T13:14:40.000Z</time>
      </trkpt>
      <trkpt lat="42.90234" lon="0.10465">
        <ele>1492.2</ele>
        <time>2020-02-09T13:14:42.000Z</time>
      </trkpt>
      <trkpt lat="42.90222" lon="0.10454">
        <ele>1490.1</ele>
        <time>2020-02-09T13:14:44.000Z</time>
      </trkpt>
      <trkpt lat="42.90213" lon="0.10446">
        <ele>1488.1</ele>
        <time>2020-02-09T13:14:46.000Z</time>
      </trkpt>
      <trkpt lat="42.90209" lon="0.10443">
        <ele>1486.9</ele>
        <time>2020-02-09T13:14:47.000Z</time>
      </trkpt>
      <trkpt lat="42.90205" lon="0.10441">
        <ele>1485.9</ele>
        <time>2020-02-09T13:14:48.000Z</time>
      </trkpt>
      <trkpt lat="42.902" lon="0.10439">
        <ele>1485.6</ele>
        <time>2020-02-09T13:14:49.000Z</time>
      </trkpt>
      <trkpt lat="42.90188" lon="0.10434">
        <ele>1484.3</ele>
        <time>2020-02-09T13:14:51.000Z</time>
      </trkpt>
      <trkpt lat="42.90182" lon="0.10432">
        <ele>1483.1</ele>
        <time>2020-02-09T13:14:52.000Z</time>
      </trkpt>
      <trkpt lat="42.90169" lon="0.10431">
        <ele>1482.4</ele>
        <time>2020-02-09T13:14:54.000Z</time>
      </trkpt>
      <trkpt lat="42.90157" lon="0.10424">
        <ele>1480.2</ele>
        <time>2020-02-09T13:14:56.000Z</time>
      </trkpt>
      <trkpt lat="42.90152" lon="0.10418">
        <ele>1479.1</ele>
        <time>2020-02-09T13:14:57.000Z</time>
      </trkpt>
      <trkpt lat="42.90149" lon="0.10408">
        <ele>1477.7</ele>
        <time>2020-02-09T13:14:58.000Z</time>
      </trkpt>
      <trkpt lat="42.90149" lon="0.10385">
        <ele>1475</ele>
        <time>2020-02-09T13:15:00.000Z</time>
      </trkpt>
      <trkpt lat="42.90163" lon="0.10365">
        <ele>1472.2</ele>
        <time>2020-02-09T13:15:02.000Z</time>
      </trkpt>
      <trkpt lat="42.90185" lon="0.1036">
        <ele>1472.7</ele>
        <time>2020-02-09T13:15:04.000Z</time>
      </trkpt>
      <trkpt lat="42.90195" lon="0.10358">
        <ele>1472.7</ele>
        <time>2020-02-09T13:15:05.000Z</time>
      </trkpt>
      <trkpt lat="42.90212" lon="0.10355">
        <ele>1472.6</ele>
        <time>2020-02-09T13:15:07.000Z</time>
      </trkpt>
      <trkpt lat="42.90228" lon="0.10352">
        <ele>1472.2</ele>
        <time>2020-02-09T13:15:09.000Z</time>
      </trkpt>
      <trkpt lat="42.90245" lon="0.10352">
        <ele>1471.5</ele>
        <time>2020-02-09T13:15:11.000Z</time>
      </trkpt>
      <trkpt lat="42.90259" lon="0.10353">
        <ele>1470.7</ele>
        <time>2020-02-09T13:15:13.000Z</time>
      </trkpt>
      <trkpt lat="42.90265" lon="0.10355">
        <ele>1470.3</ele>
        <time>2020-02-09T13:15:14.000Z</time>
      </trkpt>
      <trkpt lat="42.9027" lon="0.10355">
        <ele>1469.9</ele>
        <time>2020-02-09T13:15:15.000Z</time>
      </trkpt>
      <trkpt lat="42.90275" lon="0.10355">
        <ele>1469.7</ele>
        <time>2020-02-09T13:15:16.000Z</time>
      </trkpt>
      <trkpt lat="42.90284" lon="0.10352">
        <ele>1469.1</ele>
        <time>2020-02-09T13:15:18.000Z</time>
      </trkpt>
      <trkpt lat="42.90292" lon="0.1035">
        <ele>1468.6</ele>
        <time>2020-02-09T13:15:20.000Z</time>
      </trkpt>
      <trkpt lat="42.90301" lon="0.10348">
        <ele>1468.3</ele>
        <time>2020-02-09T13:15:22.000Z</time>
      </trkpt>
      <trkpt lat="42.90309" lon="0.10345">
        <ele>1468</ele>
        <time>2020-02-09T13:15:24.000Z</time>
      </trkpt>
      <trkpt lat="42.90331" lon="0.10337">
        <ele>1467.1</ele>
        <time>2020-02-09T13:15:28.000Z</time>
      </trkpt>
      <trkpt lat="42.90328" lon="0.10325">
        <ele>1466.8</ele>
        <time>2020-02-09T13:15:34.000Z</time>
      </trkpt>
      <trkpt lat="42.90332" lon="0.10323">
        <ele>1466.6</ele>
        <time>2020-02-09T13:15:40.000Z</time>
      </trkpt>
      <trkpt lat="42.90336" lon="0.10318">
        <ele>1466.3</ele>
        <time>2020-02-09T13:15:44.000Z</time>
      </trkpt>
      <trkpt lat="42.90339" lon="0.10317">
        <ele>1466.1</ele>
        <time>2020-02-09T13:15:47.000Z</time>
      </trkpt>
      <trkpt lat="42.90342" lon="0.10319">
        <ele>1465.9</ele>
        <time>2020-02-09T13:15:59.000Z</time>
      </trkpt>
      <trkpt lat="42.90344" lon="0.10315">
        <ele>1465.7</ele>
        <time>2020-02-09T13:16:03.000Z</time>
      </trkpt>
      <trkpt lat="42.90346" lon="0.10312">
        <ele>1465.6</ele>
        <time>2020-02-09T13:16:04.000Z</time>
      </trkpt>
      <trkpt lat="42.90349" lon="0.10308">
        <ele>1465.3</ele>
        <time>2020-02-09T13:16:06.000Z</time>
      </trkpt>
      <trkpt lat="42.90352" lon="0.10306">
        <ele>1465.1</ele>
        <time>2020-02-09T13:18:16.000Z</time>
      </trkpt>
      <trkpt lat="42.90355" lon="0.10301">
        <ele>1464.8</ele>
        <time>2020-02-09T13:18:27.000Z</time>
      </trkpt>
      <trkpt lat="42.90358" lon="0.10295">
        <ele>1464.5</ele>
        <time>2020-02-09T13:18:29.000Z</time>
      </trkpt>
      <trkpt lat="42.90361" lon="0.10296">
        <ele>1464.3</ele>
        <time>2020-02-09T13:19:51.000Z</time>
      </trkpt>
      <trkpt lat="42.90363" lon="0.10295">
        <ele>1464.1</ele>
        <time>2020-02-09T13:21:30.000Z</time>
      </trkpt>
      <trkpt lat="42.90368" lon="0.10294">
        <ele>1463.8</ele>
        <time>2020-02-09T13:21:33.000Z</time>
      </trkpt>
      <trkpt lat="42.90365" lon="0.10295">
        <ele>1463.7</ele>
        <time>2020-02-09T13:21:52.000Z</time>
      </trkpt>
      <trkpt lat="42.90367" lon="0.10298">
        <ele>1463.5</ele>
        <time>2020-02-09T13:25:11.000Z</time>
      </trkpt>
    </trkseg>
  </trk>
</gpx>